[[{"header":{"parameterUnit":"m.s-1","parameterCategory":1,"la1":31.0,"la2":29.5877,"lo1":-88.7671,"lo2":-86.6584,"dy":0.0162,"dx":0.0185,"nx":115,"ny":88,"refTime":"2024-07-10T18:00:00:Z","depth":0,"parameterNumber":2,"parameterNumberName":"U-component_of_WINDS"},"data":[0.0,0.0,0.0,0.0,0.0,0.0,0.0,0.0,0.0,0.0,0.0,0.0,0.0,0.0,0.0,0.0,0.0,0.0,0.0,0.0,0.0,0.0,0.0,0.0,0.0,0.0,0.0,0.0,0.0,0.0,0.0,0.0,0.0,0.0,0.0,0.0,0.0,0.0,0.0,0.0,0.0,0.0,0.0,0.0,0.0,0.0,0.0,0.0,0.0,0.0,0.0,0.0,0.0,0.0,0.0,0.0,0.0,0.0,0.0,0.0,0.0,0.0,0.0,0.0,0.0,0.0,0.0,0.0,0.0,0.0,0.0,0.0,0.0,0.0,0.0,0.0,0.0,0.0,0.0,0.0,0.0,0.0,0.0,0.0,0.0,0.0,0.0,0.0,0.0,0.0,0.0,0.0,0.0,0.0,0.0,0.0,0.0,0.0,0.0,0.0,0.0,0.0,0.0,0.0,0.0,0.0,0.0,0.0,0.0,0.0,0.0,0.0,0.0,0.0,0.0,0.0,0.0,0.0,0.0,0.0,0.0,0.0,0.0,0.0,0.0,0.0,0.0,0.0,0.0,0.0,0.0,0.0,0.0,0.0,0.0,0.0,0.0,0.0,0.0,0.0,0.0,0.0,0.0,0.0,0.0,0.0,0.0,0.0,0.0,0.0,0.0,0.0,0.0,0.0,0.0,0.0,0.0,0.0,0.0,0.0,0.0,0.0,0.0,0.0,0.0,0.0,0.0,0.0,0.0,0.0,0.0,0.0,0.0,0.0,0.0,0.0,0.0,0.0,0.0,0.0,0.0,0.0,0.0,0.0,0.0,0.0,0.0,0.0,0.0,0.0,0.0,0.0,0.0,0.0,0.0,0.0,0.0,0.0,0.0,0.0,0.0,0.0,0.0,0.0,0.0,0.0,0.0,0.0,0.0,0.0,0.0,0.0,0.0,0.0,0.0,0.0,0.0,0.0,0.0,0.0,0.0,0.0,0.0,0.0,0.0,0.0,0.0,0.0,0.0,0.0,0.0,0.0,0.0,0.0,0.0,0.0,0.0,0.0,0.0,0.0,0.0,0.0,0.0,0.0,0.0,0.0,0.0,0.0,0.0,0.0,0.0,0.0,0.0,0.0,0.0,0.0,0.0,0.0,0.0,0.0,0.0,0.0,0.0,0.0,0.0,0.0,0.0,0.0,0.0,0.0,0.0,0.0,0.0,0.0,0.0,0.0,0.0,0.0,0.0,0.0,0.0,0.0,0.0,0.0,0.0,0.0,0.0,0.0,0.0,0.0,0.0,0.0,0.0,0.0,0.0,0.0,0.0,0.0,0.0,0.0,0.0,0.0,0.0,0.0,0.0,0.0,0.0,0.0,0.0,0.0,0.0,0.0,0.0,0.0,0.0,0.0,0.0,0.0,0.0,0.0,0.0,0.0,0.0,0.0,0.0,0.0,0.0,0.0,0.0,0.0,0.0,0.0,0.0,0.0,0.0,0.0,0.0,0.0,0.0,0.0,0.0,0.0,0.0,0.0,0.0,0.0,0.0,0.0,0.0,0.0,0.0,0.0,0.0,0.0,0.0,0.0,0.0,0.0,0.0,0.0,0.0,0.0,0.0,0.0,0.0,0.0,0.0,0.0,0.0,0.0,0.0,0.0,0.0,0.0,0.0,0.0,0.0,0.0,0.0,0.0,0.0,0.0,0.0,0.0,0.0,0.0,0.0,0.0,0.0,0.0,0.0,0.0,0.0,0.0,0.0,0.0,0.0,0.0,0.0,0.0,0.0,0.0,0.0,0.0,0.0,0.0,0.0,0.0,0.0,0.0,0.0,0.0,0.0,0.0,0.0,0.0,0.0,0.0,0.0,0.0,0.0,0.0,0.0,0.0,0.0,0.0,0.0,0.0,0.0,0.0,0.0,0.0,0.0,0.0,0.0,0.0,0.0,0.0,0.0,0.0,0.0,0.0,0.0,0.0,0.0,0.0,0.0,0.0,0.0,0.0,0.0,0.0,0.0,0.0,0.0,0.0,0.0,0.0,0.0,0.0,0.0,0.0,0.0,0.0,0.0,0.0,0.0,0.0,0.0,0.0,0.0,0.0,0.0,0.0,0.0,0.0,0.0,0.0,0.0,0.0,0.0,0.0,0.0,0.0,0.0,0.0,0.0,0.0,0.0,0.0,0.0,0.0,0.0,0.0,0.0,0.0,0.0,0.0,0.0,0.0,0.0,0.0,0.0,0.0,0.0,0.0,0.0,0.0,0.0,0.0,0.0,0.0,0.0,0.0,0.0,0.0,0.0,0.0,0.0,0.0,0.0,0.0,0.0,0.0,0.0,0.0,0.0,0.0,0.0,0.0,0.0,0.0,0.0,0.0,0.0,0.0,0.0,0.0,0.0,0.0,0.0,0.0,0.0,0.0,0.0,0.0,0.0,0.0,0.0,0.0,0.0,0.0,0.0,0.0,0.0,0.0,0.0,0.0,0.0,0.0,0.0,0.0,0.0,0.0,0.0,0.0,0.0,0.0,0.0,0.0,0.0,0.0,0.0,0.0,0.0,0.0,0.0,0.0,0.0,0.0,0.0,0.0,0.0,0.0,0.0,0.0,0.0,0.0,0.0,0.0,0.0,0.0,0.0,0.0,0.0,0.0,0.0,0.0,0.0,0.0,0.0,0.0,0.0,0.0,0.0,0.0,0.0,0.0,0.0,0.0,0.0,0.0,0.0,0.0,0.0,0.0,0.0,0.0,0.0,0.0,0.0,0.0,0.0,0.0,0.0,0.0,0.0,0.0,0.0,0.0,0.0,0.0,0.0,0.0,0.0,0.0,0.0,0.0,0.0,0.0,0.0,0.0,0.0,0.0,0.0,0.0,0.0,0.0,0.0,0.0,0.0,0.0,0.0,0.0,0.0,0.0,0.0,0.0,0.0,0.0,0.0,0.0,0.0,0.0,0.0,0.0,0.0,0.0,0.0,0.0,0.0,0.0,0.0,0.0,0.0,0.0,0.0,0.0,0.0,0.0,0.0,0.0,0.0,0.0,0.0,0.0,0.0,0.0,0.0,0.0,0.0,0.0,0.0,0.0,0.0,0.0,0.0,0.0,0.0,0.0,0.0,0.0,0.0,0.0,0.0,0.0,0.0,0.0,0.0,0.0,0.0,0.0,0.0,0.0,0.0,0.0,0.0,0.0,0.0,0.0,0.0,0.0,0.0,0.0,0.0,0.0,0.0,0.0,0.0,0.0,0.0,0.0,0.0,0.0,0.0,0.0,0.0,0.0,0.0,0.0,0.0,0.0,0.0,0.0,0.0,0.0,0.0,0.0,0.0,0.0,0.0,0.0,0.0,0.0,0.0,0.0,0.0,0.0,0.0,0.0,0.0,0.0,0.0,0.0,0.0,0.0,0.0,0.0,0.0,0.0,0.0,0.0,0.0,0.0,0.0,0.0,0.0,0.0,0.0,0.0,0.0,0.0,0.0,0.0,0.0,0.0,0.0,0.0,0.0,0.0,0.0,0.0,0.0,0.0,0.0,0.0,0.0,0.0,0.0,0.0,0.0,0.0,0.0,0.0,0.0,0.0,0.0,0.0,0.0,0.0,0.0,0.0,0.0,0.0,0.0,0.0,0.0,0.0,0.0,0.0,0.0,0.0,0.0,0.0,0.0,0.0,0.0,0.0,0.0,0.0,0.0,0.0,0.0,0.0,0.0,0.0,0.0,0.0,0.0,0.0,0.0,0.0,0.0,0.0,0.0,0.0,0.0,0.0,0.0,0.0,0.0,0.0,0.0,0.0,0.0,0.0,0.0,0.0,0.0,0.0,0.0,0.0,0.0,0.0,0.0,0.0,0.0,0.0,0.0,0.0,0.0,0.0,0.0,0.0,0.0,0.0,0.0,0.0,0.0,0.0,0.0,0.0,0.0,0.0,0.0,0.0,0.0,0.0,0.0,0.0,0.0,0.0,0.0,0.0,0.0,0.0,0.0,0.0,0.0,0.0,0.0,0.0,0.0,0.0,0.0,0.0,0.0,0.0,0.0,0.0,0.0,0.0,0.0,0.0,0.0,0.0,0.0,0.0,0.0,0.0,0.0,0.0,0.0,0.0,0.0,0.0,0.0,0.0,0.0,0.0,0.0,0.0,0.0,0.0,0.0,0.0,0.0,0.0,0.0,0.0,0.0,0.0,0.0,0.0,0.0,0.0,0.0,0.0,0.0,0.0,0.0,0.0,0.0,0.0,0.0,0.0,0.0,0.0,0.0,0.0,0.0,0.0,0.0,0.0,0.0,0.0,0.3023,0.0,0.0,0.0,0.0,0.0,0.0,0.0,0.0,0.0,0.0,0.0,0.0,0.0,0.0,0.0,0.0,0.0,0.0,0.0,0.0,0.0,0.0,0.0,0.0,0.0,0.0,0.0,0.0,0.0,0.0,0.0,0.0,0.0,0.0,0.0,0.0,0.0,0.0,0.0,0.0,0.0,0.0,0.0,0.0,0.0,0.0,0.0,0.0,0.0,0.0,0.0,0.0,0.0,0.0,0.0,0.0,0.0,0.0,0.0,0.0,0.0,0.0,0.0,0.0,0.0,0.0,0.0,0.0,0.0,0.0,0.0,0.0,0.0,0.0,0.0,0.0,0.0,0.0,0.0,0.0,0.0,0.0,0.0,0.0,0.0,0.0,0.0,0.0,0.0,0.0,0.0,0.0,0.0,0.0,0.0,0.0,0.0,0.0,0.0,0.0,0.0,0.0,0.0,0.0,0.0,0.0,0.0,0.0,0.0,0.0,0.3039,0.3142,0.3508,0.3479,0.3027,0.0,0.0,0.0,0.0,0.0,0.0,0.0,0.0,0.0,0.0,0.0,0.0,0.0,0.0,0.0,0.0,0.0,0.0,0.0,0.0,0.0,0.0,0.0,0.0,0.0,0.0,0.0,0.0,0.0,0.0,0.0,0.0,0.0,0.0,0.0,0.0,0.0,0.0,0.0,0.0,0.0,0.0,0.0,0.0,0.0,0.0,0.0,0.0,0.0,0.0,0.0,0.0,0.0,0.0,0.0,0.0,0.0,0.0,0.0,0.0,0.0,0.0,0.0,0.0,0.0,0.0,0.0,0.0,0.0,0.0,0.0,0.0,0.0,0.0,0.0,0.0,0.0,0.0,0.0,0.0,0.0,0.0,0.0,0.0,0.0,0.0,0.0,0.0,0.0,0.0,0.0,0.0,0.0,0.0,0.0,0.0,0.0,0.0,0.0,0.0,0.0,0.0,0.0,0.0,0.0,0.0,0.0,0.0,0.0,0.0,0.0,0.0,0.3528,0.3531,0.326,0.0,0.0,0.0,0.0,0.0,0.0,0.0,0.0,0.0,0.0,0.0,0.0,0.0,0.0,0.0,0.0,0.0,0.0,0.0,0.0,0.0,0.0,0.0,0.0,0.0,0.0,0.0,0.0,0.0,0.0,0.0,0.0,0.0,0.0,0.0,0.0,0.0,0.0,0.0,0.0,0.0,0.0,0.0,0.0,0.0,0.0,0.0,0.0,0.0,0.0,0.0,0.0,0.0,0.0,0.0,0.0,0.0,0.0,0.0,0.0,0.0,0.0,0.0,0.0,0.0,0.0,0.0,0.0,0.0,0.0,0.0,0.0,0.0,0.0,0.0,0.0,0.0,0.0,0.0,0.0,0.0,0.0,0.0,0.0,0.0,0.0,0.0,0.0,0.0,0.0,0.0,0.0,0.0,0.0,0.0,0.0,0.0,0.0,0.0,0.0,0.0,0.0,0.0,0.0,0.0,0.0,0.0,0.0,0.0,0.0,0.3218,0.345,0.3633,0.0,0.3882,0.0,0.0,0.0,0.0,0.0,0.0,0.0,0.0,0.0,0.0,0.0,0.0,0.0,0.0,0.0,0.0,0.0,0.0,0.0,0.0,0.0,0.0,0.0,0.0,0.0,0.0,0.0,0.0,0.0,0.0,0.0,0.0,0.0,0.0,0.0,0.0,0.0,0.0,0.0,0.0,0.0,0.0,0.0,0.0,0.0,0.0,0.0,0.0,0.0,0.0,0.0,0.0,0.0,0.0,0.0,0.0,0.0,0.0,0.0,0.0,0.0,0.0,0.0,0.0,0.0,0.0,0.0,0.0,0.0,0.0,0.0,0.0,0.0,0.0,0.0,0.0,0.0,0.0,0.0,0.0,0.0,0.0,0.0,0.0,0.0,0.0,0.0,0.0,0.0,0.0,0.0,0.0,0.0,0.0,0.0,0.0,0.0,0.0,0.0,0.0,0.0,0.0,0.0,0.0,0.0,0.0,0.0,0.0,0.0,0.0,0.3483,0.3288,0.3289,0.344,0.0,0.0,0.0,0.0,0.0,0.0,0.0,0.0,0.0,0.0,0.0,0.0,0.0,0.0,0.0,0.0,0.0,0.0,0.0,0.0,0.0,0.0,0.0,0.0,0.0,0.0,0.0,0.0,0.0,0.0,0.0,0.0,0.0,0.0,0.0,0.0,0.0,0.0,0.0,0.0,0.0,0.0,0.0,0.0,0.0,0.0,0.0,0.0,0.0,0.0,0.0,0.0,0.0,0.0,0.0,0.0,0.0,0.0,0.0,0.0,0.0,0.0,0.0,0.0,0.0,0.0,0.0,0.0,0.0,0.0,0.0,0.0,0.0,0.0,0.0,0.0,0.0,0.0,0.0,0.0,0.0,0.0,0.0,0.0,0.0,0.0,0.0,0.0,0.0,0.0,0.0,0.0,0.0,0.0,0.0,0.0,0.0,0.0,0.0,0.0,0.0,0.0,0.0,0.0,0.0,0.0,0.0,0.0,0.0,0.0,0.3452,0.0,0.3235,0.3317,0.3448,0.3572,0.0,0.0,0.0,0.0,0.0,0.0,0.0,0.0,0.0,0.0,0.0,0.0,0.0,0.0,0.0,0.0,0.0,0.0,0.0,0.0,0.0,0.0,0.0,0.0,0.0,0.0,0.0,0.0,0.0,0.0,0.0,0.0,0.0,0.0,0.0,0.0,0.0,0.0,0.0,0.0,0.0,0.0,0.0,0.0,0.0,0.0,0.0,0.0,0.0,0.0,0.0,0.0,0.0,0.0,0.0,0.0,0.0,0.0,0.0,0.0,0.0,0.0,0.0,0.0,0.0,0.0,0.0,0.0,0.0,0.0,0.0,0.0,0.0,0.0,0.0,0.0,0.0,0.0,0.0,0.0,0.0,0.0,0.0,0.0,0.0,0.0,0.0,0.0,0.0,0.0,0.0,0.0,0.0,0.0,0.0,0.0,0.0,0.0,0.0,0.0,0.0,0.0,0.0,0.0,0.0,0.0,0.0,0.0,0.0,0.3251,0.3247,0.3506,0.4035,0.4102,0.0,0.0,0.0,0.0,0.0,0.0,0.0,0.0,0.0,0.0,0.0,0.0,0.0,0.0,0.0,0.0,0.0,0.0,0.0,0.0,0.0,0.0,0.0,0.0,0.0,0.0,0.0,0.0,0.0,0.0,0.0,0.0,0.0,0.0,0.0,0.0,0.0,0.0,0.0,0.0,0.0,0.0,0.0,0.0,0.0,0.0,0.0,0.0,0.0,0.0,0.0,0.0,0.0,0.0,0.0,0.0,0.0,0.0,0.0,0.0,0.0,0.0,0.0,0.0,0.0,0.0,0.0,0.0,0.0,0.0,0.0,0.0,0.0,0.0,0.0,0.0,0.0,0.0,0.0,0.0,0.0,0.0,0.0,0.0,0.0,0.0,0.0,0.0,0.0,0.0,0.0,0.0,0.0,0.0,0.0,0.0,0.0,0.0,0.0,0.0,0.0,0.0,0.0,0.0,0.0,0.0,0.0,0.0,0.0,0.3104,0.3267,0.3818,0.4778,0.4121,0.3746,0.0,0.0,0.0,0.0,0.0,0.0,0.0,0.0,0.0,0.0,0.0,0.0,0.0,0.0,0.0,0.0,0.0,0.0,0.0,0.0,0.0,0.0,0.0,0.0,0.0,0.0,0.0,0.0,0.0,0.0,0.0,0.0,0.0,0.0,0.0,0.0,0.0,0.0,0.0,0.0,0.0,0.0,0.0,0.0,0.0,0.0,0.0,0.0,0.0,0.0,0.0,0.0,0.0,0.0,0.0,0.0,0.0,0.0,0.0,0.0,0.0,0.0,0.0,0.0,0.0,0.0,0.0,0.0,0.0,0.0,0.0,0.0,0.0,0.0,0.0,0.0,0.0,0.0,0.0,0.0,0.0,0.0,0.0,0.0,0.0,0.0,0.0,0.0,0.0,0.0,0.0,0.0,0.0,0.0,0.0,0.0,0.0,0.0,0.0,0.0,0.0,0.0,0.0,0.0,0.0,0.0,0.0,0.0,0.0,0.3039,0.0,0.4226,0.0,0.4156,0.3764,0.0,0.0,0.0,0.0,0.0,0.0,0.0,0.0,0.0,0.0,0.0,0.0,0.0,0.0,0.0,0.0,0.0,0.0,0.0,0.0,0.0,0.0,0.0,0.0,0.0,0.0,0.0,0.0,0.0,0.0,0.0,0.0,0.0,0.0,0.0,0.0,0.0,0.0,0.0,0.0,0.0,0.0,0.0,0.0,0.0,0.0,0.0,0.0,0.0,0.0,0.0,0.0,0.0,0.0,0.0,0.0,0.0,0.0,0.0,0.0,0.0,0.0,0.0,0.0,0.0,0.0,0.0,0.0,0.0,0.0,0.0,0.0,0.0,0.0,0.0,0.0,0.0,0.0,0.0,0.0,0.0,0.0,0.0,0.0,0.0,0.0,0.0,0.0,0.0,0.0,0.0,0.0,0.0,0.0,0.0,0.0,0.0,0.0,0.0,0.0,0.0,0.0,0.0,0.0,0.0,0.0,0.0,0.0,0.2983,0.3319,0.3998,0.4348,0.4148,0.4232,0.4138,0.0,0.0,0.0,0.0,0.0,0.0,0.0,0.0,0.0,0.0,0.0,0.0,0.0,0.0,0.0,0.0,0.0,0.0,0.0,0.0,0.0,0.0,0.0,0.0,0.0,0.0,0.0,0.0,0.0,0.0,0.0,0.0,0.0,0.0,0.0,0.0,0.0,0.0,0.0,0.0,0.0,0.0,0.0,0.0,0.0,0.0,0.0,0.0,0.0,0.0,0.0,0.0,0.0,0.0,0.0,0.0,0.0,0.0,0.0,0.0,0.0,0.0,0.0,0.0,0.0,0.0,0.0,0.0,0.0,0.0,0.0,0.0,0.0,0.0,0.0,0.0,0.0,0.0,0.0,0.0,0.0,0.0,0.0,0.0,0.0,0.0,0.0,0.0,0.0,0.0,0.0,0.0,0.0,0.0,0.0,0.0,0.0,0.0,0.0,0.0,0.0,0.0,0.0,0.0,0.0,0.0,0.0,0.0,0.0,0.3923,0.4372,0.4868,0.5441,0.4692,0.4451,0.0,0.0,0.0,0.0,0.0,0.0,0.0,0.0,0.0,0.0,0.0,0.0,0.0,0.0,0.0,0.0,0.0,0.0,0.0,0.0,0.0,0.0,0.0,0.0,0.0,0.0,0.0,0.0,0.0,0.0,0.0,0.0,0.0,0.0,0.0,0.0,0.0,0.0,0.0,0.0,0.0,0.0,0.0,0.0,0.0,0.0,0.0,0.0,0.0,0.0,0.0,0.0,0.0,0.0,0.0,0.0,0.0,0.0,0.0,0.0,0.0,0.0,0.0,0.0,0.0,0.0,0.0,0.0,0.0,0.0,0.0,0.0,0.0,0.0,0.0,0.0,0.0,0.0,0.0,0.0,0.0,0.0,0.0,0.0,0.0,0.0,0.0,0.0,0.0,0.0,0.0,0.0,0.0,0.0,0.0,0.0,0.0,0.0,0.0,0.0,0.0,0.0,0.0,0.0,0.0,0.0,0.0,0.0,0.0,0.4717,0.46,0.4909,0.5661,0.4804,0.4484,0.4873,0.0,0.0,0.0,0.0,0.0,0.0,0.0,0.0,0.0,0.0,0.0,0.0,0.0,0.0,0.0,0.0,0.0,0.0,0.0,0.0,0.0,0.0,0.0,0.0,0.0,0.0,0.0,0.0,0.0,0.0,0.0,0.0,0.0,0.0,0.0,0.0,0.0,0.0,0.0,0.0,0.0,0.0,0.0,0.0,0.0,0.0,0.0,0.0,0.0,0.0,0.0,0.0,0.0,0.0,0.0,0.0,0.0,0.0,0.0,0.0,0.0,0.0,0.0,0.0,0.0,0.0,0.0,0.0,0.0,0.0,0.0,0.0,0.0,0.0,0.0,0.0,0.0,0.0,0.0,0.0,0.0,0.0,0.0,0.0,0.0,0.0,0.0,0.0,0.0,0.0,0.0,0.0,0.0,0.0,0.0,0.0,0.0,0.0,0.0,0.0,0.0,0.0,0.0,0.0,0.0,0.0,0.0,0.0,0.5593,0.4782,0.4603,0.5063,0.4599,0.4385,0.0,0.0,0.0,0.0,0.0,0.0,0.0,0.0,0.0,0.0,0.0,0.0,0.0,0.0,0.0,0.0,0.0,0.0,0.0,0.0,0.0,0.0,0.0,0.0,0.0,0.0,0.0,0.0,0.0,0.0,0.0,0.0,0.0,0.0,0.0,0.0,0.0,0.0,0.0,0.0,0.0,0.0,0.0,0.0,0.0,0.0,0.0,0.0,0.0,0.0,0.0,0.0,0.0,0.0,0.0,0.0,0.0,0.0,0.0,0.0,0.0,0.0,0.0,0.0,0.0,0.0,0.0,0.0,0.0,0.0,0.0,0.0,0.0,0.0,0.0,0.0,0.0,0.0,0.0,0.0,0.0,0.0,0.0,0.0,0.0,0.0,0.0,0.0,0.0,0.0,0.0,0.0,0.0,0.0,0.0,0.0,0.0,0.0,0.0,0.0,0.0,0.0,0.0,0.0,0.0,0.0,0.0,0.0,0.0,0.5599,0.5217,0.5311,0.584,0.5183,0.4975,0.0,0.0,0.0,0.0,0.0,0.0,0.0,0.0,0.0,0.0,0.0,0.0,0.0,0.0,0.0,0.0,0.0,0.0,0.0,0.0,0.0,0.0,0.0,0.0,0.0,0.0,0.0,0.0,0.0,0.0,0.0,0.0,0.0,0.0,0.0,0.0,0.0,0.0,0.0,0.0,0.0,0.0,0.0,0.0,0.0,0.0,0.0,0.0,0.0,0.0,0.0,0.0,0.0,0.0,0.0,0.0,0.0,0.0,0.0,0.0,0.0,0.0,0.0,0.0,0.0,0.0,0.0,0.0,0.0,0.0,0.0,0.0,0.0,0.0,0.0,0.0,0.0,0.0,0.0,0.0,0.0,0.0,0.0,0.0,0.0,0.0,0.0,0.0,0.0,0.0,0.0,0.0,0.0,0.0,0.0,0.0,0.0,0.0,0.0,0.0,0.0,0.0,0.0,0.0,0.0,0.0,0.0,0.0,0.613,0.6042,0.5951,0.6032,0.6287,0.5597,0.5236,0.0,0.0,0.0,0.0,0.0,0.0,0.0,0.0,0.0,0.0,0.0,0.0,0.0,0.0,0.0,0.0,0.0,0.0,0.0,0.0,0.0,0.0,0.0,0.0,0.0,0.0,0.0,0.0,0.0,0.0,0.0,0.0,0.0,0.0,0.0,0.0,0.0,0.0,0.0,0.0,0.0,0.0,0.0,0.0,0.0,0.0,0.0,0.0,0.0,0.0,0.0,0.0,0.0,0.0,0.0,0.0,0.0,0.0,0.0,0.0,0.0,0.0,0.0,0.0,0.0,0.0,0.0,0.0,0.0,0.0,0.0,0.0,0.0,0.0,0.0,0.0,0.0,0.0,0.0,0.0,0.0,0.0,0.0,0.0,0.0,0.0,0.0,0.0,0.0,0.0,0.0,0.0,0.0,0.0,0.0,0.0,0.0,0.0,0.0,0.0,0.0,0.0,0.0,0.0,0.0,0.0,0.0,0.0,0.6828,0.6716,0.6709,0.6608,0.6444,0.5817,0.5342,0.0,0.0,0.0,0.0,0.0,0.0,0.0,0.0,0.0,0.0,0.0,0.0,0.0,0.0,0.0,0.0,0.0,0.0,0.0,0.0,0.0,0.0,0.0,0.0,0.0,0.0,0.0,0.0,0.0,0.0,0.0,0.0,0.0,0.0,0.0,0.0,0.0,0.0,0.0,0.0,0.0,0.0,0.0,0.0,0.0,0.0,0.0,0.0,0.0,0.0,0.0,0.0,0.0,0.0,0.0,0.0,0.0,0.0,0.0,0.0,0.0,0.0,0.0,0.0,0.0,0.0,0.0,0.0,0.0,0.0,0.0,0.0,0.0,0.0,0.0,0.0,0.0,0.0,0.0,0.0,0.0,0.0,0.0,0.0,0.0,0.0,0.0,0.0,0.0,0.0,0.0,0.0,0.0,0.0,0.0,0.0,0.0,0.0,0.0,0.0,0.0,0.0,0.0,0.0,0.0,0.0,0.0,0.0,0.6891,0.6697,0.6703,0.6771,0.6859,0.5976,0.5423,0.0,0.0,0.0,0.0,0.0,0.0,0.0,0.0,0.0,0.0,0.0,0.0,0.0,0.0,0.0,0.0,0.0,0.0,0.0,0.0,0.0,0.0,0.0,0.0,0.0,0.0,0.0,0.0,0.0,0.0,0.0,0.0,0.0,0.0,0.0,0.0,0.0,0.0,0.0,0.0,0.0,0.0,0.0,0.0,0.0,0.0,0.0,0.0,0.0718,0.0,0.0,0.0,0.0,0.0,0.0,0.0,0.0,0.0,0.0,0.0,0.0,0.0,0.0,0.0,0.0,0.0,0.0,0.0,0.0,0.0,0.0,0.0,0.0,0.0,0.0,0.0,0.0,0.0,0.0,0.0,0.0,0.0,0.0,0.0,0.0,0.0,0.0,0.0,0.0,0.0,0.0,0.0,0.0,0.0,0.0,0.0,0.0,0.0,0.0,0.0,0.0,0.0,0.0,0.0,0.0,0.0,0.0,0.0,0.7027,0.7055,0.6902,0.694,0.7147,0.6511,0.6003,0.0,0.0,0.0,0.0,0.0,0.0,0.0,0.0,0.0,0.0,0.0,0.0,0.0,0.0,0.0,0.0,0.0,0.0,0.0,0.0,0.0,0.0,0.0,0.0,0.0,0.0,0.0,0.0,0.0,0.0,0.0,0.0,0.0,0.0,0.0,0.0,0.0,0.0,0.0,0.0,0.0,0.0,0.0,0.0,0.0,0.0,0.0,0.0,0.0,0.0,0.0,0.0,0.0,0.0,0.0,0.0,0.0,0.0,0.0,0.0,0.0,0.0,0.0,0.0,0.0,0.0,0.0,0.0,0.0,0.0,0.0,0.0,0.0,0.0,0.0,0.0,0.0,0.0,0.0,0.0,0.0,0.0,0.0,0.0,0.0,0.0,0.0,0.0,0.0,0.0,0.0,0.0,0.0,0.0,0.0,0.0,0.0,0.0,0.0,0.0,0.0,0.0,0.0,0.0,0.0,0.0,0.0,0.6839,0.7192,0.7398,0.7147,0.7108,0.737,0.7125,0.6716,0.6135,0.0,0.0,0.0,0.0,0.0,0.0,0.0,0.0,0.0,0.0,0.0,0.0,0.0,0.0,0.0,0.0,0.0,0.0,0.0,0.0,0.0,0.0,0.0,0.0,0.0,0.0,0.0,0.0,0.0,0.0,0.0,0.0,0.0,0.0,0.0,0.0,0.0,0.0,0.3973,0.3939,0.0,0.0,0.0,0.0,0.0,0.0,0.0,0.0,0.0796,0.0,0.0,0.0,0.0,0.0,0.0,0.0,0.0,0.0,0.0,0.0,0.0,0.0,0.0,0.0,0.0,0.0,0.0,0.0,0.0,0.0,0.0,0.0,0.0,0.0,0.0,0.0,0.0,0.0,0.0,0.0,0.0,0.0,0.0,0.0,0.0,0.0,0.0,0.0,0.0,0.0,0.0,0.0,0.0,0.0,0.0,0.0,0.0,0.0,0.0,0.0,0.0,0.0,0.0,0.0,0.0,0.655,0.7093,0.7202,0.6995,0.6985,0.7108,0.737,0.7335,0.6962,0.6233,0.0,0.0,0.0,0.0,0.0,0.0,0.0,0.0,0.0,0.0,0.0,0.0,0.0,0.0,0.0,0.0,0.0,0.0,0.0,0.0,0.0,0.0,0.0,0.0,0.0,0.0,0.0,0.0,0.0,0.0,0.0,0.0,0.0,0.0,0.0,0.0,0.0,0.0,0.0,0.4047,0.3114,0.0,0.0,0.0,0.0,0.0,0.0,0.0,0.0,0.0309,0.0,0.0,0.0,0.0,0.0,0.0,0.0,0.0,0.0,0.0,0.0,0.0,0.0,0.0,0.0,0.0,0.0,0.0,0.0,0.0,0.0,0.0,0.0,0.0,0.0,0.0,0.0,0.0,0.0,0.0,0.0,0.0,0.0,0.0,0.0,0.0,0.0,0.0,0.0,0.0,0.0,0.0,0.0,0.0,0.0,0.0,0.0,0.0,0.0,0.0,0.0,0.0,0.0,0.0,0.0,0.725,0.7176,0.737,0.7818,0.7436,0.7482,0.7912,0.7536,0.699,0.0,0.0,0.0,0.0,0.0,0.0,0.0,0.0,0.0,0.0,0.0,0.0,0.0,0.0,0.0,0.0,0.0,0.0,0.0,0.0,0.0,0.0,0.0,0.0,0.0,0.0,0.0,0.0,0.0,0.0,0.0,0.0,0.0,0.0,0.0,0.0,0.0,0.0,0.0,0.0,0.3135,0.2777,0.2305,0.0,0.0,0.0,0.0,0.0,0.0,0.0355,0.0091,0.0,0.0,0.0,0.0,0.0,0.0,0.0,0.0,0.0,0.0,0.0,0.0,0.0,0.0,0.0,0.0,0.0,0.0,0.0,0.0,0.0,0.0,0.0,0.0,0.0,0.0,0.0,0.0,0.0,0.0,0.0,0.0,0.0,0.0,0.0,0.0,0.0,0.0,0.0,0.0,0.0,0.0,0.0,0.0,0.0,0.0,0.0,0.0,0.0,0.0,0.0,0.0,0.0,0.0,0.0,0.7669,0.7297,0.7534,0.839,0.7848,0.7773,0.8238,0.7601,0.6969,0.0,0.0,0.0,0.0,0.0,0.0,0.0,0.0,0.0,0.0,0.0,0.0,0.0,0.0,0.0,0.0,0.0,0.0,0.0,0.0,0.0,0.0,0.0,0.0,0.0,0.0,0.0,0.0,0.0,0.0,0.0,0.0,0.0,0.0,0.0,0.0,0.0,0.0,0.0,0.0,0.0,0.2347,0.3283,0.1648,0.0,0.0,0.0,0.0,0.0781,0.0274,0.0,0.0,0.0,0.0,0.0,0.0,0.0,0.0,0.0,0.0,0.0,0.0,0.0,0.0,0.0,0.0,0.0,0.0,0.0,0.0,0.0,0.0,0.0,0.0,0.0,0.0,0.0,0.0,0.0,0.0,0.0,0.0,0.0,0.0,0.0,0.0,0.0,0.0,0.0,0.0,0.0,0.0,0.0,0.0,0.0,0.0,0.0,0.0,0.0,0.0,0.0,0.0,0.0,0.0,0.0,0.0,0.7097,0.7435,0.7625,0.7644,0.7637,0.7727,0.7765,0.728,0.6831,0.0,0.0,0.0,0.0,0.0,0.0,0.0,0.0,0.0,0.0,0.0,0.0,0.0,0.0,0.0,0.0,0.0,0.0,0.0,0.0,0.0,0.0,0.0,0.0,0.0,0.0,0.0,0.0,0.0,0.0,0.0,0.0,0.0,0.0,0.0,0.0,0.0,0.0,0.0,0.0,0.0,0.1377,0.0585,0.043,0.0433,0.0,0.0,0.0714,0.0683,0.0132,0.0,0.0,0.0,0.0,0.0,0.0,0.0,0.0,0.0,0.0,0.0,0.0,0.0,0.0,0.0,0.0,0.0,0.0,0.0,0.0,0.0,0.0,0.0,0.0,0.0,0.0,0.0,0.0,0.0,0.0,0.0,0.0,0.0,0.0,0.0,0.0,0.0,0.0,0.0,0.0,0.0,0.0,0.0,0.0,0.0,0.0,0.0,0.0,0.0,0.0,0.0,0.0,0.0,0.0,0.0,0.7111,0.7521,0.7735,0.8032,0.8312,0.7934,0.7807,0.8115,0.7104,0.6528,0.0,0.0,0.0,0.0,0.0,0.0,0.0,0.0,0.0,0.0,0.0,0.0,0.0,0.0,0.0,0.0,0.0,0.0,0.0,0.0,0.0,0.0,0.0,0.0,0.0,0.0,0.0,0.0,0.0,0.0,0.0,0.0,0.0,0.0,0.0,0.0,0.0,0.0,0.0,0.0,0.0,0.0,0.0041,0.0245,0.0,0.0,0.0,0.0642,0.0449,0.0,0.0,0.0,0.0,0.0,0.0,0.0,0.0,0.0,0.0,0.0,0.0,0.0,0.0,0.0,0.0,0.0,0.0,0.0,0.0,0.0,0.0,0.0,0.0,0.0,0.0,0.0,0.0,0.0,0.0,0.0,0.0,0.0,0.0,0.0,0.0,0.0,0.0,0.0,0.0,0.0,0.0,0.0,0.0,0.0,0.0,0.0,0.0,0.0,0.0,0.0,0.0,0.0,0.0,0.0,0.0,0.0,0.7729,0.8014,0.8394,0.8818,0.8308,0.8189,0.8525,0.7229,0.0,0.0,0.0,0.0,0.0,0.0,0.0,0.0,0.0,0.0,0.0,0.0,0.0,0.0,0.0,0.0,0.0,0.0,0.0,0.0,0.0,0.0,0.0,0.0,0.0,0.0,0.0,0.2644,0.0,0.0,0.0,0.0,0.0,0.0,0.0,0.0,0.0,0.0,0.0,0.0,0.0,0.0,-0.027,0.0131,0.0305,0.0482,0.0,0.0,0.0569,0.0232,-0.0047,-0.0283,0.0,0.0,0.0,0.0,0.0,0.0,0.0,0.0,0.0,0.0,0.0,0.0,0.0,0.0,0.0,0.0,0.0,0.0,0.0,0.0,0.0,0.0,0.0,0.0,0.0,0.0,0.0,0.0,0.0,0.0,0.0,0.0,0.0,0.0,0.0,0.0,0.0,0.0,0.0,0.0,0.0,0.0,0.0,0.0,0.0,0.0,0.0,0.0,0.0,0.0,0.0,0.0,0.0,0.0,0.0,0.7264,0.8174,0.8606,0.8459,0.8737,0.8935,0.8931,0.7886,0.7183,0.0,0.0,0.0,0.0,0.0,0.0,0.0,0.0,0.0,0.0,0.0,0.0,0.0,0.0,0.0,0.0,0.0,0.0,0.0,0.0,0.0,0.0,0.0,0.0,0.0,0.0,0.0,0.0,0.0,0.0,0.0,0.0,0.0,0.0,0.0,0.0,0.0,0.0,0.0,0.0,0.0,-0.0142,0.0569,0.0522,0.0468,0.0,0.0,0.0583,0.0226,0.018,-0.0045,-0.0644,0.0,0.0,0.0,0.0,0.0,0.0,0.0,0.0,0.0,0.0,0.0,0.0,0.0,0.0,0.0,0.0,0.0,0.0,0.0,0.0,0.0,0.0,0.0,0.0,0.0,0.0,0.0,0.0,0.0,0.0,0.0,0.0,0.0,0.0,0.0,0.0,0.0,0.0,0.0,0.0,0.0,0.0,0.0,0.0,0.0,0.0,0.0,0.0,0.0,0.0,0.0,0.0,0.0,0.7308,0.7338,0.8355,0.8854,0.8777,0.87,0.8614,0.8618,0.7432,0.6748,0.0,0.0,0.0,0.0,0.0,0.0,0.0,0.0,0.0,0.0,0.0,0.0,0.0,0.0,0.0,0.0,0.0,0.0,0.0,0.0,0.0,0.0,0.0,0.0,0.0,0.0,0.0,0.0,0.3574,0.3836,0.3974,0.0,0.0,0.0,0.0,0.0,0.0,0.0,0.0,0.0,0.0,-0.0097,0.1187,0.1426,0.0,0.0,0.1512,0.1062,0.0675,0.0229,-0.0185,-0.0501,-0.0552,0.0,0.0,0.0,0.0,0.0,0.0,0.0,0.0,0.0,0.0,0.0,0.0,0.0,0.0,0.0,0.0,0.0,0.0,0.0,0.0,0.0,0.0,0.0,0.0,0.0,0.0,0.0,0.0,0.0,0.0,0.0,0.0,0.0,0.0,0.0,0.0,0.0,0.0,0.0,0.0,0.0,0.0,0.0,0.0,0.0,0.0,0.0,0.0,0.0,0.0,0.0,0.0,0.7372,0.7365,0.8417,0.8939,0.8818,0.8655,0.8537,0.839,0.7262,0.6593,0.0,0.0,0.0,0.0,0.0,0.0,0.0,0.0,0.0,0.0,0.0,0.0,0.0,0.0,0.0,0.0,0.0,0.0,0.0,0.0,0.0,0.0,0.0,0.0,0.0,0.0,0.0,0.0,0.3556,0.3654,0.3938,0.0,0.0,0.0,0.0,0.0,0.0,0.0,0.0,0.0,0.0,0.1407,0.1981,0.2221,0.2392,0.2523,0.1942,0.1348,0.1005,0.042,-0.0047,-0.0281,0.0,0.0,0.0,0.0,0.0,0.0,0.0,0.0,0.0,0.0,0.0,0.0,0.0,0.0,0.0,0.0,0.0,0.0,0.0,0.0,0.0,0.0,0.0,0.0,0.0,0.0,0.0,0.0,0.0,0.0,0.599,0.0,0.0,0.0,0.0,0.0,0.0,0.0,0.0,0.0,0.0,0.0,0.0,0.0,0.0,0.0,0.0,0.0,0.0,0.0,0.0,0.0,0.0,0.7336,0.7249,0.8378,0.8777,0.8455,0.8777,0.8801,0.8456,0.7557,0.6873,0.6469,0.0,0.0,0.0,0.0,0.0,0.0,0.0,0.0,0.0,0.0,0.0,0.0,0.0,0.0,0.0,0.0,0.0,0.0,0.0,0.0,0.0,0.0,0.0,0.0,0.0,0.0,0.4023,0.3508,0.3164,0.0,0.0,0.0,0.0,0.0,0.0,0.0,0.0,0.0,0.0,0.4322,0.4815,0.2883,0.2769,0.2784,0.2483,0.1844,0.1321,0.1131,0.0904,0.0565,0.0,0.0,0.0,0.0,0.0,0.0,0.0,0.0,0.0,0.0,0.0,0.0,0.0,0.0,0.0,0.0,0.0,0.0,0.0,0.0,0.0,0.0,0.0,0.0,0.0,0.0,0.0,0.6765,0.6459,0.0,0.0,0.0,0.0,0.0,0.0,0.0,0.0,0.0,0.0,0.0,0.5677,0.6162,0.0,0.0,0.0,0.0,0.0,0.0,0.0,0.0,0.0,0.0,0.0,0.0,0.7561,0.7867,0.8342,0.8541,0.841,0.8047,0.785,0.7772,0.6928,0.6205,0.5718,0.0,0.0,0.0,0.0,0.0,0.0,0.0,0.0,0.0,0.0,0.0,0.0,0.0,0.0,0.0,0.0,0.0,0.0,0.0,0.0,0.0,0.0,0.0,0.0,0.0,0.3943,0.0,0.0,0.0,0.0,0.0,0.0,0.0,0.0,0.0,0.0,0.0,0.5296,0.4882,0.4656,0.4407,0.4025,0.3391,0.2943,0.0,0.0,0.0,0.0,0.0,0.0,0.0,0.0,0.0,0.0,0.0,0.0,0.0,0.0,0.0589,-0.0735,-0.1146,-0.1226,-0.1013,0.0,0.0,0.0,0.0,0.0,0.0,0.0,0.0,0.0,0.0,0.0,0.0,0.0,0.0,0.6929,0.0,0.6798,0.0,0.0,0.0,0.0,0.0,0.0,0.0,0.0,0.6959,0.6819,0.6114,0.6591,0.6616,0.0,0.6571,0.6819,0.0,0.0,0.0,0.0,0.0,0.0,0.0,0.0,0.7701,0.7937,0.8164,0.818,0.8022,0.7557,0.7233,0.7091,0.6357,0.5771,0.5322,0.5312,0.5312,0.0,0.0,0.0,0.0,0.0,0.0,0.0,0.0,0.0,0.0,0.0,0.0,0.0,0.0,0.0,0.0,0.0,0.0,0.0,0.0,0.0,0.0,0.0,0.4297,0.0,0.0,0.0,0.0,0.0,0.0,0.0,0.0,0.0,0.5882,0.559,0.5368,0.5481,0.485,0.4313,0.4148,0.0,0.0,0.0,0.0,0.0,0.0,0.0,0.0725,0.0477,0.0213,0.0054,0.0057,0.0059,0.0119,0.0354,0.0,0.0,-0.0409,-0.0621,-0.0717,-0.0718,-0.1049,-0.131,-0.1372,-0.1456,-0.1526,0.0,0.0,0.0,0.0,0.0,0.0,0.0,0.0,0.7062,0.7054,0.0,0.7544,0.0,0.0,0.0,0.0,0.0,0.7688,0.0,0.0,0.7702,0.7655,0.684,0.7137,0.7277,0.7274,0.7503,0.7662,0.7742,0.6726,0.0,0.0,0.0,0.0,0.0,0.0,0.7791,0.7581,0.7943,0.788,0.7362,0.7288,0.6997,0.6465,0.5953,0.5564,0.5329,0.5329,0.5297,0.5297,0.5329,0.0,0.0,0.0,0.0,0.0,0.0,0.0,0.0,0.0,0.0,0.0,0.0,0.0,0.0,0.0,0.0,0.0,0.0,0.0,0.0,0.4828,0.0,0.0,0.0,0.0,0.0,0.0,0.0,0.0,0.0,0.0,0.5852,0.5496,0.5088,0.4776,0.0,0.0,0.0,0.0,0.3407,0.3406,0.2844,0.2407,0.2537,0.207,0.1488,0.1014,0.0,0.0,0.0941,0.0543,0.0365,0.0589,0.03,-0.0061,0.0245,0.0657,0.0762,-0.0176,-0.0409,-0.058,-0.0792,-0.1084,-0.1321,0.7922,0.0,0.0,0.0,0.0,0.8379,0.819,0.7836,0.7885,0.7671,0.7384,0.7516,0.0,0.0,0.0,0.0,0.0,0.0,0.7777,0.7173,0.7434,0.7281,0.6815,0.7101,0.7142,0.696,0.7677,0.7964,0.7791,0.7565,0.7523,0.7697,0.0,0.0,0.0,0.0,0.9031,0.9302,0.8913,0.8476,0.8026,0.7033,0.6147,0.5445,0.5418,0.5364,0.5312,0.5478,0.5591,0.5588,0.5588,0.0,0.0,0.0,0.0,0.0,0.0,0.0,0.0,0.0,0.0,0.0,0.0,0.0,0.0,0.0,0.0,0.0,0.0,0.0,0.5392,0.4835,0.4563,0.0,0.0,0.0,0.0,0.0,0.0,0.0,0.0,0.0,0.5728,0.5263,0.4852,0.0,0.0,0.4825,0.397,0.4011,0.4007,0.3631,0.2622,0.0,0.0,0.1675,0.1343,0.1211,0.1404,0.1533,0.1534,0.1432,0.1378,0.1421,0.1486,0.1496,0.1325,0.0932,0.0704,0.0645,0.0404,0.0113,-0.0,-0.0339,-0.0679,0.8122,0.8444,0.8348,0.8449,0.8647,0.8651,0.8462,0.8135,0.8131,0.7931,0.7725,0.7916,0.7953,0.7868,0.8104,0.0,0.0,0.0,0.8182,0.756,0.7803,0.7654,0.7277,0.7381,0.7372,0.728,0.8028,0.8225,0.785,0.8401,0.8445,0.815,0.0,0.0,0.9371,0.9227,0.9231,0.9248,0.8675,0.8151,0.7695,0.6767,0.5959,0.5414,0.556,0.5662,0.5665,0.5795,0.5888,0.5892,0.5885,0.5838,0.0,0.0,0.0,0.0,0.0,0.0,0.0,0.0,0.0,0.0,0.0,0.3955,0.4096,0.0,0.0,0.0,0.4349,0.4857,0.4932,0.4608,0.0,0.0,0.0,0.0,0.0,0.0,0.0,0.5176,0.4926,0.4946,0.5429,0.4901,0.4629,0.495,0.5111,0.4891,0.4076,0.0,0.3895,0.3346,0.2625,0.2069,0.1846,0.1707,0.1643,0.1509,0.1624,0.1734,0.1679,0.1734,0.1847,0.1903,0.2071,0.2183,0.2128,0.165,0.1324,0.144,0.1191,0.0951,0.0782,0.0392,0.0112,0.8378,0.8402,0.8164,0.8279,0.8564,0.8617,0.838,0.804,0.8044,0.804,0.8094,0.8594,0.8684,0.86,0.8665,0.0,0.8427,0.8763,0.8561,0.7949,0.8471,0.8418,0.7904,0.7901,0.7904,0.7901,0.8573,0.857,0.8103,0.9141,0.9259,0.8477,0.8686,0.905,0.9469,0.9242,0.8819,0.8228,0.7924,0.7483,0.6905,0.6526,0.6278,0.6057,0.6159,0.6216,0.6193,0.6213,0.623,0.623,0.623,0.6102,0.5802,0.0,0.0,0.0,0.0,0.0,0.0,0.0,0.0,0.0,0.0,0.0,0.0,0.0,0.0,0.0,0.3578,0.0,0.3811,0.4273,0.0,0.0,0.0,0.5045,0.5624,0.5328,0.536,0.5984,0.0,0.0,0.5109,0.4627,0.452,0.5109,0.5275,0.4948,0.3901,0.379,0.3515,0.3123,0.2847,0.2569,0.218,0.2177,0.2288,0.2124,0.1956,0.1957,0.179,0.1846,0.2014,0.2128,0.2184,0.2353,0.2635,0.2638,0.2522,0.1962,0.1848,0.179,0.151,0.1174,0.095,0.8477,0.8577,0.8485,0.8511,0.8622,0.8625,0.8583,0.86,0.8596,0.8538,0.8476,0.8629,0.858,0.8472,0.8452,0.8462,0.8371,0.8377,0.8308,0.8112,0.8106,0.8055,0.7904,0.7904,0.7904,0.7955,0.8935,0.9354,0.9253,0.9877,1.0356,1.0525,1.0186,0.9917,0.9823,0.9995,0.9977,0.9853,0.952,0.8728,0.7457,0.7077,0.6771,0.6402,0.6451,0.6421,0.6206,0.6411,0.6529,0.6486,0.6483,0.646,0.6379,0.5959,0.0,0.0,0.0,0.0,0.0,0.0,0.0,0.0,0.0,0.4548,0.4443,0.0,0.4987,0.0,0.342,0.3548,0.4157,0.4464,0.0,0.0,0.49,0.5323,0.4892,0.5095,0.5169,0.4909,0.4771,0.4787,0.5169,0.5115,0.5279,0.5821,0.555,0.5169,0.4891,0.4893,0.4836,0.4558,0.3898,0.3347,0.3181,0.3124,0.3181,0.3462,0.3463,0.3351,0.3019,0.2964,0.2911,0.2633,0.2578,0.2635,0.2692,0.2691,0.2691,0.2522,0.2465,0.2465,0.2353,0.1959,0.1566,0.8319,0.8541,0.8499,0.8497,0.8511,0.8636,0.8745,0.8808,0.8808,0.8748,0.8689,0.8689,0.8639,0.859,0.853,0.8474,0.8474,0.8371,0.8268,0.8268,0.8162,0.8109,0.8103,0.7939,0.7893,0.8052,0.8495,0.8754,0.883,0.9152,0.9465,0.9769,0.9465,0.932,0.9412,0.983,1.0035,1.0035,0.9442,0.8718,0.7785,0.7503,0.7231,0.6972,0.6813,0.6707,0.6589,0.6697,0.6784,0.6784,0.678,0.672,0.6593,0.6283,0.6045,0.0,0.0,0.0,0.0,0.0,0.0,0.0,0.0,0.0,0.0,0.0,0.4823,0.4031,0.3327,0.3251,0.4177,0.4162,0.417,0.4209,0.4814,0.5017,0.4562,0.5007,0.5226,0.5013,0.4901,0.4954,0.5279,0.5332,0.5443,0.5769,0.5496,0.5332,0.5332,0.5332,0.5115,0.4617,0.401,0.3569,0.3512,0.3512,0.3624,0.3909,0.4021,0.3967,0.3914,0.3748,0.3579,0.3357,0.3246,0.3245,0.3132,0.3188,0.3303,0.3302,0.3301,0.3134,0.2747,0.2465,0.2184,0.8082,0.8347,0.8315,0.8323,0.834,0.8587,0.8738,0.8808,0.8808,0.8808,0.8808,0.8808,0.8808,0.8808,0.8689,0.8629,0.8629,0.8474,0.8424,0.8424,0.8421,0.8405,0.8308,0.7976,0.7922,0.8103,0.7812,0.7789,0.8006,0.8059,0.8122,0.8159,0.8112,0.8368,0.8879,0.9302,0.9514,0.9514,0.8738,0.825,0.8107,0.796,0.7812,0.7664,0.7318,0.7101,0.7027,0.7012,0.7018,0.7027,0.7061,0.6944,0.666,0.657,0.6434,0.0,0.572,0.0,0.0,0.0,0.0,0.0,0.0,0.0,0.0,0.4304,0.4524,0.4691,0.3438,0.3039,0.4015,0.3733,0.3784,0.428,0.4462,0.4519,0.4625,0.5007,0.5391,0.5618,0.5502,0.5443,0.5443,0.5389,0.5441,0.5496,0.5609,0.5605,0.5441,0.5279,0.4895,0.3956,0.3955,0.4116,0.3897,0.3898,0.4013,0.4187,0.4244,0.4245,0.4477,0.425,0.4079,0.4079,0.3967,0.391,0.3738,0.3853,0.3965,0.391,0.391,0.3688,0.3136,0.2912,0.2857,0.7936,0.801,0.7977,0.8013,0.8023,0.8076,0.8367,0.8808,0.8808,0.8808,0.8808,0.8808,0.8808,0.8808,0.8752,0.8748,0.8748,0.8633,0.8577,0.858,0.8471,0.8247,0.798,0.7923,0.781,0.7648,0.8019,0.8341,0.8646,0.8984,0.9202,0.9451,0.9354,0.9354,0.9406,0.0,0.0,0.0,0.9057,0.9023,0.9117,0.9112,0.8859,0.8497,0.8012,0.0,0.7018,0.7251,0.7271,0.7047,0.7255,0.0,0.0,0.0,0.0,0.0,0.0,0.0,0.0,0.0,0.0,0.0,0.636,0.5962,0.4961,0.4494,0.4372,0.4672,0.4308,0.3934,0.3563,0.403,0.4157,0.3844,0.4184,0.468,0.5115,0.5224,0.5498,0.6046,0.6046,0.6043,0.5987,0.6043,0.6043,0.6046,0.648,0.6537,0.61,0.5281,0.4952,0.555,0.5653,0.5706,0.5382,0.5389,0.5285,0.5185,0.5075,0.4967,0.4691,0.4636,0.4524,0.4418,0.4192,0.4079,0.4304,0.4136,0.4076,0.4021,0.4021,0.3965,0.3801,0.3744,0.3745,0.7527,0.0,0.77,0.7699,0.0,0.7819,0.8051,0.838,0.853,0.8671,0.8804,0.8808,0.8808,0.8811,0.9057,0.9211,0.9211,0.9148,0.9246,0.9436,0.8944,0.8741,0.8824,0.842,0.8132,0.7943,0.8041,0.8112,0.829,0.8543,0.8795,0.8991,0.8995,0.8995,0.8991,0.884,0.8794,0.8689,0.884,0.8945,0.8988,0.8906,0.879,0.8536,0.0,0.0,0.0,0.0,0.0,0.0,0.0,0.0,0.0,0.0,0.0,0.7208,0.6459,0.6194,0.6663,0.6546,0.6519,0.6786,0.6872,0.6534,0.5631,0.4717,0.44,0.4914,0.4426,0.4045,0.3985,0.4033,0.4073,0.4018,0.4294,0.4734,0.5169,0.5332,0.555,0.6098,0.6209,0.6098,0.5771,0.6317,0.6482,0.6263,0.6704,0.7031,0.6701,0.6154,0.5989,0.6204,0.6372,0.631,0.5937,0.5939,0.5946,0.546,0.5301,0.5242,0.5022,0.5022,0.4965,0.4916,0.4745,0.4746,0.486,0.4746,0.4632,0.4631,0.4632,0.4794,0.4954,0.4513,0.4021,0.7164,0.7437,0.7432,0.7439,0.7504,0.7662,0.7802,0.7869,0.0,0.0,0.0,0.8728,0.8758,0.8854,0.9256,0.9458,0.9462,0.9558,0.9788,1.0113,0.9455,0.9272,0.9461,0.8821,0.8401,0.8137,0.7901,0.7761,0.7796,0.7896,0.812,0.8279,0.8346,0.8424,0.8427,0.8524,0.8577,0.848,0.8679,0.8778,0.8774,0.8666,0.8571,0.857,0.8185,0.7986,0.7882,0.7983,0.7869,0.7673,0.7842,0.7923,0.7836,0.7799,0.7834,0.7882,0.7389,0.7167,0.7367,0.6964,0.6927,0.7434,0.728,0.6881,0.6152,0.5121,0.4812,0.5376,0.4617,0.4288,0.4736,0.4346,0.4233,0.4736,0.468,0.4899,0.5498,0.5496,0.5771,0.6372,0.6537,0.6315,0.5989,0.6696,0.7028,0.6591,0.692,0.7252,0.7192,0.7085,0.6807,0.6534,0.6802,0.6748,0.6206,0.6369,0.6157,0.546,0.5462,0.5572,0.5462,0.546,0.546,0.546,0.5405,0.5299,0.5301,0.535,0.5407,0.5301,0.5517,0.5732,0.5993,0.5334,0.468,0.7118,0.7269,0.7257,0.7317,0.7398,0.7322,0.7443,0.7649,0.7866,0.8156,0.8437,0.8484,0.8574,0.8808,0.8854,0.8906,0.8962,0.9364,0.9468,0.0,0.9543,0.9219,0.8375,0.8227,0.7838,0.7237,0.756,0.7817,0.8049,0.8217,0.8445,0.8651,0.8505,0.8471,0.8577,0.8573,0.8633,0.8748,0.9208,0.9462,0.9458,0.9415,0.9311,0.9058,0.8576,0.8186,0.7898,0.818,0.8173,0.7889,0.815,0.8399,0.8598,0.7793,0.7494,0.7828,0.7092,0.7088,0.8134,0.7797,0.779,0.8326,0.7911,0.7236,0.6421,0.6105,0.5964,0.6043,0.5875,0.5878,0.5932,0.5825,0.5771,0.5882,0.5498,0.5609,0.6647,0.6374,0.648,0.7461,0.7678,0.7571,0.741,0.7625,0.7518,0.7192,0.7357,0.7741,0.7684,0.7413,0.7136,0.7238,0.772,0.7667,0.7017,0.7281,0.6964,0.5517,0.6164,0.6544,0.6159,0.6105,0.6105,0.605,0.5729,0.5407,0.5409,0.5727,0.5834,0.562,0.6112,0.6647,0.6426,0.6369,0.6588,0.7652,0.7585,0.7573,0.7488,0.737,0.7335,0.7366,0.7501,0.7602,0.7886,0.8297,0.8317,0.8439,0.8653,0.8959,0.9061,0.9014,0.9257,0.9475,0.9632,0.9399,0.9281,0.9271,0.9072,0.8679,0.8152,0.8308,0.8273,0.8033,0.815,0.8313,0.8413,0.8388,0.841,0.8461,0.8512,0.8516,0.8571,0.8978,0.9159,0.9162,0.9162,0.9093,0.9012,0.8758,0.855,0.8414,0.8537,0.8535,0.8406,0.8514,0.8704,0.8764,0.834,0.8148,0.8353,0.798,0.799,0.8546,0.8397,0.8394,0.8679,0.8415,0.8034,0.7602,0.6853,0.6583,0.6848,0.6635,0.6367,0.631,0.6308,0.6256,0.6209,0.5934,0.6154,0.6864,0.6864,0.7025,0.7738,0.7904,0.7791,0.7521,0.7735,0.7687,0.7249,0.7574,0.7901,0.7904,0.7684,0.7571,0.7783,0.8103,0.8049,0.7506,0.7605,0.7391,0.6431,0.6704,0.6974,0.6699,0.6699,0.6699,0.6699,0.6433,0.6327,0.6273,0.6487,0.6539,0.6487,0.6652,0.6974,0.7125,0.761,0.7783,0.819,0.8026,0.8035,0.7889,0.7659,0.7592,0.7603,0.7645,0.7528,0.7769,0.824,0.8236,0.8313,0.849,0.8875,0.907,0.9077,0.9223,0.9557,0.9943,0.9312,0.9316,0.9767,0.9524,0.9136,0.8769,0.889,0.8708,0.821,0.8315,0.8328,0.8246,0.826,0.8273,0.827,0.8277,0.8303,0.843,0.8597,0.8744,0.8804,0.8808,0.8808,0.8808,0.8804,0.8808,0.8808,0.8808,0.8766,0.8792,0.8802,0.8766,0.8786,0.8802,0.8808,0.8808,0.8808,0.8808,0.8808,0.8808,0.8808,0.8808,0.8692,0.8629,0.8573,0.7717,0.723,0.7605,0.7286,0.6966,0.6907,0.6851,0.6743,0.6588,0.648,0.6645,0.7139,0.7192,0.73,0.7794,0.7904,0.7735,0.7467,0.7628,0.7738,0.747,0.7631,0.7901,0.7955,0.7958,0.8062,0.8215,0.8368,0.8206,0.7833,0.799,0.7774,0.7244,0.7354,0.7458,0.7348,0.7295,0.7297,0.7238,0.7136,0.7031,0.7082,0.7184,0.7187,0.7082,0.73,0.7676,0.7987,0.8368,0.8537,0.8369,0.8432,0.8429,0.8418,0.8382,0.8178,0.8214,0.8324,0.7892,0.7863,0.8219,0.7967,0.8056,0.8308,0.8384,0.8565,0.8808,0.9299,0.9526,0.9476,0.9499,0.9178,0.8643,0.8492,0.8234,0.8017,0.8639,0.896,0.8865,0.9076,0.8983,0.8537,0.8157,0.7966,0.7969,0.7969,0.8103,0.8363,0.8404,0.854,0.8791,0.8808,0.8808,0.8808,0.8808,0.8808,0.8808,0.8808,0.8794,0.8774,0.8788,0.8794,0.8771,0.8798,0.8808,0.8808,0.8808,0.8808,0.8808,0.8808,0.8808,0.8808,0.8752,0.8752,0.8752,0.8643,0.848,0.8368,0.8262,0.8103,0.8052,0.7999,0.7836,0.7628,0.7249,0.7246,0.7628,0.7413,0.7303,0.7848,0.7904,0.7848,0.7794,0.7848,0.7848,0.7788,0.7845,0.8008,0.8112,0.8171,0.8265,0.8421,0.8474,0.8312,0.804,0.8371,0.8212,0.7458,0.7996,0.8209,0.7987,0.7824,0.7815,0.7759,0.7478,0.7261,0.7295,0.7447,0.7623,0.7415,0.7811,0.8577,0.8692,0.8722,0.8656,0.9001,0.893,0.8935,0.8802,0.862,0.8542,0.8557,0.8637,0.8757,0.8849,0.9015,0.9183,0.9134,0.8892,0.8591,0.8648,0.8947,0.9171,0.9201,0.9048,0.9271,0.9357,0.9301,0.9003,0.8873,0.8914,0.9092,0.9056,0.8999,0.9013,0.8785,0.8325,0.8112,0.7888,0.7705,0.7652,0.7806,0.8106,0.8386,0.8663,0.8869,0.8857,0.8808,0.8808,0.8808,0.8808,0.8808,0.886,0.8906,0.884,0.8952,0.8952,0.8791,0.885,0.891,0.8804,0.8808,0.8808,0.8808,0.8808,0.8808,0.8808,0.8808,0.8808,0.8808,0.8808,0.8752,0.8643,0.8639,0.8537,0.8325,0.8325,0.8221,0.7949,0.7684,0.7628,0.7848,0.7741,0.7684,0.7901,0.7904,0.7904,0.7904,0.7904,0.7895,0.7943,0.8002,0.8109,0.8209,0.8262,0.8427,0.8577,0.858,0.8527,0.8421,0.8586,0.8533,0.8318,0.848,0.8643,0.8521,0.8421,0.838,0.821,0.7975,0.7747,0.7619,0.7685,0.7829,0.7725,0.7897,0.851,0.828,0.8434,0.8578,0.9496,0.9341,0.9322,0.9157,0.8944,0.8849,0.8868,0.8952,0.9182,0.9415,0.9719,0.9998,1.0106,0.9906,0.9347,0.9189,0.9367,0.9363,0.927,0.9073,0.9244,0.9483,0.9769,0.9483,0.9403,0.9571,0.9341,0.9052,0.8839,0.8726,0.8438,0.8048,0.8095,0.7921,0.7436,0.7473,0.7626,0.7802,0.819,0.8634,0.9047,0.9068,0.9061,0.8903,0.8857,0.886,0.886,0.8906,0.8959,0.8903,0.9057,0.9113,0.9012,0.9057,0.9008,0.886,0.8857,0.8854,0.8808,0.8808,0.8857,0.9012,0.891,0.8854,0.8962,0.8913,0.8808,0.8804,0.8808,0.8695,0.8477,0.8421,0.8265,0.8005,0.7955,0.7904,0.7904,0.7904,0.7904,0.7904,0.7904,0.7901,0.7955,0.8008,0.7999,0.7928,0.8096,0.8493,0.8646,0.8692,0.8577,0.8991,0.8886,0.8692,0.8752,0.8752,0.8808,0.8857,0.8906,0.8974,0.8822,0.8788,0.8783,0.8506,0.8471,0.8511,0.8376,0.8317,0.8149,0.815,0.8276,0.8382,0.8146,0.8199,0.8272,0.9558,0.961,0.9599,0.9618,0.9544,0.932,0.9357,0.9617,0.9108,0.9325,1.0163,0.9997,1.0486,1.1542,1.0671,1.0193,1.0052,1.004,0.9976,0.9797,0.9527,0.9324,0.9324,0.9324,0.9319,0.9403,0.9297,0.8971,0.8439,0.8385,0.8122,0.7753,0.8116,0.7897,0.7279,0.7535,0.766,0.7657,0.7896,0.8418,0.9248,0.9602,0.954,0.9228,0.911,0.9008,0.8962,0.891,0.892,0.9169,0.9131,0.9236,0.9544,0.9344,0.9159,0.9008,0.9012,0.8959,0.8804,0.8804,0.9005,0.9357,0.9166,0.9008,0.9417,0.9057,0.8857,0.8808,0.8864,0.8808,0.8732,0.8524,0.8321,0.8171,0.8008,0.7904,0.7904,0.7898,0.7904,0.7901,0.7955,0.8005,0.8168,0.8224,0.8093,0.8072,0.8187,0.8804,0.9691,0.9295,0.9249,0.9703,0.951,0.8801,0.8804,0.8808,0.8808,0.8837,0.8954,0.9199,0.8964,0.8749,0.8724,0.8714,0.8547,0.8638,0.8989,0.8994,0.8791,0.8656,0.855,0.8432,0.8187,0.801,0.8129,1.0186,1.0146,1.0201,1.0293,1.0478,1.0412,1.0576,1.0881,1.1044,1.1147,1.1359,1.1711,1.2082,1.2239,1.2144,1.1546,1.0641,1.0616,1.0309,0.9823,0.9878,0.9957,0.9917,0.9667,0.9632,0.976,0.9518,0.9208,0.889,0.8809,0.8439,0.7987,0.8156,0.807,0.7735,0.8021,0.8143,0.8063,0.8256,0.8689,0.9192,0.9686,0.9956,1.0051,0.9807,0.9462,0.9113,0.9155,0.9319,0.9632,0.9781,1.011,1.051,1.0051,0.951,0.9155,0.9061,0.8962,0.8962,0.9159,0.9361,0.9566,0.9766,0.9717,0.9524,0.9106,0.8956,0.9215,0.9313,0.9365,0.951,0.8988,0.8374,0.8221,0.8008,0.7904,0.7955,0.8005,0.8115,0.8118,0.8165,0.8268,0.8318,0.8321,0.8296,0.8295,0.8692,0.9417,1.0058,0.998,0.9902,1.021,1.0119,0.9817,0.9817,0.9162,0.8794,0.8793,0.8833,0.8786,0.862,0.8487,0.8452,0.8314,0.8272,0.8468,0.8737,0.8866,0.8727,0.8684,0.8603,0.8587,0.8306,0.8212,0.8378,1.0673,1.0714,1.0808,1.1002,1.1196,1.1191,1.1329,1.162,1.1967,1.2129,1.2246,1.2769,1.2934,1.2852,1.3109,1.258,1.1519,1.1368,1.0849,1.0104,1.0499,1.0734,1.0693,1.039,1.0274,1.0275,0.9767,0.9324,0.9011,0.8895,0.8488,0.7957,0.832,0.8324,0.8073,0.8406,0.8575,0.8477,0.8637,0.8945,0.9416,0.9942,1.0364,1.0544,1.036,1.0011,0.9551,0.9417,0.9566,1.0024,1.0233,1.051,1.084,1.0557,1.0075,0.9517,0.9368,0.9309,0.9409,0.9562,0.9769,1.0083,1.0252,1.0212,0.988,0.9543,0.9438,0.9587,0.9814,1.0026,1.0131,0.9547,0.8886,0.8629,0.8265,0.8055,0.8002,0.8162,0.8268,0.8268,0.8527,0.8633,0.8738,0.8886,0.8832,0.8589,0.9231,0.9972,1.0722,1.0592,1.0576,1.083,1.0568,1.0474,1.0427,0.9976,0.9562,0.9507,0.9332,0.9022,0.8598,0.8413,0.8208,0.8011,0.8065,0.8273,0.8435,0.8586,0.8606,0.8623,0.8675,0.874,0.8584,0.8499,0.8602,1.099,1.1103,1.1425,1.162,1.172,1.172,1.1661,1.181,1.181,1.2262,1.2628,1.2716,1.3021,1.3271,1.3329,1.3066,1.2473,1.223,1.1699,1.0991,1.1327,1.1503,1.1493,1.1421,1.1154,1.0799,0.9955,0.9221,0.8683,0.8647,0.8402,0.8122,0.8606,0.861,0.7919,0.8651,0.8858,0.8696,0.8841,0.9303,1.002,1.036,1.0611,1.0736,1.0649,1.0495,1.0222,0.9599,0.9684,1.0371,1.0395,1.0277,1.0659,1.0913,1.0808,1.0174,0.9917,1.0016,1.0273,0.9972,1.0289,1.0871,1.0775,1.0522,1.0454,1.028,1.0093,0.9936,1.0178,1.0474,1.0478,1.0324,0.9913,0.9454,0.8886,0.8517,0.8352,0.8362,0.8421,0.8577,0.8942,0.9263,0.9462,0.971,0.9699,0.9365,0.9819,1.0706,1.1543,1.1184,1.1044,1.1506,1.1347,1.099,1.0939,1.0838,1.0614,1.0347,1.0173,0.9903,0.9171,0.8798,0.8479,0.8326,0.8488,0.8696,0.9174,0.9293,0.9297,0.9234,0.9157,0.9052,0.9024,0.891,0.8713,1.1342,1.1619,1.176,1.2236,1.2817,1.2866,1.3102,1.3532,1.3527,1.3389,1.3266,1.342,1.3377,1.3084,1.3276,1.3128,1.266,1.2747,1.2458,1.1779,1.174,1.1771,1.1762,1.166,1.1338,1.0911,1.0582,0.9953,0.918,0.9029,0.8647,0.8201,0.8741,0.8854,0.8402,0.9217,0.9496,0.9132,0.9223,0.9488,0.9803,1.0164,1.0549,1.0814,1.0766,1.0793,1.0985,1.0366,1.0498,1.1377,1.1464,1.1506,1.1565,1.1723,1.151,1.0947,1.0724,1.0622,1.069,1.085,1.0956,1.1285,1.1455,1.1353,1.1015,1.0659,1.0565,1.0651,1.0918,1.1124,1.1414,1.1175,1.0706,1.0012,0.9703,0.9384,0.9211,0.9732,0.9884,0.9566,0.9788,1.0012,1.0009,1.0265,1.0344,1.03,1.0704,1.1335,1.1809,1.1746,1.161,1.1972,1.1665,1.1425,1.1368,1.1286,1.1109,1.0702,1.0441,1.0237,0.9631,0.9144,0.8832,0.8766,0.8914,0.9182,0.9695,0.9867,0.9748,0.9788,0.9648,0.9603,0.9541,0.9408,0.9208,1.1904,1.23,1.2452,1.2982,1.3752,1.3747,1.3988,1.4378,1.4425,1.414,1.3894,1.4051,1.3821,1.3387,1.3525,1.3371,1.3047,1.325,1.3072,1.2609,1.2373,1.2283,1.2203,1.1955,1.1685,1.1411,1.1198,1.077,1.01,0.9874,0.9362,0.8756,0.9184,0.9222,0.8777,0.9492,0.9813,0.9642,0.9686,0.9751,0.9916,1.0163,1.0421,1.0651,1.0568,1.0772,1.1157,1.0768,1.0976,1.1801,1.2229,1.2213,1.1932,1.2073,1.2071,1.156,1.1342,1.1288,1.1414,1.1473,1.1573,1.1687,1.1926,1.1839,1.1403,1.1019,1.1196,1.1226,1.1482,1.1741,1.1927,1.1837,1.1372,1.099,1.0419,1.0045,0.9923,1.0703,1.0941,1.0502,1.0478,1.0533,1.0533,1.0732,1.0939,1.1259,1.1368,1.1464,1.1823,1.1927,1.1972,1.1972,1.1923,1.1792,1.1807,1.1675,1.1576,1.1046,1.0483,1.0228,0.9813,0.945,0.9118,0.9243,0.9372,0.9536,0.9925,0.995,0.9946,0.999,1.0063,0.9906,0.9779,0.9823,0.9739,1.2638,1.3104,1.342,1.38,1.4326,1.4373,1.4425,1.4471,1.4471,1.443,1.4425,1.4373,1.4244,1.4025,1.3968,1.3836,1.3663,1.3637,1.3642,1.3475,1.3233,1.3037,1.2887,1.2518,1.228,1.207,1.1763,1.149,1.1037,1.0739,1.0347,0.9491,0.9666,0.9591,0.9127,0.9651,1.001,1.0044,1.004,1.0123,1.0235,1.0298,1.0317,1.0337,1.0259,1.0438,1.097,1.1034,1.1269,1.2025,1.2493,1.2325,1.1822,1.2243,1.2431,1.2022,1.1764,1.1963,1.2224,1.1927,1.1782,1.2135,1.2109,1.1889,1.1545,1.1685,1.1744,1.1482,1.1773,1.2081,1.2076,1.2026,1.1972,1.1918,1.1141,1.0551,1.0218,1.1311,1.1489,1.101,1.0977,1.1065,1.096,1.1318,1.1578,1.1632,1.1673,1.1665,1.1601,1.171,1.1755,1.1765,1.1782,1.1684,1.1526,1.1467,1.1297,1.0862,1.0391,1.0225,0.9985,0.9636,0.9461,0.959,0.9793,0.993,1.0087,1.0142,1.0176,1.0171,1.0176,1.0063,1.0103,1.0176,1.0288,1.3395,1.4006,1.3402,1.3742,1.4558,1.461,1.4743,1.492,1.492,1.4794,1.4656,1.4605,1.4499,1.4304,1.4307,1.426,1.4183,1.4161,1.4057,1.3873,1.3726,1.3359,1.3106,1.3076,1.2817,1.23,1.208,1.1635,1.1011,1.0908,1.0321,0.9411,0.9866,0.9779,0.9364,0.9765,1.0049,1.0088,1.0123,1.0162,1.0283,1.0322,1.0322,1.0293,1.0282,1.0644,1.1376,1.1682,1.1758,1.1719,1.2149,1.2321,1.2014,1.2459,1.2701,1.2627,1.2524,1.2471,1.2431,1.2314,1.222,1.213,1.2081,1.2049,1.1932,1.2004,1.2054,1.1873,1.2026,1.2126,1.2076,1.2076,1.2081,1.1981,1.166,1.1493,1.1493,1.1791,1.1922,1.1569,1.156,1.1469,1.1418,1.1473,1.1678,1.1632,1.1623,1.1669,1.166,1.163,1.1697,1.1468,1.142,1.1263,1.1177,1.1077,1.0919,1.057,1.0302,1.0192,0.9954,0.9712,0.966,0.9739,1.0015,1.0186,1.0371,1.0472,1.0472,1.0433,1.0587,1.0664,1.0626,1.0664,1.0812,1.4103,1.467,1.392,1.4118,1.4937,1.5028,1.5108,1.5238,1.5244,1.5159,1.4983,1.4937,1.4811,1.4567,1.454,1.4471,1.4395,1.4384,1.4249,1.4057,1.3929,1.357,1.3218,1.3293,1.3076,1.2601,1.2319,1.1913,1.1451,1.1213,1.0615,0.9985,1.0212,1.0082,0.9478,0.9922,1.0196,1.0166,1.0201,1.0239,1.0278,1.0322,1.0322,1.0317,1.0327,1.0611,1.1047,1.1274,1.1343,1.1372,1.1689,1.1948,1.1982,1.2368,1.2676,1.2788,1.2827,1.2725,1.2496,1.2289,1.2164,1.2146,1.2006,1.2071,1.2307,1.2407,1.2447,1.2696,1.2505,1.2403,1.2353,1.2215,1.2081,1.2026,1.1959,1.2008,1.2049,1.1995,1.1873,1.1764,1.1719,1.1678,1.1418,1.1473,1.1528,1.1528,1.1578,1.1628,1.1665,1.1688,1.1636,1.1419,1.1333,1.1334,1.1199,1.1104,1.0998,1.0652,1.046,1.0295,1.008,0.9902,0.9976,1.0088,1.0278,1.0472,1.0654,1.0802,1.084,1.0916,1.1148,1.1148,1.1035,1.1072,1.1217,1.4921,1.5317,1.4848,1.4953,1.5422,1.5517,1.5512,1.5468,1.5474,1.539,1.5261,1.5261,1.5074,1.4759,1.4748,1.4628,1.4486,1.4547,1.4337,1.4211,1.4099,1.3834,1.3418,1.3332,1.3189,1.2996,1.2508,1.2275,1.2046,1.1763,1.118,1.0573,1.069,1.0407,0.9914,1.0118,1.0283,1.0283,1.0283,1.0283,1.0317,1.0322,1.0322,1.0332,1.0405,1.04,1.0454,1.0464,1.0596,1.083,1.1302,1.1508,1.1587,1.1914,1.2292,1.2618,1.2696,1.272,1.2511,1.2144,1.1926,1.2098,1.1807,1.1888,1.2488,1.2749,1.3025,1.3372,1.3107,1.2919,1.2876,1.255,1.2407,1.2304,1.2066,1.1882,1.1995,1.1841,1.1728,1.1755,1.1682,1.1473,1.1418,1.1372,1.1372,1.1628,1.1651,1.1787,1.1839,1.1848,1.164,1.1332,1.1362,1.1507,1.1309,1.1161,1.1064,1.088,1.0782,1.0639,1.0342,1.0205,1.0327,1.0482,1.0684,1.086,1.1024,1.1132,1.1175,1.1287,1.1404,1.133,1.125,1.1399,1.1553,1.6746,1.7014,1.6226,1.5958,1.6098,1.6097,1.5822,1.5351,1.5463,1.5385,1.5204,1.5267,1.521,1.5017,1.5023,1.5011,1.4897,1.4875,1.4789,1.4534,1.4356,1.4163,1.3847,1.3751,1.3466,1.3178,1.2996,1.2653,1.2261,1.2031,1.1635,1.0932,1.0816,1.0658,1.0248,1.022,1.0322,1.0322,1.0322,1.0322,1.0322,1.0322,1.0322,1.0342,1.0601,1.0561,1.0415,1.0596,1.0649,1.0586,1.0801,1.1055,1.1167,1.1518,1.1944,1.2302,1.2714,1.2844,1.2647,1.2432,1.2195,1.1889,1.1958,1.2139,1.2314,1.3094,1.3437,1.3615,1.3515,1.3415,1.3324,1.3319,1.3084,1.2871,1.2459,1.2111,1.2157,1.1944,1.199,1.2264,1.2022,1.176,1.2035,1.1665,1.1669,1.1723,1.1832,1.1976,1.1978,1.1995,1.1636,1.1276,1.1439,1.1521,1.13,1.1266,1.1316,1.1254,1.1207,1.1137,1.0802,1.0639,1.0791,1.0899,1.1059,1.1223,1.1404,1.1399,1.1479,1.1553,1.1627,1.159,1.1621,1.1732,1.1774,1.733,1.7686,1.7008,1.6648,1.6491,1.645,1.6106,1.5647,1.5608,1.5564,1.543,1.5447,1.5414,1.5302,1.5267,1.5249,1.5137,1.4977,1.484,1.4662,1.4477,1.4337,1.4172,1.3988,1.3703,1.3281,1.2969,1.2656,1.2365,1.2102,1.1743,1.123,1.1035,1.0825,1.0552,1.0445,1.0327,1.0322,1.0322,1.0322,1.0322,1.0322,1.0322,1.0371,1.0646,1.0715,1.0371,1.0656,1.0661,1.0469,1.0498,1.0723,1.0935,1.1286,1.1714,1.2108,1.2775,1.279,1.2478,1.2408,1.2277,1.1688,1.1811,1.2288,1.2781,1.3568,1.4045,1.4176,1.4082,1.3842,1.3462,1.3286,1.3243,1.3195,1.2972,1.2745,1.2594,1.2384,1.2328,1.2641,1.2382,1.2264,1.221,1.2039,1.2049,1.2187,1.1876,1.1992,1.1984,1.1904,1.1537,1.1334,1.1461,1.1478,1.1291,1.1351,1.1635,1.1649,1.168,1.1621,1.1505,1.1372,1.1239,1.1324,1.141,1.1628,1.178,1.1785,1.1743,1.1816,1.1884,1.192,1.192,1.192,1.1957,1.7629,1.8067,1.7671,1.7243,1.688,1.6803,1.6414,1.5834,1.5836,1.5742,1.5665,1.5659,1.5611,1.5512,1.5459,1.5408,1.5239,1.4994,1.4794,1.4789,1.4656,1.4512,1.4395,1.4235,1.3915,1.3469,1.3045,1.274,1.2533,1.2183,1.2114,1.1762,1.1419,1.1241,1.1008,1.0739,1.0567,1.0513,1.0449,1.0361,1.0337,1.0322,1.0322,1.0515,1.069,1.0748,1.0587,1.07,1.0746,1.0428,1.039,1.0632,1.0935,1.1196,1.1608,1.2003,1.2738,1.2785,1.2328,1.2282,1.2262,1.1671,1.1651,1.22,1.3226,1.403,1.4584,1.4737,1.4645,1.4176,1.35,1.3425,1.3301,1.3243,1.3453,1.337,1.317,1.2943,1.2656,1.291,1.2686,1.2569,1.256,1.2468,1.2536,1.2522,1.2223,1.2,1.192,1.1877,1.1592,1.1362,1.15,1.1616,1.148,1.1442,1.1732,1.1884,1.1968,1.1962,1.1957,1.183,1.163,1.163,1.1732,1.1926,1.2004,1.1962,1.1999,1.2071,1.2071,1.2029,1.2035,1.2071,1.2071,1.8673,1.8649,1.8835,1.8351,1.7509,1.7526,1.69,1.5927,1.5957,1.578,1.5614,1.5665,1.5671,1.5582,1.5519,1.5435,1.5318,1.5119,1.5011,1.5017,1.4932,1.488,1.4656,1.4569,1.4285,1.3899,1.3486,1.3199,1.3057,1.2969,1.2664,1.2448,1.2278,1.2043,1.1726,1.1519,1.1236,1.0948,1.0833,1.069,1.0528,1.0414,1.0544,1.0764,1.0954,1.0921,1.0845,1.0845,1.0845,1.0812,1.0802,1.1039,1.128,1.1225,1.1451,1.1983,1.2582,1.2724,1.2377,1.2462,1.2208,1.1925,1.1933,1.2309,1.3203,1.4132,1.4688,1.4858,1.4778,1.4485,1.4222,1.3999,1.4082,1.4023,1.3568,1.344,1.3488,1.2906,1.2494,1.2931,1.2854,1.2711,1.2678,1.253,1.242,1.236,1.2193,1.1907,1.1726,1.1835,1.1858,1.1625,1.1507,1.1617,1.1695,1.1695,1.1842,1.1957,1.2035,1.2035,1.2029,1.2071,1.1993,1.1909,1.1909,1.1993,1.2071,1.2071,1.2071,1.2071,1.2071,1.2071,1.2071,1.2071,1.2071,1.898,1.9224,1.9293,1.8755,1.7981,1.7906,1.7223,1.6218,1.6175,1.6094,1.5925,1.5931,1.5943,1.5899,1.5881,1.5742,1.557,1.5385,1.5289,1.5249,1.5216,1.5119,1.4886,1.48,1.4616,1.4332,1.4041,1.3652,1.3357,1.3294,1.3187,1.2911,1.2751,1.2458,1.2242,1.1991,1.1916,1.1652,1.148,1.1221,1.0973,1.0806,1.085,1.1142,1.1404,1.141,1.126,1.1442,1.141,1.126,1.1217,1.1442,1.1627,1.1686,1.1657,1.2083,1.2613,1.2749,1.2575,1.2746,1.2853,1.1938,1.2072,1.2431,1.3001,1.3714,1.4448,1.4622,1.4513,1.4474,1.4698,1.4387,1.4264,1.4154,1.355,1.3306,1.3325,1.2471,1.2438,1.2698,1.2548,1.2458,1.2589,1.2467,1.2262,1.2154,1.2071,1.182,1.1515,1.1578,1.1719,1.1589,1.1415,1.1595,1.1706,1.1737,1.1847,1.1957,1.2066,1.2066,1.2071,1.2071,1.2071,1.2029,1.2071,1.2071,1.2071,1.2071,1.2071,1.2108,1.2108,1.2144,1.2108,1.2071,1.2138,1.9141,1.9618,1.955,1.9052,1.8292,1.8191,1.7453,1.6579,1.6392,1.6318,1.6194,1.6194,1.6206,1.6175,1.6119,1.5975,1.5798,1.5564,1.5424,1.534,1.5351,1.5249,1.5114,1.4926,1.4748,1.461,1.4477,1.4186,1.3747,1.3563,1.3462,1.3302,1.297,1.2797,1.2726,1.2674,1.2621,1.2452,1.2254,1.1943,1.1601,1.1316,1.1217,1.1595,1.1932,1.1926,1.1669,1.1859,1.1853,1.1669,1.1632,1.1774,1.2108,1.215,1.215,1.2249,1.2771,1.264,1.2598,1.2865,1.2892,1.1999,1.2172,1.2523,1.285,1.338,1.3828,1.4041,1.3918,1.3958,1.4227,1.408,1.391,1.3855,1.3309,1.2802,1.2884,1.2472,1.188,1.196,1.2048,1.2225,1.2397,1.2208,1.1965,1.1828,1.1696,1.15,1.1227,1.1186,1.1286,1.1286,1.1319,1.1538,1.1643,1.1643,1.1748,1.1884,1.1957,1.1993,1.2029,1.2071,1.2071,1.2071,1.2071,1.2071,1.2071,1.2071,1.2071,1.2108,1.2144,1.2216,1.2252,1.2354,1.2425,1.9689,1.9772,1.9888,1.9351,1.8456,1.8493,1.7752,1.6597,1.6515,1.6355,1.6281,1.6237,1.6231,1.6182,1.5975,1.5887,1.5742,1.5647,1.5507,1.5468,1.5474,1.5385,1.5306,1.5255,1.4977,1.4794,1.4708,1.4518,1.4228,1.3999,1.3863,1.3721,1.3496,1.3423,1.3231,1.349,1.3697,1.3307,1.3083,1.2551,1.1821,1.1549,1.1706,1.1962,1.2113,1.2144,1.2035,1.215,1.2108,1.2041,1.1915,1.206,1.2365,1.2407,1.2377,1.2383,1.246,1.243,1.2293,1.2492,1.2617,1.2234,1.2508,1.285,1.2942,1.3094,1.3356,1.332,1.3192,1.3343,1.364,1.3246,1.3225,1.3253,1.3138,1.2694,1.2552,1.2491,1.1909,1.1793,1.2012,1.213,1.2256,1.1938,1.1644,1.1494,1.1344,1.1168,1.1043,1.1047,1.1109,1.1212,1.1282,1.1463,1.1569,1.1569,1.1754,1.1889,1.192,1.1951,1.1976,1.2012,1.2029,1.2035,1.2066,1.2102,1.2102,1.2102,1.2108,1.218,1.2324,1.2395,1.2473,1.2573,1.2673,2.0475,2.0016,2.0105,1.9536,1.8618,1.8613,1.7965,1.6944,1.6784,1.6705,1.6626,1.6583,1.6577,1.6436,1.6231,1.6106,1.6013,1.5869,1.5691,1.5614,1.562,1.5531,1.5351,1.5261,1.5119,1.4977,1.4932,1.488,1.4651,1.4244,1.3921,1.381,1.3663,1.3542,1.361,1.4046,1.4236,1.4089,1.384,1.3232,1.2514,1.218,1.2191,1.255,1.2556,1.2508,1.2473,1.2508,1.2473,1.2443,1.2365,1.2431,1.2556,1.2591,1.2562,1.2562,1.2484,1.2449,1.2335,1.2239,1.2197,1.2167,1.2381,1.243,1.2473,1.2552,1.2888,1.3156,1.2975,1.314,1.3581,1.3558,1.3574,1.3521,1.3079,1.296,1.2655,1.2275,1.2034,1.2017,1.1977,1.2064,1.2041,1.1699,1.1488,1.1381,1.1302,1.1175,1.1096,1.1103,1.1179,1.1309,1.1346,1.1389,1.149,1.1527,1.1785,1.1926,1.2029,1.2018,1.1905,1.1905,1.2018,1.2024,1.1982,1.2054,1.2132,1.2246,1.236,1.2431,1.2538,1.265,1.2756,1.275,1.2855,2.1172,2.0571,2.0358,1.9736,1.8911,1.8754,1.8127,1.7258,1.7199,1.7128,1.7044,1.7002,1.6882,1.6712,1.6534,1.6355,1.6231,1.6094,1.5919,1.5792,1.5709,1.557,1.5435,1.5351,1.5255,1.5119,1.5068,1.4971,1.4743,1.4425,1.4051,1.3805,1.3763,1.3752,1.3941,1.4351,1.4682,1.4938,1.4577,1.3994,1.3349,1.2884,1.2866,1.2944,1.2929,1.2838,1.2774,1.2733,1.2697,1.2668,1.2597,1.2591,1.268,1.2556,1.2514,1.2478,1.2407,1.233,1.2252,1.2216,1.2174,1.2138,1.2096,1.2115,1.2244,1.201,1.2127,1.2904,1.2797,1.3197,1.3702,1.3647,1.3564,1.3372,1.3222,1.3186,1.3052,1.2681,1.2424,1.2409,1.2288,1.2064,1.1927,1.1481,1.1276,1.1266,1.1212,1.1179,1.1217,1.1292,1.1426,1.1595,1.1632,1.1638,1.1632,1.1706,1.1889,1.1999,1.2108,1.221,1.2187,1.2151,1.2252,1.2174,1.2054,1.2204,1.2401,1.2508,1.2621,1.2685,1.2785,1.2931,1.3035,1.3035,1.3069,2.1757,2.1618,2.0811,2.0131,1.9469,1.8909,1.8306,1.7652,1.7632,1.755,1.7434,1.7275,1.708,1.6911,1.6699,1.6565,1.6472,1.6132,1.6069,1.5981,1.5836,1.5745,1.5593,1.5474,1.5385,1.5159,1.5114,1.4977,1.4748,1.4651,1.4419,1.4321,1.3952,1.4098,1.4368,1.4766,1.5116,1.5307,1.5136,1.4803,1.421,1.3712,1.3415,1.3288,1.3023,1.2709,1.2709,1.2709,1.2709,1.2709,1.2591,1.2597,1.2609,1.2449,1.2365,1.2324,1.2294,1.2216,1.218,1.2132,1.2138,1.2029,1.1993,1.1993,1.2228,1.2186,1.2358,1.2681,1.2644,1.2728,1.295,1.2918,1.3154,1.3226,1.3213,1.3176,1.3119,1.3041,1.2847,1.2836,1.2656,1.2407,1.2252,1.1926,1.1632,1.1564,1.1601,1.1606,1.1717,1.1785,1.1859,1.1962,1.1999,1.1999,1.1999,1.2071,1.2071,1.2216,1.2324,1.2484,1.2597,1.2567,1.2443,1.2449,1.2365,1.252,1.2697,1.2797,1.2896,1.2959,1.3029,1.3173,1.3282,1.335,1.3425,2.2398,2.2262,2.12,2.0381,1.9805,1.9152,1.8556,1.803,1.7922,1.7848,1.7733,1.757,1.7482,1.7323,1.7067,1.6886,1.681,1.6873,1.6616,1.6391,1.63,1.6134,1.5897,1.5632,1.548,1.5306,1.5204,1.5108,1.4971,1.4789,1.4605,1.4373,1.4114,1.417,1.4531,1.5113,1.5425,1.5429,1.5406,1.5078,1.456,1.427,1.3972,1.3612,1.3527,1.3101,1.284,1.2745,1.2739,1.2697,1.2573,1.2579,1.2556,1.2401,1.233,1.2282,1.2252,1.2216,1.2108,1.2018,1.1878,1.1811,1.1842,1.2066,1.23,1.2258,1.2478,1.2633,1.265,1.272,1.2996,1.3037,1.3144,1.317,1.3176,1.3125,1.3091,1.3037,1.2967,1.2824,1.28,1.2709,1.2615,1.2502,1.221,1.1957,1.1993,1.2029,1.2144,1.2216,1.2252,1.2258,1.2258,1.2252,1.2252,1.2252,1.2216,1.2395,1.2579,1.2662,1.278,1.2662,1.2544,1.2591,1.2639,1.2739,1.2873,1.3069,1.3167,1.3138,1.3242,1.3412,1.352,1.356,1.3594,2.287,2.2535,2.1502,2.074,2.0153,1.9287,1.8723,1.8395,1.8286,1.8168,1.8076,1.7922,1.7828,1.772,1.7475,1.7234,1.7216,1.7293,1.7156,1.6954,1.6812,1.6632,1.6221,1.5837,1.5576,1.5402,1.5261,1.5165,1.5068,1.5023,1.4926,1.4725,1.4482,1.4655,1.4806,1.5517,1.5794,1.5721,1.5669,1.5523,1.5094,1.478,1.4456,1.3947,1.3728,1.3289,1.2943,1.2832,1.2824,1.2754,1.2672,1.2631,1.2525,1.2431,1.2395,1.2365,1.233,1.2258,1.2138,1.2043,1.1909,1.192,1.2113,1.2264,1.2365,1.2431,1.2615,1.2902,1.2855,1.2861,1.3163,1.3135,1.3053,1.3088,1.3047,1.299,1.2955,1.2908,1.2832,1.2745,1.272,1.2662,1.2691,1.2579,1.255,1.2365,1.2431,1.2473,1.252,1.2556,1.255,1.255,1.2556,1.2514,1.2473,1.2573,1.2657,1.2726,1.2873,1.2826,1.2861,1.275,1.2756,1.2838,1.2879,1.2914,1.3012,1.3151,1.322,1.3254,1.3357,1.3486,1.348,1.352,1.352,2.2961,2.2413,2.1687,2.1099,2.0484,1.9341,1.8819,1.8784,1.8745,1.8644,1.8471,1.8319,1.8194,1.8002,1.7801,1.7605,1.751,1.7694,1.7637,1.7352,1.7147,1.7055,1.6602,1.611,1.5614,1.5468,1.5345,1.5216,1.5228,1.4994,1.5074,1.5602,1.563,1.5513,1.5256,1.5988,1.6423,1.6374,1.6281,1.6071,1.5838,1.5392,1.4912,1.4386,1.392,1.344,1.3222,1.3056,1.3012,1.2928,1.2988,1.2844,1.2457,1.2407,1.236,1.2365,1.2222,1.215,1.2144,1.2241,1.2289,1.2252,1.2335,1.2556,1.272,1.275,1.275,1.3053,1.3088,1.3053,1.3141,1.3107,1.3019,1.2972,1.2937,1.2902,1.2867,1.2762,1.265,1.2609,1.2508,1.2449,1.255,1.2627,1.2739,1.2774,1.2867,1.2873,1.285,1.2809,1.2762,1.2726,1.2733,1.2733,1.2739,1.2981,1.3099,1.316,1.3144,1.3095,1.3033,1.2937,1.2978,1.3053,1.3019,1.2978,1.3053,1.3198,1.3232,1.3267,1.3357,1.3452,1.3486,1.3452,1.3419,2.3063,2.23,2.1379,2.0859,2.0524,1.9631,1.9183,1.9191,1.9064,1.8905,1.8721,1.8623,1.856,1.8418,1.8208,1.7975,1.7821,1.7932,1.7913,1.7284,1.7213,1.6903,1.6546,1.6171,1.5691,1.5513,1.539,1.5623,1.6078,1.5389,1.5812,1.645,1.6794,1.6616,1.6326,1.644,1.6355,1.6132,1.6044,1.5951,1.5907,1.5695,1.5296,1.4765,1.4211,1.3851,1.3623,1.3471,1.3263,1.3243,1.3293,1.2891,1.2471,1.2348,1.2252,1.2294,1.2222,1.2437,1.2556,1.2685,1.2603,1.2508,1.2508,1.2685,1.2679,1.2908,1.3025,1.3066,1.306,1.3019,1.2978,1.2984,1.2937,1.2902,1.2867,1.2803,1.2739,1.2591,1.2478,1.2473,1.2401,1.2407,1.2443,1.2478,1.2627,1.2703,1.2726,1.2832,1.2809,1.2873,1.2867,1.2867,1.2867,1.2908,1.3002,1.3082,1.3105,1.3037,1.3198,1.333,1.3261,1.3062,1.3012,1.2978,1.2978,1.3012,1.3053,1.3094,1.317,1.3239,1.3288,1.3323,1.3329,1.3335,1.3301,2.2881,2.2118,2.1282,2.0868,2.0645,1.9833,1.9465,1.9376,1.925,1.9101,1.8981,1.8912,1.8805,1.869,1.8528,1.8254,1.8064,1.8236,1.8193,1.7516,1.7415,1.727,1.6835,1.6212,1.5881,1.5659,1.5578,1.5755,1.6435,1.5759,1.6321,1.7394,1.7926,1.7902,1.7666,1.7468,1.6934,1.6732,1.6576,1.6359,1.6125,1.5745,1.5375,1.4841,1.4441,1.4152,1.4063,1.3862,1.3538,1.3607,1.334,1.2906,1.2531,1.23,1.2204,1.2294,1.2443,1.2662,1.2885,1.285,1.2768,1.2691,1.2785,1.282,1.2791,1.2984,1.3019,1.3019,1.2949,1.2873,1.2832,1.2832,1.2803,1.2768,1.2691,1.2627,1.2561,1.2413,1.2423,1.2406,1.2494,1.2448,1.2418,1.2401,1.2437,1.2514,1.2556,1.2667,1.2801,1.2797,1.2832,1.2832,1.2832,1.2873,1.2928,1.3061,1.3024,1.2914,1.3141,1.3399,1.3165,1.2972,1.2937,1.2902,1.2937,1.2937,1.2943,1.2978,1.3054,1.3101,1.3082,1.3123,1.3204,1.321,1.317,2.2499,2.1959,2.1436,2.118,2.0966,2.0135,1.9661,1.9457,1.9362,1.9339,1.9295,1.91,1.8972,1.8836,1.8743,1.8478,1.8211,1.8453,1.8296,1.81,1.7716,1.751,1.7118,1.6529,1.609,1.582,1.5837,1.625,1.6707,1.6872,1.7484,1.8283,1.8792,1.898,1.8926,1.8551,1.7837,1.7341,1.6852,1.6639,1.6404,1.5899,1.5506,1.5042,1.4584,1.4362,1.4226,1.4061,1.3917,1.3778,1.3484,1.2935,1.2536,1.2289,1.2372,1.2508,1.2668,1.2815,1.299,1.2955,1.2949,1.2943,1.3151,1.3226,1.3123,1.2984,1.2984,1.2914,1.2838,1.2768,1.2733,1.2662,1.2633,1.252,1.2443,1.2413,1.2407,1.2388,1.2399,1.2489,1.2636,1.2659,1.262,1.2589,1.3056,1.2438,1.2505,1.2593,1.2648,1.2627,1.2662,1.2697,1.2697,1.2739,1.2871,1.3089,1.2974,1.2889,1.3179,1.3387,1.3111,1.2867,1.2832,1.2838,1.2867,1.2926,1.299,1.2983,1.2926,1.2954,1.3026,1.3012,1.3094,1.3129,1.3129,2.2745,2.1859,2.163,2.1546,2.1452,2.0967,2.0475,2.0047,1.9965,1.9839,1.9581,1.9376,1.9183,1.9153,1.8874,1.8567,1.8356,1.8119,1.7942,1.7767,1.7545,1.7145,1.6785,1.6473,1.6238,1.6348,1.6547,1.7026,1.7971,1.8215,1.8628,1.9251,1.9577,1.9858,1.9747,1.9535,1.8528,1.7687,1.7127,1.6826,1.6608,1.6133,1.5799,1.5508,1.4897,1.4706,1.4751,1.4256,1.4149,1.4391,1.3699,1.2898,1.1858,1.2135,1.2508,1.2885,1.2891,1.2885,1.3066,1.2984,1.2908,1.2984,1.3053,1.3047,1.2978,1.2914,1.2879,1.2803,1.2792,1.2733,1.2651,1.2579,1.2612,1.2604,1.255,1.2576,1.2682,1.3002,1.3023,1.3193,1.3306,1.3554,1.3435,1.386,1.4121,1.3053,1.2577,1.2826,1.267,1.2719,1.2651,1.2699,1.283,1.2913,1.3009,1.3199,1.3016,1.2914,1.3143,1.321,1.2926,1.2739,1.2739,1.2761,1.2824,1.2965,1.3122,1.3051,1.2923,1.3033,1.3109,1.3044,1.2978,1.3012,1.3047,2.2698,2.2207,2.1972,2.1853,2.1782,2.1647,2.1266,2.0773,2.0337,1.9987,1.9733,1.9494,1.9339,1.9258,1.8936,1.8669,1.8457,1.8223,1.801,1.7842,1.7288,1.6986,1.6688,1.6579,1.6673,1.6931,1.7402,1.7987,1.9037,1.9874,2.0332,1.9754,2.0231,2.0232,2.0016,1.9541,1.8981,1.8184,1.7533,1.6972,1.6585,1.625,1.6098,1.5863,1.5146,1.5095,1.5138,1.4385,1.4388,1.4758,1.4021,1.275,1.2027,1.2437,1.2656,1.292,1.2914,1.2908,1.2984,1.2908,1.2838,1.2809,1.2821,1.2739,1.2768,1.2733,1.2697,1.2627,1.268,1.2716,1.2585,1.252,1.2663,1.2807,1.2848,1.2886,1.3274,1.3694,1.391,1.4079,1.4351,1.4671,1.4972,1.5376,1.537,1.4548,1.4254,1.4503,1.3906,1.3145,1.2963,1.2861,1.3012,1.3182,1.3285,1.3329,1.3166,1.2962,1.2847,1.2848,1.2651,1.2608,1.2612,1.2678,1.2781,1.2916,1.3038,1.3034,1.2983,1.3115,1.317,1.3083,1.2978,1.2867,1.2937,2.2557,2.2746,2.2373,2.2166,2.2068,2.2136,2.1936,2.1477,2.0648,2.0108,1.9912,1.9552,1.9457,1.9362,1.9056,1.8836,1.8613,1.8393,1.8189,1.8149,1.7556,1.7128,1.6931,1.6998,1.7093,1.7466,1.8052,1.8865,2.0051,2.0616,2.0553,2.0144,2.056,2.0586,2.0131,1.9705,1.9263,1.8794,1.8399,1.8006,1.6775,1.6087,1.5665,1.5383,1.502,1.4748,1.4843,1.4613,1.4283,1.4513,1.4084,1.2692,1.2645,1.2633,1.2739,1.2917,1.2983,1.2952,1.2971,1.2889,1.277,1.2692,1.2574,1.2666,1.2755,1.2859,1.2824,1.2848,1.2895,1.3105,1.3108,1.3156,1.3274,1.3411,1.3479,1.3678,1.405,1.4503,1.4925,1.5182,1.5635,1.5877,1.5699,1.6025,1.6477,1.5902,1.5918,1.6172,1.6019,1.4849,1.3898,1.3605,1.3478,1.3644,1.356,1.3565,1.3331,1.3125,1.301,1.2817,1.2824,1.2697,1.2489,1.2601,1.2754,1.2816,1.2907,1.3072,1.3256,1.324,1.3256,1.3132,1.3045,1.309,1.2861,2.3026,2.2958,2.3009,2.2824,2.2517,2.2439,2.2239,2.1915,2.137,2.0844,2.0441,1.9975,1.9697,1.9654,1.9295,1.9078,1.8858,1.8574,1.8372,1.8069,1.7686,1.7325,1.7125,1.7321,1.7543,1.7918,1.862,1.9603,2.062,2.0821,2.0815,2.097,2.1039,2.0642,2.0334,1.9957,1.9673,1.9307,1.9033,1.8586,1.7513,1.6936,1.6558,1.6355,1.6133,1.5538,1.5285,1.45,1.3847,1.3478,1.3175,1.278,1.2781,1.2679,1.2702,1.2875,1.3251,1.3325,1.3044,1.3056,1.3126,1.2657,1.2573,1.2871,1.3041,1.3132,1.3192,1.3216,1.3351,1.3632,1.3738,1.3829,1.3964,1.4099,1.4213,1.4546,1.4882,1.5398,1.591,1.6362,1.6865,1.6914,1.6696,1.6913,1.721,1.7447,1.7617,1.7937,1.8593,1.796,1.5982,1.5342,1.4341,1.4236,1.4248,1.433,1.4421,1.4012,1.383,1.351,1.3134,1.3241,1.3335,1.2826,1.2701,1.3254,1.3641,1.3626,1.3725,1.3866,1.3962,1.4087,1.4016,1.4023,1.3408,2.3241,2.3286,2.3321,2.3077,2.2704,2.2449,2.2294,2.2068,2.1593,2.1261,2.0999,2.0421,2.0085,1.9952,1.9545,1.9235,1.901,1.876,1.8528,1.8235,1.7828,1.7582,1.7547,1.7772,1.8156,1.8524,1.938,2.0284,2.1052,2.1063,2.1036,2.1073,2.0865,2.0746,2.0453,2.0188,2.0003,1.9591,1.9403,1.8882,1.823,1.8042,1.7578,1.7394,1.691,1.6301,1.5311,1.4486,1.3815,1.3244,1.2965,1.2885,1.295,1.3115,1.3047,1.3323,1.3724,1.4219,1.3605,1.3558,1.3809,1.3399,1.2386,1.2632,1.4038,1.4247,1.4691,1.4769,1.5034,1.5283,1.4823,1.4756,1.5055,1.5255,1.5353,1.5566,1.6019,1.6542,1.684,1.7046,1.7723,1.8518,1.8609,1.9434,1.9683,1.9735,1.9823,1.9422,2.0095,2.0225,1.847,1.7231,1.6309,1.6054,1.646,1.6329,1.6045,1.5514,1.4799,1.4459,1.4221,1.4276,1.4199,1.3772,1.3829,1.4627,1.4889,1.4739,1.4915,1.5216,1.5242,1.5244,1.5104,1.4897,1.4347,2.3271,2.3611,2.3407,2.3051,2.266,2.2358,2.2284,2.2192,2.1683,2.1562,2.1617,2.0991,2.0558,2.0097,1.9732,1.9398,1.9108,1.8943,1.8721,1.8507,1.7915,1.7803,1.807,1.8532,1.8898,1.9349,2.0053,2.0571,2.1126,2.0996,2.0806,2.0722,2.0706,2.0764,2.0186,1.9997,1.9957,1.972,1.9434,1.9073,1.9031,1.9166,1.8375,1.7786,1.737,1.6615,1.5613,1.4772,1.4233,1.3476,1.3099,1.3081,1.3246,1.355,1.3595,1.3849,1.5061,1.4946,1.446,1.5041,1.494,1.4371,1.3063,1.3241,1.4796,1.5873,1.6348,1.6554,1.6821,1.6609,1.6139,1.5913,1.6235,1.6327,1.6437,1.6746,1.7276,1.7743,1.788,1.7979,1.8674,1.9622,2.0251,2.1122,2.1448,2.1607,2.1569,2.1311,2.099,2.0624,1.9636,1.9045,1.8572,1.8529,1.8207,1.7862,1.7261,1.6756,1.6059,1.5619,1.529,1.5234,1.5107,1.4843,1.5109,1.5668,1.5995,1.5961,1.6221,1.6476,1.664,1.657,1.6025,1.5773,1.534,2.3271,2.3449,2.3327,2.2994,2.2571,2.2462,2.258,2.266,2.224,2.2268,2.2328,2.1756,2.1023,2.0045,1.9869,1.9682,1.9609,1.9295,1.9236,1.9111,1.8402,1.8144,1.8435,1.9296,1.976,2.0195,2.0512,2.0732,2.0905,2.0792,2.0733,2.0724,2.0038,2.0093,2.0402,2.0129,1.9807,1.9671,1.9769,1.9548,1.9096,1.8926,1.8403,1.8045,1.7871,1.7415,1.6755,1.6075,1.4982,1.3988,1.3278,1.3362,1.3671,1.4075,1.4213,1.4747,1.5997,1.6146,1.6003,1.6733,1.6737,1.6266,1.5332,1.5101,1.6752,1.8495,1.8742,1.8678,1.8691,1.8208,1.7785,1.755,1.7656,1.7372,1.7317,1.8097,1.8782,1.909,1.9315,1.9327,1.953,1.9949,2.01,2.0724,2.1071,2.1205,2.1365,2.1128,2.0918,2.0748,2.0586,2.0451,2.0245,1.909,1.8007,1.8461,1.8123,1.7707,1.7415,1.7163,1.6748,1.6148,1.5967,1.6165,1.6064,1.6331,1.6615,1.7361,1.7323,1.7589,1.7975,1.7945,1.7281,1.6712,1.6322]},{"header":{"parameterUnit":"m.s-1","parameterCategory":1,"la1":31.0,"la2":29.5877,"lo1":-88.7671,"lo2":-86.6584,"dy":0.0162,"dx":0.0185,"nx":115,"ny":88,"refTime":"2024-07-10T18:00:00:Z","depth":0,"parameterNumber":3,"parameterNumberName":"V-component_of_WINDS"},"data":[0.0,0.0,0.0,0.0,0.0,0.0,0.0,0.0,0.0,0.0,0.0,0.0,0.0,0.0,0.0,0.0,0.0,0.0,0.0,0.0,0.0,0.0,0.0,0.0,0.0,0.0,0.0,0.0,0.0,0.0,0.0,0.0,0.0,0.0,0.0,0.0,0.0,0.0,0.0,0.0,0.0,0.0,0.0,0.0,0.0,0.0,0.0,0.0,0.0,0.0,0.0,0.0,0.0,0.0,0.0,0.0,0.0,0.0,0.0,0.0,0.0,0.0,0.0,0.0,0.0,0.0,0.0,0.0,0.0,0.0,0.0,0.0,0.0,0.0,0.0,0.0,0.0,0.0,0.0,0.0,0.0,0.0,0.0,0.0,0.0,0.0,0.0,0.0,0.0,0.0,0.0,0.0,0.0,0.0,0.0,0.0,0.0,0.0,0.0,0.0,0.0,0.0,0.0,0.0,0.0,0.0,0.0,0.0,0.0,0.0,0.0,0.0,0.0,0.0,0.0,0.0,0.0,0.0,0.0,0.0,0.0,0.0,0.0,0.0,0.0,0.0,0.0,0.0,0.0,0.0,0.0,0.0,0.0,0.0,0.0,0.0,0.0,0.0,0.0,0.0,0.0,0.0,0.0,0.0,0.0,0.0,0.0,0.0,0.0,0.0,0.0,0.0,0.0,0.0,0.0,0.0,0.0,0.0,0.0,0.0,0.0,0.0,0.0,0.0,0.0,0.0,0.0,0.0,0.0,0.0,0.0,0.0,0.0,0.0,0.0,0.0,0.0,0.0,0.0,0.0,0.0,0.0,0.0,0.0,0.0,0.0,0.0,0.0,0.0,0.0,0.0,0.0,0.0,0.0,0.0,0.0,0.0,0.0,0.0,0.0,0.0,0.0,0.0,0.0,0.0,0.0,0.0,0.0,0.0,0.0,0.0,0.0,0.0,0.0,0.0,0.0,0.0,0.0,0.0,0.0,0.0,0.0,0.0,0.0,0.0,0.0,0.0,0.0,0.0,0.0,0.0,0.0,0.0,0.0,0.0,0.0,0.0,0.0,0.0,0.0,0.0,0.0,0.0,0.0,0.0,0.0,0.0,0.0,0.0,0.0,0.0,0.0,0.0,0.0,0.0,0.0,0.0,0.0,0.0,0.0,0.0,0.0,0.0,0.0,0.0,0.0,0.0,0.0,0.0,0.0,0.0,0.0,0.0,0.0,0.0,0.0,0.0,0.0,0.0,0.0,0.0,0.0,0.0,0.0,0.0,0.0,0.0,0.0,0.0,0.0,0.0,0.0,0.0,0.0,0.0,0.0,0.0,0.0,0.0,0.0,0.0,0.0,0.0,0.0,0.0,0.0,0.0,0.0,0.0,0.0,0.0,0.0,0.0,0.0,0.0,0.0,0.0,0.0,0.0,0.0,0.0,0.0,0.0,0.0,0.0,0.0,0.0,0.0,0.0,0.0,0.0,0.0,0.0,0.0,0.0,0.0,0.0,0.0,0.0,0.0,0.0,0.0,0.0,0.0,0.0,0.0,0.0,0.0,0.0,0.0,0.0,0.0,0.0,0.0,0.0,0.0,0.0,0.0,0.0,0.0,0.0,0.0,0.0,0.0,0.0,0.0,0.0,0.0,0.0,0.0,0.0,0.0,0.0,0.0,0.0,0.0,0.0,0.0,0.0,0.0,0.0,0.0,0.0,0.0,0.0,0.0,0.0,0.0,0.0,0.0,0.0,0.0,0.0,0.0,0.0,0.0,0.0,0.0,0.0,0.0,0.0,0.0,0.0,0.0,0.0,0.0,0.0,0.0,0.0,0.0,0.0,0.0,0.0,0.0,0.0,0.0,0.0,0.0,0.0,0.0,0.0,0.0,0.0,0.0,0.0,0.0,0.0,0.0,0.0,0.0,0.0,0.0,0.0,0.0,0.0,0.0,0.0,0.0,0.0,0.0,0.0,0.0,0.0,0.0,0.0,0.0,0.0,0.0,0.0,0.0,0.0,0.0,0.0,0.0,0.0,0.0,0.0,0.0,0.0,0.0,0.0,0.0,0.0,0.0,0.0,0.0,0.0,0.0,0.0,0.0,0.0,0.0,0.0,0.0,0.0,0.0,0.0,0.0,0.0,0.0,0.0,0.0,0.0,0.0,0.0,0.0,0.0,0.0,0.0,0.0,0.0,0.0,0.0,0.0,0.0,0.0,0.0,0.0,0.0,0.0,0.0,0.0,0.0,0.0,0.0,0.0,0.0,0.0,0.0,0.0,0.0,0.0,0.0,0.0,0.0,0.0,0.0,0.0,0.0,0.0,0.0,0.0,0.0,0.0,0.0,0.0,0.0,0.0,0.0,0.0,0.0,0.0,0.0,0.0,0.0,0.0,0.0,0.0,0.0,0.0,0.0,0.0,0.0,0.0,0.0,0.0,0.0,0.0,0.0,0.0,0.0,0.0,0.0,0.0,0.0,0.0,0.0,0.0,0.0,0.0,0.0,0.0,0.0,0.0,0.0,0.0,0.0,0.0,0.0,0.0,0.0,0.0,0.0,0.0,0.0,0.0,0.0,0.0,0.0,0.0,0.0,0.0,0.0,0.0,0.0,0.0,0.0,0.0,0.0,0.0,0.0,0.0,0.0,0.0,0.0,0.0,0.0,0.0,0.0,0.0,0.0,0.0,0.0,0.0,0.0,0.0,0.0,0.0,0.0,0.0,0.0,0.0,0.0,0.0,0.0,0.0,0.0,0.0,0.0,0.0,0.0,0.0,0.0,0.0,0.0,0.0,0.0,0.0,0.0,0.0,0.0,0.0,0.0,0.0,0.0,0.0,0.0,0.0,0.0,0.0,0.0,0.0,0.0,0.0,0.0,0.0,0.0,0.0,0.0,0.0,0.0,0.0,0.0,0.0,0.0,0.0,0.0,0.0,0.0,0.0,0.0,0.0,0.0,0.0,0.0,0.0,0.0,0.0,0.0,0.0,0.0,0.0,0.0,0.0,0.0,0.0,0.0,0.0,0.0,0.0,0.0,0.0,0.0,0.0,0.0,0.0,0.0,0.0,0.0,0.0,0.0,0.0,0.0,0.0,0.0,0.0,0.0,0.0,0.0,0.0,0.0,0.0,0.0,0.0,0.0,0.0,0.0,0.0,0.0,0.0,0.0,0.0,0.0,0.0,0.0,0.0,0.0,0.0,0.0,0.0,0.0,0.0,0.0,0.0,0.0,0.0,0.0,0.0,0.0,0.0,0.0,0.0,0.0,0.0,0.0,0.0,0.0,0.0,0.0,0.0,0.0,0.0,0.0,0.0,0.0,0.0,0.0,0.0,0.0,0.0,0.0,0.0,0.0,0.0,0.0,0.0,0.0,0.0,0.0,0.0,0.0,0.0,0.0,0.0,0.0,0.0,0.0,0.0,0.0,0.0,0.0,0.0,0.0,0.0,0.0,0.0,0.0,0.0,0.0,0.0,0.0,0.0,0.0,0.0,0.0,0.0,0.0,0.0,0.0,0.0,0.0,0.0,0.0,0.0,0.0,0.0,0.0,0.0,0.0,0.0,0.0,0.0,0.0,0.0,0.0,0.0,0.0,0.0,0.0,0.0,0.0,0.0,0.0,0.0,0.0,0.0,0.0,0.0,0.0,0.0,0.0,0.0,0.0,0.0,0.0,0.0,0.0,0.0,0.0,0.0,0.0,0.0,0.0,0.0,0.0,0.0,0.0,0.0,0.0,0.0,0.0,0.0,0.0,0.0,0.0,0.0,0.0,0.0,0.0,0.0,0.0,0.0,0.0,0.0,0.0,0.0,0.0,0.0,0.0,0.0,0.0,0.0,0.0,0.0,0.0,0.0,0.0,0.0,0.0,0.0,0.0,0.0,0.0,0.0,0.0,0.0,0.0,0.0,0.0,0.0,0.0,0.0,0.0,0.0,0.0,0.0,0.0,0.0,0.0,0.0,0.0,0.0,0.0,0.0,0.0,0.0,0.0,0.0,0.0,0.0,0.0,0.0,0.0,0.0,0.0,0.0,0.0,0.0,0.0,0.0,0.0,0.0,0.0,0.0,0.0,0.0,0.0,0.0,0.0,0.0,0.0,0.0,0.0,0.0,0.0,0.0,0.0,0.0,0.0,0.0,0.0,0.0,0.0,0.0,0.0,0.0,0.0,0.0,0.0,0.0,0.0,0.0,0.0,0.0,0.0,0.0,0.0,0.0,0.0,0.0,0.0,0.0,0.0,0.0,0.0,0.0,0.0,0.0,0.0,0.0,0.0,0.0,0.0,0.0,0.0,0.0,-1.2591,0.0,0.0,0.0,0.0,0.0,0.0,0.0,0.0,0.0,0.0,0.0,0.0,0.0,0.0,0.0,0.0,0.0,0.0,0.0,0.0,0.0,0.0,0.0,0.0,0.0,0.0,0.0,0.0,0.0,0.0,0.0,0.0,0.0,0.0,0.0,0.0,0.0,0.0,0.0,0.0,0.0,0.0,0.0,0.0,0.0,0.0,0.0,0.0,0.0,0.0,0.0,0.0,0.0,0.0,0.0,0.0,0.0,0.0,0.0,0.0,0.0,0.0,0.0,0.0,0.0,0.0,0.0,0.0,0.0,0.0,0.0,0.0,0.0,0.0,0.0,0.0,0.0,0.0,0.0,0.0,0.0,0.0,0.0,0.0,0.0,0.0,0.0,0.0,0.0,0.0,0.0,0.0,0.0,0.0,0.0,0.0,0.0,0.0,0.0,0.0,0.0,0.0,0.0,0.0,0.0,0.0,0.0,0.0,0.0,0.0,-1.5107,-1.5106,-1.5046,-1.4219,-1.261,0.0,0.0,0.0,0.0,0.0,0.0,0.0,0.0,0.0,0.0,0.0,0.0,0.0,0.0,0.0,0.0,0.0,0.0,0.0,0.0,0.0,0.0,0.0,0.0,0.0,0.0,0.0,0.0,0.0,0.0,0.0,0.0,0.0,0.0,0.0,0.0,0.0,0.0,0.0,0.0,0.0,0.0,0.0,0.0,0.0,0.0,0.0,0.0,0.0,0.0,0.0,0.0,0.0,0.0,0.0,0.0,0.0,0.0,0.0,0.0,0.0,0.0,0.0,0.0,0.0,0.0,0.0,0.0,0.0,0.0,0.0,0.0,0.0,0.0,0.0,0.0,0.0,0.0,0.0,0.0,0.0,0.0,0.0,0.0,0.0,0.0,0.0,0.0,0.0,0.0,0.0,0.0,0.0,0.0,0.0,0.0,0.0,0.0,0.0,0.0,0.0,0.0,0.0,0.0,0.0,0.0,0.0,0.0,0.0,0.0,0.0,0.0,-1.5131,-1.4297,-1.2835,0.0,0.0,0.0,0.0,0.0,0.0,0.0,0.0,0.0,0.0,0.0,0.0,0.0,0.0,0.0,0.0,0.0,0.0,0.0,0.0,0.0,0.0,0.0,0.0,0.0,0.0,0.0,0.0,0.0,0.0,0.0,0.0,0.0,0.0,0.0,0.0,0.0,0.0,0.0,0.0,0.0,0.0,0.0,0.0,0.0,0.0,0.0,0.0,0.0,0.0,0.0,0.0,0.0,0.0,0.0,0.0,0.0,0.0,0.0,0.0,0.0,0.0,0.0,0.0,0.0,0.0,0.0,0.0,0.0,0.0,0.0,0.0,0.0,0.0,0.0,0.0,0.0,0.0,0.0,0.0,0.0,0.0,0.0,0.0,0.0,0.0,0.0,0.0,0.0,0.0,0.0,0.0,0.0,0.0,0.0,0.0,0.0,0.0,0.0,0.0,0.0,0.0,0.0,0.0,0.0,0.0,0.0,0.0,0.0,0.0,-1.547,-1.6229,-1.5428,0.0,-1.3536,0.0,0.0,0.0,0.0,0.0,0.0,0.0,0.0,0.0,0.0,0.0,0.0,0.0,0.0,0.0,0.0,0.0,0.0,0.0,0.0,0.0,0.0,0.0,0.0,0.0,0.0,0.0,0.0,0.0,0.0,0.0,0.0,0.0,0.0,0.0,0.0,0.0,0.0,0.0,0.0,0.0,0.0,0.0,0.0,0.0,0.0,0.0,0.0,0.0,0.0,0.0,0.0,0.0,0.0,0.0,0.0,0.0,0.0,0.0,0.0,0.0,0.0,0.0,0.0,0.0,0.0,0.0,0.0,0.0,0.0,0.0,0.0,0.0,0.0,0.0,0.0,0.0,0.0,0.0,0.0,0.0,0.0,0.0,0.0,0.0,0.0,0.0,0.0,0.0,0.0,0.0,0.0,0.0,0.0,0.0,0.0,0.0,0.0,0.0,0.0,0.0,0.0,0.0,0.0,0.0,0.0,0.0,0.0,0.0,0.0,-1.5712,-1.5635,-1.4244,-1.3303,0.0,0.0,0.0,0.0,0.0,0.0,0.0,0.0,0.0,0.0,0.0,0.0,0.0,0.0,0.0,0.0,0.0,0.0,0.0,0.0,0.0,0.0,0.0,0.0,0.0,0.0,0.0,0.0,0.0,0.0,0.0,0.0,0.0,0.0,0.0,0.0,0.0,0.0,0.0,0.0,0.0,0.0,0.0,0.0,0.0,0.0,0.0,0.0,0.0,0.0,0.0,0.0,0.0,0.0,0.0,0.0,0.0,0.0,0.0,0.0,0.0,0.0,0.0,0.0,0.0,0.0,0.0,0.0,0.0,0.0,0.0,0.0,0.0,0.0,0.0,0.0,0.0,0.0,0.0,0.0,0.0,0.0,0.0,0.0,0.0,0.0,0.0,0.0,0.0,0.0,0.0,0.0,0.0,0.0,0.0,0.0,0.0,0.0,0.0,0.0,0.0,0.0,0.0,0.0,0.0,0.0,0.0,0.0,0.0,0.0,-1.5899,0.0,-1.5057,-1.3816,-1.2866,-1.2355,0.0,0.0,0.0,0.0,0.0,0.0,0.0,0.0,0.0,0.0,0.0,0.0,0.0,0.0,0.0,0.0,0.0,0.0,0.0,0.0,0.0,0.0,0.0,0.0,0.0,0.0,0.0,0.0,0.0,0.0,0.0,0.0,0.0,0.0,0.0,0.0,0.0,0.0,0.0,0.0,0.0,0.0,0.0,0.0,0.0,0.0,0.0,0.0,0.0,0.0,0.0,0.0,0.0,0.0,0.0,0.0,0.0,0.0,0.0,0.0,0.0,0.0,0.0,0.0,0.0,0.0,0.0,0.0,0.0,0.0,0.0,0.0,0.0,0.0,0.0,0.0,0.0,0.0,0.0,0.0,0.0,0.0,0.0,0.0,0.0,0.0,0.0,0.0,0.0,0.0,0.0,0.0,0.0,0.0,0.0,0.0,0.0,0.0,0.0,0.0,0.0,0.0,0.0,0.0,0.0,0.0,0.0,0.0,0.0,-1.5981,-1.5114,-1.5036,-1.4802,-1.3961,0.0,0.0,0.0,0.0,0.0,0.0,0.0,0.0,0.0,0.0,0.0,0.0,0.0,0.0,0.0,0.0,0.0,0.0,0.0,0.0,0.0,0.0,0.0,0.0,0.0,0.0,0.0,0.0,0.0,0.0,0.0,0.0,0.0,0.0,0.0,0.0,0.0,0.0,0.0,0.0,0.0,0.0,0.0,0.0,0.0,0.0,0.0,0.0,0.0,0.0,0.0,0.0,0.0,0.0,0.0,0.0,0.0,0.0,0.0,0.0,0.0,0.0,0.0,0.0,0.0,0.0,0.0,0.0,0.0,0.0,0.0,0.0,0.0,0.0,0.0,0.0,0.0,0.0,0.0,0.0,0.0,0.0,0.0,0.0,0.0,0.0,0.0,0.0,0.0,0.0,0.0,0.0,0.0,0.0,0.0,0.0,0.0,0.0,0.0,0.0,0.0,0.0,0.0,0.0,0.0,0.0,0.0,0.0,0.0,-1.5971,-1.5369,-1.5171,-1.5388,-1.4026,-1.2956,0.0,0.0,0.0,0.0,0.0,0.0,0.0,0.0,0.0,0.0,0.0,0.0,0.0,0.0,0.0,0.0,0.0,0.0,0.0,0.0,0.0,0.0,0.0,0.0,0.0,0.0,0.0,0.0,0.0,0.0,0.0,0.0,0.0,0.0,0.0,0.0,0.0,0.0,0.0,0.0,0.0,0.0,0.0,0.0,0.0,0.0,0.0,0.0,0.0,0.0,0.0,0.0,0.0,0.0,0.0,0.0,0.0,0.0,0.0,0.0,0.0,0.0,0.0,0.0,0.0,0.0,0.0,0.0,0.0,0.0,0.0,0.0,0.0,0.0,0.0,0.0,0.0,0.0,0.0,0.0,0.0,0.0,0.0,0.0,0.0,0.0,0.0,0.0,0.0,0.0,0.0,0.0,0.0,0.0,0.0,0.0,0.0,0.0,0.0,0.0,0.0,0.0,0.0,0.0,0.0,0.0,0.0,0.0,0.0,-1.5107,0.0,-1.5367,0.0,-1.37,-1.2604,0.0,0.0,0.0,0.0,0.0,0.0,0.0,0.0,0.0,0.0,0.0,0.0,0.0,0.0,0.0,0.0,0.0,0.0,0.0,0.0,0.0,0.0,0.0,0.0,0.0,0.0,0.0,0.0,0.0,0.0,0.0,0.0,0.0,0.0,0.0,0.0,0.0,0.0,0.0,0.0,0.0,0.0,0.0,0.0,0.0,0.0,0.0,0.0,0.0,0.0,0.0,0.0,0.0,0.0,0.0,0.0,0.0,0.0,0.0,0.0,0.0,0.0,0.0,0.0,0.0,0.0,0.0,0.0,0.0,0.0,0.0,0.0,0.0,0.0,0.0,0.0,0.0,0.0,0.0,0.0,0.0,0.0,0.0,0.0,0.0,0.0,0.0,0.0,0.0,0.0,0.0,0.0,0.0,0.0,0.0,0.0,0.0,0.0,0.0,0.0,0.0,0.0,0.0,0.0,0.0,0.0,0.0,0.0,-1.5168,-1.5128,-1.5741,-1.5678,-1.4831,-1.3952,-1.3123,0.0,0.0,0.0,0.0,0.0,0.0,0.0,0.0,0.0,0.0,0.0,0.0,0.0,0.0,0.0,0.0,0.0,0.0,0.0,0.0,0.0,0.0,0.0,0.0,0.0,0.0,0.0,0.0,0.0,0.0,0.0,0.0,0.0,0.0,0.0,0.0,0.0,0.0,0.0,0.0,0.0,0.0,0.0,0.0,0.0,0.0,0.0,0.0,0.0,0.0,0.0,0.0,0.0,0.0,0.0,0.0,0.0,0.0,0.0,0.0,0.0,0.0,0.0,0.0,0.0,0.0,0.0,0.0,0.0,0.0,0.0,0.0,0.0,0.0,0.0,0.0,0.0,0.0,0.0,0.0,0.0,0.0,0.0,0.0,0.0,0.0,0.0,0.0,0.0,0.0,0.0,0.0,0.0,0.0,0.0,0.0,0.0,0.0,0.0,0.0,0.0,0.0,0.0,0.0,0.0,0.0,0.0,0.0,0.0,-1.4902,-1.5631,-1.58,-1.526,-1.4124,-1.3597,0.0,0.0,0.0,0.0,0.0,0.0,0.0,0.0,0.0,0.0,0.0,0.0,0.0,0.0,0.0,0.0,0.0,0.0,0.0,0.0,0.0,0.0,0.0,0.0,0.0,0.0,0.0,0.0,0.0,0.0,0.0,0.0,0.0,0.0,0.0,0.0,0.0,0.0,0.0,0.0,0.0,0.0,0.0,0.0,0.0,0.0,0.0,0.0,0.0,0.0,0.0,0.0,0.0,0.0,0.0,0.0,0.0,0.0,0.0,0.0,0.0,0.0,0.0,0.0,0.0,0.0,0.0,0.0,0.0,0.0,0.0,0.0,0.0,0.0,0.0,0.0,0.0,0.0,0.0,0.0,0.0,0.0,0.0,0.0,0.0,0.0,0.0,0.0,0.0,0.0,0.0,0.0,0.0,0.0,0.0,0.0,0.0,0.0,0.0,0.0,0.0,0.0,0.0,0.0,0.0,0.0,0.0,0.0,0.0,-1.5673,-1.5911,-1.5931,-1.5659,-1.457,-1.4007,-1.4052,0.0,0.0,0.0,0.0,0.0,0.0,0.0,0.0,0.0,0.0,0.0,0.0,0.0,0.0,0.0,0.0,0.0,0.0,0.0,0.0,0.0,0.0,0.0,0.0,0.0,0.0,0.0,0.0,0.0,0.0,0.0,0.0,0.0,0.0,0.0,0.0,0.0,0.0,0.0,0.0,0.0,0.0,0.0,0.0,0.0,0.0,0.0,0.0,0.0,0.0,0.0,0.0,0.0,0.0,0.0,0.0,0.0,0.0,0.0,0.0,0.0,0.0,0.0,0.0,0.0,0.0,0.0,0.0,0.0,0.0,0.0,0.0,0.0,0.0,0.0,0.0,0.0,0.0,0.0,0.0,0.0,0.0,0.0,0.0,0.0,0.0,0.0,0.0,0.0,0.0,0.0,0.0,0.0,0.0,0.0,0.0,0.0,0.0,0.0,0.0,0.0,0.0,0.0,0.0,0.0,0.0,0.0,0.0,-1.7086,-1.6539,-1.6184,-1.6057,-1.528,-1.4457,0.0,0.0,0.0,0.0,0.0,0.0,0.0,0.0,0.0,0.0,0.0,0.0,0.0,0.0,0.0,0.0,0.0,0.0,0.0,0.0,0.0,0.0,0.0,0.0,0.0,0.0,0.0,0.0,0.0,0.0,0.0,0.0,0.0,0.0,0.0,0.0,0.0,0.0,0.0,0.0,0.0,0.0,0.0,0.0,0.0,0.0,0.0,0.0,0.0,0.0,0.0,0.0,0.0,0.0,0.0,0.0,0.0,0.0,0.0,0.0,0.0,0.0,0.0,0.0,0.0,0.0,0.0,0.0,0.0,0.0,0.0,0.0,0.0,0.0,0.0,0.0,0.0,0.0,0.0,0.0,0.0,0.0,0.0,0.0,0.0,0.0,0.0,0.0,0.0,0.0,0.0,0.0,0.0,0.0,0.0,0.0,0.0,0.0,0.0,0.0,0.0,0.0,0.0,0.0,0.0,0.0,0.0,0.0,0.0,-1.7105,-1.7613,-1.7788,-1.7581,-1.6316,-1.5777,0.0,0.0,0.0,0.0,0.0,0.0,0.0,0.0,0.0,0.0,0.0,0.0,0.0,0.0,0.0,0.0,0.0,0.0,0.0,0.0,0.0,0.0,0.0,0.0,0.0,0.0,0.0,0.0,0.0,0.0,0.0,0.0,0.0,0.0,0.0,0.0,0.0,0.0,0.0,0.0,0.0,0.0,0.0,0.0,0.0,0.0,0.0,0.0,0.0,0.0,0.0,0.0,0.0,0.0,0.0,0.0,0.0,0.0,0.0,0.0,0.0,0.0,0.0,0.0,0.0,0.0,0.0,0.0,0.0,0.0,0.0,0.0,0.0,0.0,0.0,0.0,0.0,0.0,0.0,0.0,0.0,0.0,0.0,0.0,0.0,0.0,0.0,0.0,0.0,0.0,0.0,0.0,0.0,0.0,0.0,0.0,0.0,0.0,0.0,0.0,0.0,0.0,0.0,0.0,0.0,0.0,0.0,0.0,-1.7678,-1.8059,-1.8592,-1.8843,-1.879,-1.7619,-1.6862,0.0,0.0,0.0,0.0,0.0,0.0,0.0,0.0,0.0,0.0,0.0,0.0,0.0,0.0,0.0,0.0,0.0,0.0,0.0,0.0,0.0,0.0,0.0,0.0,0.0,0.0,0.0,0.0,0.0,0.0,0.0,0.0,0.0,0.0,0.0,0.0,0.0,0.0,0.0,0.0,0.0,0.0,0.0,0.0,0.0,0.0,0.0,0.0,0.0,0.0,0.0,0.0,0.0,0.0,0.0,0.0,0.0,0.0,0.0,0.0,0.0,0.0,0.0,0.0,0.0,0.0,0.0,0.0,0.0,0.0,0.0,0.0,0.0,0.0,0.0,0.0,0.0,0.0,0.0,0.0,0.0,0.0,0.0,0.0,0.0,0.0,0.0,0.0,0.0,0.0,0.0,0.0,0.0,0.0,0.0,0.0,0.0,0.0,0.0,0.0,0.0,0.0,0.0,0.0,0.0,0.0,0.0,0.0,-1.8507,-1.9232,-1.9348,-1.9466,-1.9541,-1.888,-1.7749,0.0,0.0,0.0,0.0,0.0,0.0,0.0,0.0,0.0,0.0,0.0,0.0,0.0,0.0,0.0,0.0,0.0,0.0,0.0,0.0,0.0,0.0,0.0,0.0,0.0,0.0,0.0,0.0,0.0,0.0,0.0,0.0,0.0,0.0,0.0,0.0,0.0,0.0,0.0,0.0,0.0,0.0,0.0,0.0,0.0,0.0,0.0,0.0,0.0,0.0,0.0,0.0,0.0,0.0,0.0,0.0,0.0,0.0,0.0,0.0,0.0,0.0,0.0,0.0,0.0,0.0,0.0,0.0,0.0,0.0,0.0,0.0,0.0,0.0,0.0,0.0,0.0,0.0,0.0,0.0,0.0,0.0,0.0,0.0,0.0,0.0,0.0,0.0,0.0,0.0,0.0,0.0,0.0,0.0,0.0,0.0,0.0,0.0,0.0,0.0,0.0,0.0,0.0,0.0,0.0,0.0,0.0,0.0,-1.8806,-1.8399,-1.9061,-1.9389,-1.9368,-1.881,-1.802,0.0,0.0,0.0,0.0,0.0,0.0,0.0,0.0,0.0,0.0,0.0,0.0,0.0,0.0,0.0,0.0,0.0,0.0,0.0,0.0,0.0,0.0,0.0,0.0,0.0,0.0,0.0,0.0,0.0,0.0,0.0,0.0,0.0,0.0,0.0,0.0,0.0,0.0,0.0,0.0,0.0,0.0,0.0,0.0,0.0,0.0,0.0,0.0,-1.9352,0.0,0.0,0.0,0.0,0.0,0.0,0.0,0.0,0.0,0.0,0.0,0.0,0.0,0.0,0.0,0.0,0.0,0.0,0.0,0.0,0.0,0.0,0.0,0.0,0.0,0.0,0.0,0.0,0.0,0.0,0.0,0.0,0.0,0.0,0.0,0.0,0.0,0.0,0.0,0.0,0.0,0.0,0.0,0.0,0.0,0.0,0.0,0.0,0.0,0.0,0.0,0.0,0.0,0.0,0.0,0.0,0.0,0.0,0.0,-1.9048,-1.862,-1.9093,-1.9329,-1.9243,-1.9045,-1.8339,0.0,0.0,0.0,0.0,0.0,0.0,0.0,0.0,0.0,0.0,0.0,0.0,0.0,0.0,0.0,0.0,0.0,0.0,0.0,0.0,0.0,0.0,0.0,0.0,0.0,0.0,0.0,0.0,0.0,0.0,0.0,0.0,0.0,0.0,0.0,0.0,0.0,0.0,0.0,0.0,0.0,0.0,0.0,0.0,0.0,0.0,0.0,0.0,0.0,0.0,0.0,0.0,0.0,0.0,0.0,0.0,0.0,0.0,0.0,0.0,0.0,0.0,0.0,0.0,0.0,0.0,0.0,0.0,0.0,0.0,0.0,0.0,0.0,0.0,0.0,0.0,0.0,0.0,0.0,0.0,0.0,0.0,0.0,0.0,0.0,0.0,0.0,0.0,0.0,0.0,0.0,0.0,0.0,0.0,0.0,0.0,0.0,0.0,0.0,0.0,0.0,0.0,0.0,0.0,0.0,0.0,0.0,-1.8919,-1.9236,-1.9148,-1.9243,-1.9268,-1.92,-1.9314,-1.8579,-1.6972,0.0,0.0,0.0,0.0,0.0,0.0,0.0,0.0,0.0,0.0,0.0,0.0,0.0,0.0,0.0,0.0,0.0,0.0,0.0,0.0,0.0,0.0,0.0,0.0,0.0,0.0,0.0,0.0,0.0,0.0,0.0,0.0,0.0,0.0,0.0,0.0,0.0,0.0,-1.8694,-1.8731,0.0,0.0,0.0,0.0,0.0,0.0,0.0,0.0,-1.9183,0.0,0.0,0.0,0.0,0.0,0.0,0.0,0.0,0.0,0.0,0.0,0.0,0.0,0.0,0.0,0.0,0.0,0.0,0.0,0.0,0.0,0.0,0.0,0.0,0.0,0.0,0.0,0.0,0.0,0.0,0.0,0.0,0.0,0.0,0.0,0.0,0.0,0.0,0.0,0.0,0.0,0.0,0.0,0.0,0.0,0.0,0.0,0.0,0.0,0.0,0.0,0.0,0.0,0.0,0.0,0.0,-1.812,-1.8846,-1.9264,-1.9351,-1.9323,-1.9268,-1.92,-1.9235,-1.8499,-1.7009,0.0,0.0,0.0,0.0,0.0,0.0,0.0,0.0,0.0,0.0,0.0,0.0,0.0,0.0,0.0,0.0,0.0,0.0,0.0,0.0,0.0,0.0,0.0,0.0,0.0,0.0,0.0,0.0,0.0,0.0,0.0,0.0,0.0,0.0,0.0,0.0,0.0,0.0,0.0,-1.7707,-1.6804,0.0,0.0,0.0,0.0,0.0,0.0,0.0,0.0,-2.0222,0.0,0.0,0.0,0.0,0.0,0.0,0.0,0.0,0.0,0.0,0.0,0.0,0.0,0.0,0.0,0.0,0.0,0.0,0.0,0.0,0.0,0.0,0.0,0.0,0.0,0.0,0.0,0.0,0.0,0.0,0.0,0.0,0.0,0.0,0.0,0.0,0.0,0.0,0.0,0.0,0.0,0.0,0.0,0.0,0.0,0.0,0.0,0.0,0.0,0.0,0.0,0.0,0.0,0.0,0.0,-1.8524,-1.9065,-1.92,-1.8991,-1.9122,-1.9115,-1.8984,-1.8652,-1.7976,0.0,0.0,0.0,0.0,0.0,0.0,0.0,0.0,0.0,0.0,0.0,0.0,0.0,0.0,0.0,0.0,0.0,0.0,0.0,0.0,0.0,0.0,0.0,0.0,0.0,0.0,0.0,0.0,0.0,0.0,0.0,0.0,0.0,0.0,0.0,0.0,0.0,0.0,0.0,0.0,-1.801,-1.7535,-1.6667,0.0,0.0,0.0,0.0,0.0,0.0,-2.0339,-2.0898,0.0,0.0,0.0,0.0,0.0,0.0,0.0,0.0,0.0,0.0,0.0,0.0,0.0,0.0,0.0,0.0,0.0,0.0,0.0,0.0,0.0,0.0,0.0,0.0,0.0,0.0,0.0,0.0,0.0,0.0,0.0,0.0,0.0,0.0,0.0,0.0,0.0,0.0,0.0,0.0,0.0,0.0,0.0,0.0,0.0,0.0,0.0,0.0,0.0,0.0,0.0,0.0,0.0,0.0,0.0,-1.8746,-1.9134,-1.9126,-1.8734,-1.8947,-1.8999,-1.8834,-1.8351,-1.7691,0.0,0.0,0.0,0.0,0.0,0.0,0.0,0.0,0.0,0.0,0.0,0.0,0.0,0.0,0.0,0.0,0.0,0.0,0.0,0.0,0.0,0.0,0.0,0.0,0.0,0.0,0.0,0.0,0.0,0.0,0.0,0.0,0.0,0.0,0.0,0.0,0.0,0.0,0.0,0.0,0.0,-1.8445,-1.709,-1.752,0.0,0.0,0.0,0.0,-2.105,-2.0926,0.0,0.0,0.0,0.0,0.0,0.0,0.0,0.0,0.0,0.0,0.0,0.0,0.0,0.0,0.0,0.0,0.0,0.0,0.0,0.0,0.0,0.0,0.0,0.0,0.0,0.0,0.0,0.0,0.0,0.0,0.0,0.0,0.0,0.0,0.0,0.0,0.0,0.0,0.0,0.0,0.0,0.0,0.0,0.0,0.0,0.0,0.0,0.0,0.0,0.0,0.0,0.0,0.0,0.0,0.0,0.0,-1.8018,-1.8756,-1.9111,-1.904,-1.9022,-1.9007,-1.8981,-1.9089,-1.8392,0.0,0.0,0.0,0.0,0.0,0.0,0.0,0.0,0.0,0.0,0.0,0.0,0.0,0.0,0.0,0.0,0.0,0.0,0.0,0.0,0.0,0.0,0.0,0.0,0.0,0.0,0.0,0.0,0.0,0.0,0.0,0.0,0.0,0.0,0.0,0.0,0.0,0.0,0.0,0.0,0.0,-1.8004,-1.7861,-1.7924,-1.8032,0.0,0.0,-1.9235,-1.9558,-2.0107,0.0,0.0,0.0,0.0,0.0,0.0,0.0,0.0,0.0,0.0,0.0,0.0,0.0,0.0,0.0,0.0,0.0,0.0,0.0,0.0,0.0,0.0,0.0,0.0,0.0,0.0,0.0,0.0,0.0,0.0,0.0,0.0,0.0,0.0,0.0,0.0,0.0,0.0,0.0,0.0,0.0,0.0,0.0,0.0,0.0,0.0,0.0,0.0,0.0,0.0,0.0,0.0,0.0,0.0,0.0,-1.6958,-1.7718,-1.856,-1.8922,-1.878,-1.8921,-1.8964,-1.8887,-1.8267,-1.7577,0.0,0.0,0.0,0.0,0.0,0.0,0.0,0.0,0.0,0.0,0.0,0.0,0.0,0.0,0.0,0.0,0.0,0.0,0.0,0.0,0.0,0.0,0.0,0.0,0.0,0.0,0.0,0.0,0.0,0.0,0.0,0.0,0.0,0.0,0.0,0.0,0.0,0.0,0.0,0.0,0.0,0.0,-1.8799,-1.8739,0.0,0.0,0.0,-1.9618,-2.0581,0.0,0.0,0.0,0.0,0.0,0.0,0.0,0.0,0.0,0.0,0.0,0.0,0.0,0.0,0.0,0.0,0.0,0.0,0.0,0.0,0.0,0.0,0.0,0.0,0.0,0.0,0.0,0.0,0.0,0.0,0.0,0.0,0.0,0.0,0.0,0.0,0.0,0.0,0.0,0.0,0.0,0.0,0.0,0.0,0.0,0.0,0.0,0.0,0.0,0.0,0.0,0.0,0.0,0.0,0.0,0.0,0.0,-1.7671,-1.8431,-1.8743,-1.8591,-1.8771,-1.8834,-1.8706,-1.767,0.0,0.0,0.0,0.0,0.0,0.0,0.0,0.0,0.0,0.0,0.0,0.0,0.0,0.0,0.0,0.0,0.0,0.0,0.0,0.0,0.0,0.0,0.0,0.0,0.0,0.0,0.0,-1.1567,0.0,0.0,0.0,0.0,0.0,0.0,0.0,0.0,0.0,0.0,0.0,0.0,0.0,0.0,-2.0652,-2.0029,-1.9949,-2.0102,0.0,0.0,-2.007,-2.1298,-2.1494,-2.1639,0.0,0.0,0.0,0.0,0.0,0.0,0.0,0.0,0.0,0.0,0.0,0.0,0.0,0.0,0.0,0.0,0.0,0.0,0.0,0.0,0.0,0.0,0.0,0.0,0.0,0.0,0.0,0.0,0.0,0.0,0.0,0.0,0.0,0.0,0.0,0.0,0.0,0.0,0.0,0.0,0.0,0.0,0.0,0.0,0.0,0.0,0.0,0.0,0.0,0.0,0.0,0.0,0.0,0.0,0.0,-1.7867,-1.836,-1.8668,-1.8778,-1.8629,-1.8524,-1.8515,-1.8028,-1.7341,0.0,0.0,0.0,0.0,0.0,0.0,0.0,0.0,0.0,0.0,0.0,0.0,0.0,0.0,0.0,0.0,0.0,0.0,0.0,0.0,0.0,0.0,0.0,0.0,0.0,0.0,0.0,0.0,0.0,0.0,0.0,0.0,0.0,0.0,0.0,0.0,0.0,0.0,0.0,0.0,0.0,-2.165,-2.1721,-2.1732,-2.145,0.0,0.0,-2.0568,-2.0673,-2.0683,-2.0439,-1.9687,0.0,0.0,0.0,0.0,0.0,0.0,0.0,0.0,0.0,0.0,0.0,0.0,0.0,0.0,0.0,0.0,0.0,0.0,0.0,0.0,0.0,0.0,0.0,0.0,0.0,0.0,0.0,0.0,0.0,0.0,0.0,0.0,0.0,0.0,0.0,0.0,0.0,0.0,0.0,0.0,0.0,0.0,0.0,0.0,0.0,0.0,0.0,0.0,0.0,0.0,0.0,0.0,0.0,-1.6608,-1.6978,-1.802,-1.8563,-1.861,-1.8657,-1.8686,-1.8695,-1.7724,-1.7022,0.0,0.0,0.0,0.0,0.0,0.0,0.0,0.0,0.0,0.0,0.0,0.0,0.0,0.0,0.0,0.0,0.0,0.0,0.0,0.0,0.0,0.0,0.0,0.0,0.0,0.0,0.0,0.0,-1.3944,-1.4834,-1.5938,0.0,0.0,0.0,0.0,0.0,0.0,0.0,0.0,0.0,0.0,-2.2334,-2.1735,-2.175,0.0,0.0,-2.0971,-2.1145,-2.0633,-2.0995,-2.122,-2.0892,-2.1067,0.0,0.0,0.0,0.0,0.0,0.0,0.0,0.0,0.0,0.0,0.0,0.0,0.0,0.0,0.0,0.0,0.0,0.0,0.0,0.0,0.0,0.0,0.0,0.0,0.0,0.0,0.0,0.0,0.0,0.0,0.0,0.0,0.0,0.0,0.0,0.0,0.0,0.0,0.0,0.0,0.0,0.0,0.0,0.0,0.0,0.0,0.0,0.0,0.0,0.0,0.0,0.0,-1.6558,-1.6838,-1.7948,-1.8533,-1.8591,-1.8667,-1.8732,-1.8734,-1.7424,-1.6737,0.0,0.0,0.0,0.0,0.0,0.0,0.0,0.0,0.0,0.0,0.0,0.0,0.0,0.0,0.0,0.0,0.0,0.0,0.0,0.0,0.0,0.0,0.0,0.0,0.0,0.0,0.0,0.0,-1.4954,-1.5984,-1.7762,0.0,0.0,0.0,0.0,0.0,0.0,0.0,0.0,0.0,0.0,-2.3004,-2.2089,-2.2056,-2.1842,-2.0923,-2.1132,-2.1276,-2.0923,-2.1412,-2.1738,-2.1453,0.0,0.0,0.0,0.0,0.0,0.0,0.0,0.0,0.0,0.0,0.0,0.0,0.0,0.0,0.0,0.0,0.0,0.0,0.0,0.0,0.0,0.0,0.0,0.0,0.0,0.0,0.0,0.0,0.0,0.0,-1.4198,0.0,0.0,0.0,0.0,0.0,0.0,0.0,0.0,0.0,0.0,0.0,0.0,0.0,0.0,0.0,0.0,0.0,0.0,0.0,0.0,0.0,0.0,-1.6872,-1.7831,-1.8279,-1.861,-1.8769,-1.861,-1.8556,-1.8662,-1.7277,-1.6592,-1.6743,0.0,0.0,0.0,0.0,0.0,0.0,0.0,0.0,0.0,0.0,0.0,0.0,0.0,0.0,0.0,0.0,0.0,0.0,0.0,0.0,0.0,0.0,0.0,0.0,0.0,0.0,-1.6137,-1.6157,-1.6864,0.0,0.0,0.0,0.0,0.0,0.0,0.0,0.0,0.0,0.0,-2.3899,-2.3666,-2.3063,-2.2968,-2.2671,-2.1793,-2.1082,-2.0847,-2.1582,-2.1807,-2.1584,0.0,0.0,0.0,0.0,0.0,0.0,0.0,0.0,0.0,0.0,0.0,0.0,0.0,0.0,0.0,0.0,0.0,0.0,0.0,0.0,0.0,0.0,0.0,0.0,0.0,0.0,0.0,-1.5374,-1.4943,0.0,0.0,0.0,0.0,0.0,0.0,0.0,0.0,0.0,0.0,0.0,-1.709,-1.8153,0.0,0.0,0.0,0.0,0.0,0.0,0.0,0.0,0.0,0.0,0.0,0.0,-1.6784,-1.7567,-1.8306,-1.8741,-1.8779,-1.8288,-1.8055,-1.8089,-1.6622,-1.5651,-1.5294,0.0,0.0,0.0,0.0,0.0,0.0,0.0,0.0,0.0,0.0,0.0,0.0,0.0,0.0,0.0,0.0,0.0,0.0,0.0,0.0,0.0,0.0,0.0,0.0,0.0,-1.708,0.0,0.0,0.0,0.0,0.0,0.0,0.0,0.0,0.0,0.0,0.0,-2.3172,-2.3731,-2.4523,-2.4678,-2.3733,-2.3753,-2.3547,0.0,0.0,0.0,0.0,0.0,0.0,0.0,0.0,0.0,0.0,0.0,0.0,0.0,0.0,-2.7005,-2.5907,-2.4993,-2.4413,-2.4413,0.0,0.0,0.0,0.0,0.0,0.0,0.0,0.0,0.0,0.0,0.0,0.0,0.0,0.0,-1.6727,0.0,-1.6211,0.0,0.0,0.0,0.0,0.0,0.0,0.0,0.0,-1.899,-1.9123,-1.8817,-1.9842,-1.9772,0.0,-1.922,-1.9123,0.0,0.0,0.0,0.0,0.0,0.0,0.0,0.0,-1.7502,-1.8038,-1.8887,-1.904,-1.8449,-1.8021,-1.7679,-1.7442,-1.6242,-1.5232,-1.4524,-1.4497,-1.4497,0.0,0.0,0.0,0.0,0.0,0.0,0.0,0.0,0.0,0.0,0.0,0.0,0.0,0.0,0.0,0.0,0.0,0.0,0.0,0.0,0.0,0.0,0.0,-1.79,0.0,0.0,0.0,0.0,0.0,0.0,0.0,0.0,0.0,-2.195,-2.3063,-2.3967,-2.4222,-2.4953,-2.5101,-2.4138,0.0,0.0,0.0,0.0,0.0,0.0,0.0,-2.3719,-2.4302,-2.4452,-2.4824,-2.5967,-2.6865,-2.7334,-2.7019,0.0,0.0,-2.6803,-2.5871,-2.5283,-2.5292,-2.5291,-2.5005,-2.417,-2.4684,-2.4953,0.0,0.0,0.0,0.0,0.0,0.0,0.0,0.0,-1.8042,-1.8024,0.0,-1.7772,0.0,0.0,0.0,0.0,0.0,-1.8675,0.0,0.0,-2.1307,-2.1769,-2.2029,-2.1965,-2.1909,-2.19,-2.1791,-2.1788,-2.1562,-1.8607,0.0,0.0,0.0,0.0,0.0,0.0,-1.9044,-1.9244,-1.9909,-1.9503,-1.7996,-1.7815,-1.7427,-1.6734,-1.603,-1.5288,-1.4543,-1.4543,-1.4554,-1.4554,-1.4543,0.0,0.0,0.0,0.0,0.0,0.0,0.0,0.0,0.0,0.0,0.0,0.0,0.0,0.0,0.0,0.0,0.0,0.0,0.0,0.0,-1.9187,0.0,0.0,0.0,0.0,0.0,0.0,0.0,0.0,0.0,0.0,-2.3692,-2.3807,-2.4197,-2.5156,0.0,0.0,0.0,0.0,-2.4244,-2.4234,-2.3589,-2.3392,-2.4135,-2.4267,-2.4329,-2.4442,0.0,0.0,-2.6937,-2.7631,-2.7849,-2.7015,-2.7469,-2.8135,-2.8114,-2.7355,-2.6864,-2.6894,-2.6774,-2.6566,-2.5935,-2.614,-2.6295,-2.133,0.0,0.0,0.0,0.0,-2.0354,-2.04,-2.0549,-2.0541,-2.0246,-1.9749,-1.9709,0.0,0.0,0.0,0.0,0.0,0.0,-2.1082,-2.1594,-2.1743,-2.1918,-2.2118,-2.2694,-2.2651,-2.2073,-2.2454,-2.2334,-2.17,-2.0785,-1.9988,-1.9293,0.0,0.0,0.0,0.0,-1.9816,-2.0294,-2.0137,-1.9848,-1.9497,-1.7969,-1.6552,-1.5269,-1.4988,-1.4738,-1.4497,-1.505,-1.5362,-1.5353,-1.5353,0.0,0.0,0.0,0.0,0.0,0.0,0.0,0.0,0.0,0.0,0.0,0.0,0.0,0.0,0.0,0.0,0.0,0.0,0.0,-1.9776,-1.9759,-1.9964,0.0,0.0,0.0,0.0,0.0,0.0,0.0,0.0,0.0,-2.4566,-2.4759,-2.4962,0.0,0.0,-2.5117,-2.5068,-2.4973,-2.4944,-2.5041,-2.495,0.0,0.0,-2.4728,-2.4592,-2.5215,-2.5714,-2.6,-2.6009,-2.6221,-2.6292,-2.6026,-2.6169,-2.6344,-2.6383,-2.6693,-2.6875,-2.6887,-2.6423,-2.5947,-2.5713,-2.5896,-2.5948,-2.3096,-2.2584,-2.189,-2.1726,-2.1952,-2.1961,-2.2045,-2.2199,-2.219,-2.194,-2.1516,-2.1457,-2.1131,-2.0631,-2.0707,0.0,0.0,0.0,-2.2327,-2.2926,-2.2824,-2.2875,-2.3079,-2.3589,-2.3561,-2.3088,-2.3315,-2.3225,-2.2798,-2.2621,-2.2145,-2.137,0.0,0.0,-2.0327,-2.0724,-2.0979,-2.1142,-2.1204,-2.0961,-2.0445,-1.8467,-1.6828,-1.5611,-1.5487,-1.545,-1.546,-1.5922,-1.6178,-1.6188,-1.6169,-1.6041,0.0,0.0,0.0,0.0,0.0,0.0,0.0,0.0,0.0,0.0,0.0,-1.6013,-1.5422,0.0,0.0,0.0,-1.865,-1.9663,-2.0348,-2.0574,0.0,0.0,0.0,0.0,0.0,0.0,0.0,-2.3839,-2.4211,-2.4585,-2.5003,-2.5212,-2.5283,-2.5172,-2.512,-2.5164,-2.5378,0.0,-2.5307,-2.5415,-2.551,-2.5571,-2.5598,-2.5196,-2.5073,-2.558,-2.5632,-2.5605,-2.5609,-2.5605,-2.5607,-2.5603,-2.56,-2.56,-2.5605,-2.6051,-2.6373,-2.6377,-2.5969,-2.5617,-2.5603,-2.5641,-2.5664,-2.433,-2.4229,-2.2583,-2.2291,-2.2905,-2.2895,-2.3024,-2.3186,-2.3196,-2.3186,-2.3178,-2.2987,-2.2922,-2.2849,-2.1997,0.0,-2.2997,-2.2829,-2.3364,-2.4464,-2.4257,-2.4275,-2.4509,-2.45,-2.4509,-2.45,-2.421,-2.4201,-2.4393,-2.397,-2.3506,-2.2978,-2.2052,-2.145,-2.1268,-2.2175,-2.2388,-2.1862,-2.2689,-2.2365,-2.0787,-1.9225,-1.7978,-1.7104,-1.7036,-1.6963,-1.6899,-1.6954,-1.7,-1.7,-1.7,-1.6652,-1.594,0.0,0.0,0.0,0.0,0.0,0.0,0.0,0.0,0.0,0.0,0.0,0.0,0.0,0.0,0.0,-1.8624,0.0,-2.1342,-2.1483,0.0,0.0,0.0,-2.2758,-2.2984,-2.3545,-2.3929,-2.4001,0.0,0.0,-2.5111,-2.5273,-2.5312,-2.5111,-2.5086,-2.5163,-2.5346,-2.5363,-2.5412,-2.5434,-2.5486,-2.5515,-2.5561,-2.5523,-2.5513,-2.5556,-2.557,-2.5579,-2.5592,-2.5598,-2.5595,-2.5605,-2.561,-2.5605,-2.5607,-2.5636,-2.5608,-2.5648,-2.5627,-2.5601,-2.56,-2.5608,-2.5607,-2.4275,-2.422,-2.3796,-2.3704,-2.3851,-2.386,-2.3906,-2.3952,-2.3943,-2.3943,-2.3934,-2.3869,-2.3897,-2.3925,-2.3704,-2.3732,-2.3971,-2.3989,-2.4127,-2.442,-2.4402,-2.4429,-2.4509,-2.4509,-2.4509,-2.4482,-2.4058,-2.3899,-2.3948,-2.3698,-2.3397,-2.3096,-2.3013,-2.2672,-2.2062,-2.2851,-2.3221,-2.3072,-2.2704,-2.1878,-2.0627,-2.0265,-1.9389,-1.7955,-1.7844,-1.7523,-1.6936,-1.7495,-1.7816,-1.7821,-1.7812,-1.7748,-1.7527,-1.6371,0.0,0.0,0.0,0.0,0.0,0.0,0.0,0.0,0.0,-1.7585,-1.6158,0.0,-1.9459,0.0,-2.1003,-2.1783,-2.1387,-2.1943,0.0,0.0,-2.3558,-2.3767,-2.4596,-2.4765,-2.4849,-2.4961,-2.5127,-2.5214,-2.5128,-2.5139,-2.5105,-2.4965,-2.5037,-2.5128,-2.5164,-2.5173,-2.5174,-2.5206,-2.5327,-2.5425,-2.5446,-2.5444,-2.5446,-2.5439,-2.5449,-2.5454,-2.5506,-2.5522,-2.5548,-2.5587,-2.5603,-2.5607,-2.5611,-2.5601,-2.5601,-2.5608,-2.5604,-2.5604,-2.5605,-2.5609,-2.5606,-2.3171,-2.3152,-2.3511,-2.3667,-2.3704,-2.4053,-2.419,-2.4199,-2.4199,-2.42,-2.42,-2.42,-2.4228,-2.4256,-2.4257,-2.4266,-2.4266,-2.4312,-2.4358,-2.4358,-2.4393,-2.4411,-2.4393,-2.4076,-2.4112,-2.4419,-2.3824,-2.373,-2.4097,-2.3998,-2.3876,-2.3732,-2.3876,-2.366,-2.315,-2.3442,-2.3642,-2.3642,-2.337,-2.271,-2.1682,-2.1336,-2.0562,-1.9286,-1.8845,-1.8427,-1.7981,-1.8399,-1.8638,-1.8638,-1.8629,-1.8463,-1.8115,-1.7261,-1.661,0.0,0.0,0.0,0.0,0.0,0.0,0.0,0.0,0.0,0.0,0.0,-2.0685,-2.1232,-2.1937,-2.2422,-2.2536,-2.3015,-2.3649,-2.4494,-2.4482,-2.4661,-2.5226,-2.5171,-2.5126,-2.52,-2.5212,-2.5191,-2.5105,-2.5084,-2.507,-2.4987,-2.5049,-2.5084,-2.5084,-2.5084,-2.5139,-2.5216,-2.5319,-2.5395,-2.5393,-2.5393,-2.5387,-2.5394,-2.5387,-2.5405,-2.5433,-2.5458,-2.5463,-2.5503,-2.5517,-2.5507,-2.5511,-2.5505,-2.5519,-2.551,-2.55,-2.5521,-2.5595,-2.5604,-2.561,-2.1761,-2.1744,-2.2539,-2.2868,-2.2914,-2.3593,-2.4006,-2.4199,-2.4199,-2.4199,-2.4199,-2.4199,-2.4199,-2.4199,-2.42,-2.4201,-2.4201,-2.4266,-2.4294,-2.4294,-2.4284,-2.4238,-2.4127,-2.3497,-2.3506,-2.4042,-2.3347,-2.3447,-2.428,-2.4263,-2.4273,-2.4384,-2.442,-2.4303,-2.4069,-2.3919,-2.3846,-2.3846,-2.4172,-2.3961,-2.3215,-2.248,-2.161,-2.0634,-1.9971,-1.951,-1.9308,-1.9396,-1.9415,-1.9308,-1.9399,-1.9078,-1.8298,-1.8175,-1.7798,0.0,-1.7096,0.0,0.0,0.0,0.0,0.0,0.0,0.0,0.0,-2.069,-2.1991,-2.2554,-2.2335,-2.2698,-2.3992,-2.4255,-2.4584,-2.5235,-2.5303,-2.5303,-2.5264,-2.5171,-2.5091,-2.5082,-2.5077,-2.507,-2.507,-2.5082,-2.5061,-2.5049,-2.5043,-2.5024,-2.5061,-2.5105,-2.5183,-2.5337,-2.5328,-2.5272,-2.5317,-2.5327,-2.5338,-2.536,-2.536,-2.537,-2.539,-2.5399,-2.5397,-2.5397,-2.5405,-2.5404,-2.539,-2.5403,-2.5395,-2.5404,-2.5404,-2.5437,-2.5541,-2.5557,-2.5573,-2.1512,-2.1141,-2.1768,-2.2015,-2.2042,-2.2189,-2.2988,-2.4199,-2.4199,-2.4199,-2.4199,-2.4199,-2.4199,-2.4199,-2.4209,-2.42,-2.42,-2.421,-2.422,-2.4229,-2.4257,-2.3952,-2.3341,-2.3175,-2.2842,-2.2371,-2.2033,-2.231,-2.3124,-2.2953,-2.3213,-2.384,-2.3899,-2.3899,-2.3878,0.0,0.0,0.0,-2.4065,-2.3973,-2.375,-2.3584,-2.2781,-2.1297,-2.1286,0.0,-1.9415,-1.9923,-1.9978,-1.9363,-1.9932,0.0,0.0,0.0,0.0,0.0,0.0,0.0,0.0,0.0,0.0,0.0,-2.147,-2.0966,-1.9899,-2.2087,-2.3304,-2.2708,-2.3823,-2.4491,-2.4202,-2.4742,-2.5177,-2.5345,-2.534,-2.5253,-2.5139,-2.5117,-2.5058,-2.4942,-2.4942,-2.4932,-2.4936,-2.4932,-2.4932,-2.4942,-2.4832,-2.4828,-2.4929,-2.5115,-2.5182,-2.5037,-2.4984,-2.4962,-2.5053,-2.5082,-2.5134,-2.5205,-2.5227,-2.5258,-2.5311,-2.5321,-2.5332,-2.538,-2.5389,-2.5397,-2.538,-2.5398,-2.5378,-2.5387,-2.5387,-2.5395,-2.543,-2.5429,-2.5439,-2.0404,0.0,-2.0871,-2.1152,0.0,-2.1628,-2.2271,-2.3024,-2.3437,-2.3823,-2.419,-2.4199,-2.4199,-2.4208,-2.4065,-2.3996,-2.3996,-2.3989,-2.393,-2.3803,-2.3607,-2.3224,-2.269,-2.1935,-2.1606,-2.1676,-2.1223,-2.1697,-2.2932,-2.285,-2.3214,-2.4048,-2.4057,-2.4057,-2.4048,-2.4125,-2.4162,-2.42,-2.4125,-2.4086,-2.4039,-2.3663,-2.3049,-2.2236,0.0,0.0,0.0,0.0,0.0,0.0,0.0,0.0,0.0,0.0,0.0,-1.9938,-1.9731,-1.9949,-2.0661,-2.076,-2.1157,-2.2025,-2.2479,-2.2417,-2.1774,-2.3187,-2.4034,-2.3885,-2.4784,-2.5185,-2.4809,-2.5108,-2.5359,-2.5367,-2.5322,-2.5234,-2.5128,-2.5084,-2.5037,-2.4919,-2.4902,-2.4919,-2.4997,-2.4874,-2.4842,-2.4888,-2.4803,-2.4723,-2.4794,-2.4915,-2.4945,-2.4883,-2.4861,-2.4846,-2.4968,-2.4977,-2.5006,-2.5146,-2.521,-2.5203,-2.5248,-2.5248,-2.5249,-2.5288,-2.5291,-2.5301,-2.5299,-2.5301,-2.5302,-2.5292,-2.5302,-2.5252,-2.5191,-2.5274,-2.5387,-1.9289,-1.9374,-2.0012,-2.0301,-2.034,-2.1051,-2.1437,-2.162,0.0,0.0,0.0,-2.3979,-2.4061,-2.4161,-2.3958,-2.3858,-2.3867,-2.3807,-2.3629,-2.3258,-2.2826,-2.2384,-2.189,-2.0656,-2.0409,-2.1061,-2.045,-2.1036,-2.2641,-2.2771,-2.3252,-2.4044,-2.4238,-2.4294,-2.4303,-2.4238,-2.422,-2.4284,-2.4173,-2.4116,-2.4107,-2.3491,-2.3079,-2.2923,-2.2337,-2.1941,-2.1803,-2.1932,-2.162,-2.0798,-2.1547,-2.1621,-2.082,-2.1428,-2.182,-2.1803,-2.1923,-2.2058,-2.2178,-2.2256,-2.2309,-2.2381,-2.3088,-2.3607,-2.3788,-2.4091,-2.4473,-2.5025,-2.5216,-2.5283,-2.5243,-2.5293,-2.5293,-2.5243,-2.5253,-2.5202,-2.5058,-2.5049,-2.4997,-2.4861,-2.4828,-2.4865,-2.4945,-2.4775,-2.4713,-2.4813,-2.4744,-2.4679,-2.4676,-2.4707,-2.4755,-2.4818,-2.4736,-2.4751,-2.4892,-2.4851,-2.4925,-2.5146,-2.5156,-2.5132,-2.5156,-2.5146,-2.5146,-2.5146,-2.5158,-2.5201,-2.521,-2.517,-2.5168,-2.521,-2.5144,-2.5076,-2.4964,-2.5094,-2.5253,-1.9295,-1.9312,-1.941,-1.944,-1.9399,-1.9584,-2.0039,-2.0734,-2.1611,-2.2409,-2.318,-2.3153,-2.3556,-2.4199,-2.4161,-2.4142,-2.4132,-2.3926,-2.3433,0.0,-2.2482,-2.1718,-2.0599,-2.0364,-2.0025,-1.9616,-1.9315,-1.9718,-2.0697,-2.1407,-2.2145,-2.2986,-2.3851,-2.4257,-2.422,-2.421,-2.421,-2.42,-2.3987,-2.3867,-2.3858,-2.3749,-2.3338,-2.2703,-2.2785,-2.2492,-2.1849,-2.2474,-2.2455,-2.1675,-2.2391,-2.2465,-2.1688,-2.1855,-2.1918,-2.1801,-2.199,-2.2309,-2.2812,-2.297,-2.3282,-2.3842,-2.4168,-2.4429,-2.4606,-2.4716,-2.4841,-2.4932,-2.4952,-2.4962,-2.4949,-2.4984,-2.4997,-2.4981,-2.5058,-2.5043,-2.4808,-2.487,-2.4832,-2.4596,-2.454,-2.4573,-2.4622,-2.4556,-2.4589,-2.4676,-2.4638,-2.4551,-2.4558,-2.4631,-2.4682,-2.4632,-2.4486,-2.4502,-2.4676,-2.4579,-2.4691,-2.5144,-2.4953,-2.4856,-2.4934,-2.4947,-2.4947,-2.4961,-2.5066,-2.5168,-2.5177,-2.5057,-2.5022,-2.5091,-2.4976,-2.4808,-2.4847,-2.4851,-2.4804,-2.0065,-1.9379,-1.9729,-1.9636,-1.92,-1.9235,-1.9442,-1.9799,-2.0199,-2.1093,-2.2191,-2.2246,-2.2722,-2.3455,-2.3339,-2.33,-2.3329,-2.3202,-2.2596,-2.1634,-2.1235,-2.0604,-1.977,-1.9345,-1.9043,-1.8861,-1.8771,-1.9255,-2.0263,-2.0689,-2.1516,-2.2804,-2.3364,-2.3585,-2.3566,-2.3548,-2.3557,-2.3547,-2.3855,-2.4016,-2.4025,-2.4025,-2.3843,-2.3476,-2.3582,-2.3492,-2.3116,-2.3456,-2.329,-2.2484,-2.3235,-2.328,-2.2536,-2.2914,-2.317,-2.3107,-2.3176,-2.3369,-2.3639,-2.3713,-2.387,-2.4173,-2.4266,-2.4364,-2.4482,-2.4712,-2.4785,-2.4693,-2.4761,-2.4842,-2.4846,-2.4836,-2.486,-2.4902,-2.4958,-2.4915,-2.4749,-2.4749,-2.4704,-2.4541,-2.4509,-2.4524,-2.4599,-2.4532,-2.4568,-2.467,-2.4582,-2.45,-2.4509,-2.4558,-2.4573,-2.4497,-2.4393,-2.441,-2.4552,-2.4491,-2.4556,-2.4865,-2.4803,-2.4729,-2.4784,-2.4784,-2.4784,-2.4784,-2.4875,-2.4912,-2.4926,-2.4861,-2.4837,-2.4861,-2.4827,-2.4729,-2.4645,-2.451,-2.4497,-2.1197,-1.9866,-2.0398,-2.0288,-1.9696,-1.9523,-1.955,-1.9659,-1.9359,-1.9978,-2.1189,-2.1316,-2.1799,-2.2557,-2.2387,-2.2309,-2.2327,-2.2267,-2.1593,-2.0499,-2.0085,-1.9641,-1.9169,-1.8591,-1.8426,-1.8593,-1.8535,-1.8998,-1.9822,-2.0074,-2.1007,-2.2502,-2.2694,-2.2731,-2.2721,-2.274,-2.2813,-2.3006,-2.3621,-2.4025,-2.419,-2.4199,-2.4199,-2.4199,-2.419,-2.4199,-2.4199,-2.4199,-2.3923,-2.3361,-2.3858,-2.3923,-2.3343,-2.3858,-2.4199,-2.4199,-2.4199,-2.4199,-2.4199,-2.4199,-2.4199,-2.4199,-2.4209,-2.4201,-2.421,-2.4476,-2.4604,-2.4491,-2.4598,-2.47,-2.4697,-2.4702,-2.4732,-2.4804,-2.4832,-2.4799,-2.4692,-2.4676,-2.4645,-2.4534,-2.4509,-2.4532,-2.4615,-2.4566,-2.4541,-2.4624,-2.4575,-2.45,-2.4482,-2.4492,-2.4447,-2.4375,-2.4303,-2.4348,-2.447,-2.4409,-2.4469,-2.4651,-2.4629,-2.4587,-2.461,-2.4626,-2.4635,-2.4632,-2.4682,-2.4723,-2.4698,-2.4648,-2.4657,-2.4698,-2.4645,-2.453,-2.44,-2.4303,-2.4275,-2.2685,-2.1407,-2.1398,-2.137,-2.1143,-2.0499,-2.059,-2.0998,-1.9783,-1.9584,-2.0472,-2.0488,-2.0987,-2.1644,-2.1698,-2.1606,-2.153,-2.1258,-2.0664,-1.9867,-1.9694,-1.935,-1.8856,-1.8742,-1.8825,-1.8886,-1.8632,-1.8577,-1.8796,-1.9463,-2.0416,-2.1534,-2.1816,-2.1886,-2.1896,-2.1896,-2.2263,-2.2978,-2.3088,-2.3465,-2.4153,-2.4199,-2.4199,-2.4199,-2.4199,-2.4199,-2.4199,-2.4199,-2.4162,-2.4107,-2.4144,-2.4162,-2.4098,-2.4171,-2.4199,-2.4199,-2.4199,-2.4199,-2.4199,-2.4199,-2.4199,-2.4199,-2.4209,-2.4209,-2.4209,-2.4238,-2.4284,-2.4303,-2.4339,-2.4393,-2.4419,-2.4437,-2.4479,-2.4566,-2.467,-2.466,-2.4566,-2.4631,-2.4654,-2.4517,-2.4509,-2.4517,-2.4534,-2.4517,-2.4517,-2.4515,-2.4507,-2.4465,-2.442,-2.4421,-2.4348,-2.4284,-2.4266,-2.4312,-2.4382,-2.4312,-2.4366,-2.4587,-2.4428,-2.4357,-2.44,-2.4442,-2.4414,-2.4238,-2.4459,-2.4514,-2.4432,-2.455,-2.4362,-2.4253,-2.4221,-2.422,-2.4209,-2.4126,-2.4108,-2.3449,-2.2817,-2.2395,-2.1922,-2.1469,-2.1142,-2.1178,-2.1378,-2.063,-2.0474,-2.0732,-2.0626,-2.0883,-2.1336,-2.0869,-2.0877,-2.1207,-2.0599,-1.9846,-1.9076,-1.8904,-1.8665,-1.8354,-1.8459,-1.85,-1.848,-1.8437,-1.8465,-1.8656,-1.9438,-2.0204,-2.0735,-2.0861,-2.0957,-2.1025,-2.1024,-2.1446,-2.2272,-2.2731,-2.3326,-2.4041,-2.417,-2.4199,-2.4199,-2.4199,-2.4199,-2.4199,-2.418,-2.4142,-2.4125,-2.4104,-2.4104,-2.4153,-2.4152,-2.4151,-2.419,-2.4199,-2.4199,-2.4199,-2.4199,-2.4199,-2.4199,-2.4199,-2.4199,-2.4199,-2.4199,-2.4209,-2.4238,-2.4228,-2.4275,-2.4349,-2.4349,-2.4394,-2.4464,-2.4558,-2.4566,-2.4517,-2.4551,-2.4558,-2.45,-2.4509,-2.4509,-2.4509,-2.4509,-2.4481,-2.4445,-2.4446,-2.4411,-2.4357,-2.4339,-2.4303,-2.422,-2.4229,-2.4247,-2.4284,-2.4247,-2.4266,-2.433,-2.4284,-2.4238,-2.4229,-2.4284,-2.4164,-2.3675,-2.3663,-2.3492,-2.2938,-2.2967,-2.2898,-2.3088,-2.3432,-2.3382,-2.2905,-2.3171,-2.3409,-2.3801,-2.3715,-2.3218,-2.2663,-2.2138,-2.1903,-2.1948,-2.2019,-2.15,-2.1271,-2.1327,-2.096,-2.0952,-2.1123,-2.051,-2.0399,-2.0554,-1.9964,-1.9219,-1.85,-1.8339,-1.8217,-1.8087,-1.8217,-1.8258,-1.8192,-1.8333,-1.8456,-1.8635,-1.9258,-1.9758,-1.992,-1.9911,-1.9981,-2.0156,-2.0122,-2.0534,-2.1437,-2.22,-2.2941,-2.3567,-2.3935,-2.4074,-2.4133,-2.417,-2.418,-2.418,-2.4142,-2.4122,-2.4133,-2.4065,-2.4054,-2.4103,-2.4065,-2.4094,-2.418,-2.417,-2.4161,-2.4199,-2.4199,-2.417,-2.4103,-2.4151,-2.4161,-2.4132,-2.416,-2.4199,-2.419,-2.4199,-2.4219,-2.4275,-2.4284,-2.4348,-2.4456,-2.4482,-2.4509,-2.4509,-2.4509,-2.4509,-2.4509,-2.4509,-2.45,-2.4482,-2.4465,-2.4437,-2.4399,-2.4374,-2.4321,-2.4247,-2.4209,-2.422,-2.4048,-2.4087,-2.4209,-2.4209,-2.4209,-2.4199,-2.417,-2.4142,-2.4002,-2.3913,-2.3821,-2.349,-2.2749,-2.2658,-2.2465,-2.2109,-2.1808,-2.1652,-2.1798,-2.2136,-2.242,-2.208,-2.2373,-2.2575,-2.3807,-2.3786,-2.3759,-2.3657,-2.3623,-2.2924,-2.3014,-2.3362,-2.2124,-2.1705,-2.1919,-2.1317,-2.1146,-2.1369,-2.0944,-2.0223,-1.9517,-1.9391,-1.8862,-1.8138,-1.8205,-1.8299,-1.8299,-1.8299,-1.829,-1.8258,-1.8345,-1.8496,-1.8734,-1.8833,-1.8905,-1.907,-1.9004,-1.9064,-1.934,-1.9252,-1.957,-2.0616,-2.1402,-2.2072,-2.2605,-2.3325,-2.3762,-2.3885,-2.4045,-2.4094,-2.4132,-2.4151,-2.4179,-2.42,-2.41,-2.406,-2.4076,-2.4028,-2.4016,-2.4094,-2.4103,-2.4122,-2.419,-2.419,-2.4084,-2.3908,-2.4034,-2.4094,-2.3905,-2.4065,-2.417,-2.4199,-2.4189,-2.4199,-2.4154,-2.4238,-2.4339,-2.4421,-2.4465,-2.4509,-2.4509,-2.449,-2.4509,-2.45,-2.4482,-2.4456,-2.4412,-2.4403,-2.4365,-2.43,-2.4292,-2.419,-2.3985,-2.4058,-2.3939,-2.3717,-2.3837,-2.4181,-2.419,-2.4199,-2.4199,-2.4115,-2.3947,-2.3655,-2.3201,-2.2792,-2.2289,-2.1841,-2.1698,-2.1514,-2.1306,-2.1188,-2.1093,-2.1159,-2.1297,-2.1407,-2.1052,-2.1568,-2.1743,-2.3567,-2.3616,-2.3603,-2.3531,-2.3396,-2.3115,-2.3073,-2.3071,-2.2395,-2.2235,-2.2413,-2.191,-2.1797,-2.2079,-2.1796,-2.1045,-2.0013,-1.935,-1.8694,-1.8091,-1.8005,-1.7962,-1.7984,-1.8086,-1.8116,-1.807,-1.8187,-1.8368,-1.8535,-1.8573,-1.8734,-1.8931,-1.8869,-1.8896,-1.9025,-1.8895,-1.93,-2.0209,-2.0563,-2.0977,-2.1655,-2.241,-2.2761,-2.2709,-2.3388,-2.3867,-2.4054,-2.4007,-2.3965,-2.3841,-2.3759,-2.3674,-2.3606,-2.3678,-2.3837,-2.4007,-2.4074,-2.4132,-2.4132,-2.4016,-2.3917,-2.3825,-2.3871,-2.3901,-2.3873,-2.4036,-2.4113,-2.4005,-2.4103,-2.4083,-2.3837,-2.4039,-2.4321,-2.4394,-2.4465,-2.4509,-2.4482,-2.4456,-2.443,-2.4439,-2.4403,-2.4358,-2.433,-2.4339,-2.4265,-2.409,-2.4044,-2.3905,-2.3696,-2.3655,-2.3613,-2.3482,-2.3553,-2.3701,-2.3701,-2.4025,-2.4162,-2.3996,-2.3784,-2.3343,-2.2904,-2.2255,-2.1735,-2.0971,-2.0735,-2.0444,-2.0214,-1.9912,-1.9952,-1.9971,-2.0144,-2.0353,-1.993,-2.0454,-2.0608,-2.3286,-2.3374,-2.331,-2.3197,-2.3082,-2.3074,-2.2974,-2.2806,-2.2626,-2.2573,-2.2554,-2.2228,-2.2178,-2.226,-2.2143,-2.1571,-2.0568,-1.9891,-1.9175,-1.8416,-1.8464,-1.8498,-1.8521,-1.8648,-1.8534,-1.8254,-1.8177,-1.8299,-1.8476,-1.8544,-1.8733,-1.8975,-1.8798,-1.8807,-1.8905,-1.877,-1.9037,-1.9613,-1.9864,-2.0209,-2.0661,-2.1321,-2.1608,-2.1618,-2.2473,-2.3302,-2.3789,-2.3905,-2.3825,-2.3615,-2.3535,-2.3467,-2.3381,-2.3435,-2.3593,-2.3855,-2.3935,-2.3937,-2.3887,-2.3816,-2.3732,-2.3611,-2.3719,-2.3768,-2.3707,-2.3919,-2.396,-2.388,-2.384,-2.3763,-2.358,-2.378,-2.4087,-2.4201,-2.4348,-2.4429,-2.4446,-2.4393,-2.4358,-2.4358,-2.4247,-2.421,-2.4172,-2.4087,-2.394,-2.3759,-2.3737,-2.3637,-2.3392,-2.3376,-2.3341,-2.3224,-2.3323,-2.3387,-2.3418,-2.3646,-2.3816,-2.368,-2.3098,-2.2759,-2.2254,-2.1635,-2.097,-2.0208,-1.9713,-1.9372,-1.9057,-1.8731,-1.8668,-1.8704,-1.9034,-1.9402,-1.9279,-1.9316,-1.9549,-2.3041,-2.3149,-2.2915,-2.2806,-2.2755,-2.2755,-2.2763,-2.2686,-2.2686,-2.2467,-2.232,-2.2248,-2.2104,-2.1978,-2.1966,-2.1531,-2.0965,-2.0972,-2.0264,-1.9037,-1.952,-1.9824,-1.9807,-1.9782,-1.9417,-1.8799,-1.8431,-1.8394,-1.8622,-1.865,-1.8761,-1.8905,-1.8668,-1.8677,-1.9002,-1.8658,-1.8572,-1.8863,-1.9399,-1.9615,-1.9456,-2.0116,-2.0492,-2.0515,-2.136,-2.2378,-2.337,-2.3759,-2.3819,-2.3571,-2.3486,-2.3495,-2.3389,-2.3271,-2.331,-2.354,-2.3649,-2.3597,-2.3486,-2.3637,-2.3522,-2.3313,-2.3508,-2.3633,-2.3481,-2.3643,-2.3777,-2.3694,-2.3549,-2.3387,-2.3396,-2.3464,-2.364,-2.3849,-2.4087,-2.422,-2.4257,-2.4284,-2.4284,-2.422,-2.4077,-2.3976,-2.3867,-2.3735,-2.356,-2.3474,-2.3415,-2.3357,-2.3151,-2.3186,-2.3155,-2.2951,-2.3009,-2.317,-2.3194,-2.3242,-2.3291,-2.324,-2.2451,-2.1855,-2.1218,-2.0602,-1.9974,-1.9264,-1.9065,-1.8756,-1.8603,-1.8336,-1.8345,-1.842,-1.8568,-1.8663,-1.8709,-1.8785,-1.8791,-2.3,-2.2927,-2.2833,-2.2537,-2.22,-2.2172,-2.2022,-2.1761,-2.1752,-2.1849,-2.1969,-2.1899,-2.1936,-2.2101,-2.1986,-2.1528,-2.0966,-2.1426,-2.094,-1.9798,-1.9832,-1.9984,-1.9967,-1.9993,-1.9638,-1.8993,-1.8799,-1.862,-1.8513,-1.8511,-1.865,-1.8861,-1.8638,-1.8563,-1.8761,-1.8385,-1.8243,-1.8417,-1.86,-1.8621,-1.8534,-1.9216,-1.953,-1.9508,-2.0355,-2.1298,-2.2153,-2.3146,-2.344,-2.307,-2.2994,-2.2951,-2.2944,-2.2885,-2.296,-2.3212,-2.3262,-2.3309,-2.3321,-2.3268,-2.323,-2.3137,-2.3228,-2.3277,-2.3223,-2.3389,-2.3453,-2.3371,-2.328,-2.3193,-2.3019,-2.3168,-2.3357,-2.3588,-2.3717,-2.3824,-2.3839,-2.3789,-2.3716,-2.3678,-2.3629,-2.3588,-2.3579,-2.3468,-2.337,-2.3271,-2.3218,-2.3112,-2.2929,-2.2928,-2.291,-2.2756,-2.2893,-2.2915,-2.2802,-2.2635,-2.2527,-2.2312,-2.1647,-2.1105,-2.0421,-1.9722,-1.9048,-1.8691,-1.848,-1.8316,-1.8138,-1.8078,-1.8143,-1.8121,-1.824,-1.8253,-1.823,-1.8266,-1.8368,-2.2868,-2.2536,-2.2463,-2.215,-2.1691,-2.1683,-2.154,-2.1317,-2.1285,-2.1464,-2.1601,-2.1534,-2.1694,-2.1953,-2.1857,-2.1608,-2.1291,-2.1728,-2.1436,-2.0677,-2.0694,-2.0748,-2.0716,-2.0499,-2.0238,-1.9765,-1.9493,-1.9231,-1.8995,-1.907,-1.9196,-1.9212,-1.8935,-1.8699,-1.861,-1.8234,-1.8074,-1.8133,-1.8121,-1.8052,-1.8074,-1.8428,-1.8609,-1.8636,-1.9464,-2.0153,-2.0656,-2.1715,-2.2505,-2.2669,-2.2641,-2.2494,-2.2324,-2.247,-2.2703,-2.2935,-2.3,-2.3016,-2.3019,-2.3011,-2.2961,-2.2936,-2.3033,-2.3111,-2.3122,-2.3232,-2.3212,-2.3144,-2.3029,-2.292,-2.279,-2.2859,-2.3061,-2.317,-2.3401,-2.3521,-2.352,-2.3487,-2.3463,-2.3449,-2.3396,-2.3382,-2.3382,-2.328,-2.3194,-2.3084,-2.3052,-2.2994,-2.2833,-2.279,-2.2756,-2.2756,-2.2782,-2.2652,-2.2324,-2.2073,-2.1772,-2.1333,-2.0798,-2.0402,-1.9899,-1.9164,-1.8489,-1.8438,-1.8296,-1.8222,-1.8091,-1.8044,-1.8035,-1.8022,-1.797,-1.8057,-1.8104,-1.8091,-1.8125,-2.2684,-2.2135,-2.1899,-2.1661,-2.134,-2.1309,-2.1285,-2.1254,-2.1254,-2.1294,-2.1285,-2.1309,-2.1419,-2.1597,-2.1612,-2.1615,-2.1759,-2.1718,-2.1726,-2.167,-2.1807,-2.1913,-2.1877,-2.1573,-2.127,-2.0906,-2.0374,-2.0001,-1.9708,-1.9883,-2.009,-1.9459,-1.9176,-1.9028,-1.8507,-1.815,-1.7966,-1.7936,-1.7927,-1.7892,-1.7816,-1.7836,-1.787,-1.7904,-1.8699,-1.9224,-1.9488,-2.0323,-2.1305,-2.2263,-2.2194,-2.2008,-2.1773,-2.2088,-2.2542,-2.2729,-2.2842,-2.2738,-2.2632,-2.279,-2.2877,-2.2703,-2.2893,-2.3085,-2.303,-2.3058,-2.305,-2.3029,-2.2859,-2.272,-2.2712,-2.2738,-2.2756,-2.2773,-2.3098,-2.3287,-2.3361,-2.332,-2.3298,-2.3344,-2.3274,-2.3199,-2.3238,-2.3077,-2.297,-2.2953,-2.291,-2.2893,-2.2892,-2.2859,-2.2824,-2.2721,-2.2513,-2.2091,-2.1677,-2.1454,-2.1135,-2.0537,-2.0067,-1.9746,-1.9386,-1.8709,-1.8272,-1.8227,-1.813,-1.81,-1.8012,-1.7926,-1.7895,-1.7886,-1.7895,-1.797,-1.7948,-1.7895,-1.7819,-2.3085,-2.2524,-2.2195,-2.1675,-2.1183,-2.1159,-2.1055,-2.0917,-2.0917,-2.103,-2.1127,-2.1151,-2.1294,-2.1508,-2.1412,-2.1443,-2.153,-2.1497,-2.1542,-2.1672,-2.1754,-2.2016,-2.236,-2.2649,-2.22,-2.1304,-2.0923,-2.0357,-1.9363,-1.9478,-1.9209,-1.8671,-1.8556,-1.8392,-1.8278,-1.8078,-1.7944,-1.7922,-1.7892,-1.7869,-1.7811,-1.7789,-1.7789,-1.7828,-1.8082,-1.8718,-1.9605,-2.0543,-2.0781,-2.0713,-2.1256,-2.1449,-2.1343,-2.191,-2.2335,-2.2432,-2.2479,-2.2497,-2.2542,-2.2561,-2.2624,-2.2694,-2.272,-2.2781,-2.2799,-2.2816,-2.279,-2.2808,-2.2738,-2.2685,-2.2712,-2.2712,-2.272,-2.2773,-2.2884,-2.2925,-2.2925,-2.2894,-2.2903,-2.2952,-2.2935,-2.3003,-2.3028,-2.3011,-2.2919,-2.2953,-2.2936,-2.2902,-2.2884,-2.2702,-2.2591,-2.2148,-2.1821,-2.1407,-2.1022,-2.0832,-2.0429,-1.9774,-1.9375,-1.9168,-1.8819,-1.8361,-1.8168,-1.8125,-1.7974,-1.7912,-1.7783,-1.7689,-1.7689,-1.7712,-1.762,-1.7574,-1.7597,-1.7574,-1.7472,-2.3015,-2.2483,-2.1955,-2.1432,-2.0941,-2.0876,-2.0794,-2.0687,-2.0695,-2.0769,-2.0909,-2.0941,-2.1054,-2.1295,-2.1255,-2.1254,-2.1341,-2.1325,-2.1427,-2.1646,-2.2076,-2.2253,-2.2328,-2.268,-2.2423,-2.1716,-2.1338,-2.0738,-2.0035,-1.9619,-1.9149,-1.878,-1.8423,-1.8283,-1.8208,-1.7992,-1.7839,-1.7878,-1.7847,-1.7825,-1.7803,-1.7789,-1.7789,-1.778,-1.7797,-1.8287,-1.9039,-1.9528,-1.9646,-1.9697,-2.0247,-2.0695,-2.0754,-2.1422,-2.1955,-2.2262,-2.233,-2.2377,-2.2428,-2.2285,-2.2287,-2.2486,-2.2461,-2.2349,-2.2432,-2.2499,-2.2455,-2.2326,-2.2445,-2.249,-2.2517,-2.2615,-2.272,-2.2738,-2.273,-2.2703,-2.2781,-2.2799,-2.2808,-2.2842,-2.2876,-2.2919,-2.3028,-2.3011,-2.2995,-2.2995,-2.297,-2.2944,-2.2893,-2.2573,-2.2116,-2.159,-2.0982,-2.0448,-1.9997,-1.9726,-1.9438,-1.8826,-1.8677,-1.8478,-1.8374,-1.8048,-1.7996,-1.7922,-1.7803,-1.7689,-1.7557,-1.7455,-1.7432,-1.7384,-1.7248,-1.7248,-1.7321,-1.7297,-1.7191,-2.2867,-2.2391,-2.1706,-2.1158,-2.0842,-2.0686,-2.0678,-2.0527,-2.0535,-2.061,-2.0718,-2.0718,-2.0843,-2.1079,-2.1063,-2.1087,-2.1078,-2.1166,-2.1356,-2.1675,-2.2131,-2.2355,-2.2003,-2.2408,-2.2391,-2.2062,-2.1556,-2.1262,-2.0864,-2.0374,-1.9761,-1.9172,-1.8894,-1.8583,-1.8164,-1.7883,-1.7811,-1.7811,-1.7811,-1.7811,-1.778,-1.7789,-1.7789,-1.7805,-1.8022,-1.7924,-1.8017,-1.8124,-1.8352,-1.8758,-1.9478,-1.9833,-1.9968,-2.0636,-2.1398,-2.1966,-2.2101,-2.2144,-2.2341,-2.1908,-2.1738,-2.2167,-2.1859,-2.167,-2.1961,-2.2082,-2.2113,-2.1928,-2.2031,-2.2153,-2.2189,-2.2409,-2.2499,-2.2544,-2.2573,-2.2704,-2.2799,-2.2868,-2.2893,-2.2946,-2.2928,-2.3011,-2.3028,-2.3061,-2.3061,-2.2944,-2.2867,-2.2643,-2.2384,-2.1936,-2.1438,-2.0872,-2.0186,-1.9437,-1.9009,-1.8575,-1.8234,-1.7843,-1.7856,-1.7794,-1.8003,-1.7856,-1.7797,-1.7706,-1.7607,-1.7465,-1.7304,-1.7224,-1.7207,-1.7134,-1.7068,-1.7117,-1.7159,-1.706,-1.6968,-2.4027,-2.3417,-2.2853,-2.2168,-2.1459,-2.1362,-2.1092,-2.0652,-2.052,-2.0603,-2.0736,-2.0726,-2.0744,-2.086,-2.0868,-2.0852,-2.0886,-2.095,-2.1023,-2.1247,-2.1485,-2.1706,-2.184,-2.244,-2.2635,-2.2261,-2.2062,-2.1697,-2.1236,-2.0839,-2.0255,-1.9127,-1.8924,-1.8553,-1.8022,-1.7881,-1.7789,-1.7789,-1.7789,-1.7789,-1.7789,-1.7789,-1.7789,-1.7822,-1.827,-1.8293,-1.8039,-1.8352,-1.8445,-1.8335,-1.8707,-1.9147,-1.9342,-1.9849,-2.0584,-2.1201,-2.1264,-2.1482,-2.2017,-2.1532,-2.1229,-2.1558,-2.1352,-2.1239,-2.1329,-2.1685,-2.182,-2.1789,-2.184,-2.189,-2.1957,-2.1949,-2.2101,-2.2181,-2.2247,-2.2305,-2.2391,-2.2583,-2.2669,-2.2588,-2.2729,-2.2833,-2.2634,-2.2893,-2.2902,-2.2885,-2.2609,-2.2289,-2.1832,-2.1309,-2.0671,-2.0033,-1.9227,-1.8526,-1.8261,-1.7856,-1.7593,-1.733,-1.7257,-1.7232,-1.7455,-1.7532,-1.7439,-1.7441,-1.7444,-1.7281,-1.7068,-1.706,-1.7018,-1.6968,-1.6917,-1.6942,-1.6909,-1.6833,-1.6815,-2.4296,-2.3576,-2.2985,-2.2194,-2.1492,-2.1438,-2.1085,-2.0576,-2.0433,-2.0467,-2.0569,-2.0592,-2.0642,-2.0774,-2.0726,-2.0703,-2.0834,-2.0901,-2.0998,-2.1135,-2.1262,-2.1356,-2.1513,-2.2062,-2.2252,-2.1995,-2.1692,-2.1378,-2.1097,-2.0752,-2.0136,-1.9452,-1.9113,-1.875,-1.8276,-1.8,-1.7797,-1.7789,-1.7789,-1.7789,-1.7789,-1.7789,-1.7789,-1.7783,-1.8074,-1.8011,-1.7873,-1.8,-1.8009,-1.7952,-1.8183,-1.8572,-1.8844,-1.9159,-1.9689,-2.0352,-2.0644,-2.0669,-2.0973,-2.0651,-2.0331,-2.0764,-2.056,-2.0552,-2.0755,-2.1195,-2.1422,-2.1417,-2.1479,-2.1623,-2.1861,-2.2003,-2.204,-2.2069,-2.2133,-2.2186,-2.226,-2.2456,-2.2587,-2.2458,-2.2569,-2.2588,-2.2606,-2.2643,-2.266,-2.2563,-2.1988,-2.1635,-2.1181,-2.0619,-1.9782,-1.9051,-1.8253,-1.7674,-1.747,-1.7232,-1.7089,-1.6949,-1.6916,-1.6909,-1.6977,-1.7019,-1.7061,-1.7109,-1.7158,-1.6999,-1.6823,-1.6831,-1.6849,-1.6797,-1.6738,-1.6712,-1.6712,-1.6712,-1.6686,-2.4153,-2.3545,-2.2925,-2.217,-2.1412,-2.141,-2.1008,-2.0358,-2.027,-2.0331,-2.0415,-2.0407,-2.053,-2.0678,-2.0608,-2.0634,-2.0783,-2.0924,-2.103,-2.1023,-2.1127,-2.1214,-2.1341,-2.1507,-2.1738,-2.1765,-2.1498,-2.1203,-2.1065,-2.058,-2.0463,-2.0069,-1.958,-1.9276,-1.8971,-1.8506,-1.8211,-1.8118,-1.8099,-1.7946,-1.7814,-1.7789,-1.7789,-1.7675,-1.7616,-1.7626,-1.762,-1.7633,-1.7536,-1.7704,-1.7726,-1.8049,-1.838,-1.8542,-1.8667,-1.9491,-1.9709,-1.9876,-1.9922,-1.9559,-1.9341,-1.9715,-1.9681,-1.9714,-2.0078,-2.0703,-2.1023,-2.1047,-2.1111,-2.1417,-2.1815,-2.1907,-2.2028,-2.204,-2.2061,-2.2032,-2.2027,-2.2082,-2.1921,-2.2361,-2.2422,-2.2443,-2.2313,-2.2264,-2.2271,-2.2133,-2.1494,-2.089,-2.044,-1.9865,-1.901,-1.8361,-1.7625,-1.7302,-1.71,-1.7043,-1.6833,-1.6738,-1.6701,-1.6693,-1.6686,-1.674,-1.6843,-1.6843,-1.6833,-1.672,-1.6675,-1.6693,-1.6667,-1.6615,-1.6615,-1.6633,-1.6641,-1.6615,-1.6615,-2.4335,-2.4304,-2.3999,-2.3174,-2.211,-2.1934,-2.1247,-2.0385,-2.015,-2.0289,-2.0441,-2.0415,-2.0423,-2.0491,-2.0501,-2.0577,-2.0701,-2.081,-2.0852,-2.086,-2.0933,-2.0958,-2.1127,-2.1199,-2.1379,-2.1609,-2.1582,-2.1645,-2.173,-2.1692,-2.1181,-2.082,-2.0535,-2.0243,-1.9807,-1.9555,-1.9075,-1.8678,-1.8576,-1.8331,-1.7962,-1.7769,-1.7635,-1.7479,-1.7361,-1.7393,-1.744,-1.744,-1.744,-1.7472,-1.7455,-1.7411,-1.7453,-1.7535,-1.7889,-1.8277,-1.8393,-1.8687,-1.9058,-1.8651,-1.8445,-1.8629,-1.8913,-1.9137,-1.9483,-2.0183,-2.0591,-2.083,-2.091,-2.1174,-2.1386,-2.1556,-2.1479,-2.1389,-2.1195,-2.0895,-2.077,-2.0655,-2.0793,-2.1521,-2.1931,-2.2127,-2.1739,-2.1486,-2.1404,-2.1088,-2.0495,-1.9915,-1.942,-1.8848,-1.8173,-1.7648,-1.714,-1.6983,-1.6858,-1.6858,-1.6755,-1.6686,-1.6641,-1.6641,-1.6633,-1.6615,-1.6659,-1.6696,-1.6696,-1.6659,-1.6615,-1.6615,-1.6615,-1.6615,-1.6615,-1.6615,-1.6615,-1.6615,-1.6615,-2.4184,-2.4277,-2.4147,-2.3264,-2.2106,-2.1916,-2.1175,-2.0117,-1.9975,-2.0053,-2.02,-2.0208,-2.0223,-2.0258,-2.0235,-2.0331,-2.0475,-2.0603,-2.0662,-2.0703,-2.0752,-2.081,-2.0966,-2.1038,-2.1167,-2.1348,-2.1518,-2.1743,-2.1903,-2.1907,-2.1732,-2.1488,-2.1117,-2.0734,-2.0374,-1.9956,-1.9636,-1.9202,-1.8826,-1.8492,-1.8083,-1.7808,-1.7448,-1.724,-1.7068,-1.7076,-1.7175,-1.7043,-1.7076,-1.7175,-1.7191,-1.7043,-1.6917,-1.6924,-1.7121,-1.7337,-1.744,-1.7547,-1.8042,-1.7706,-1.7773,-1.7615,-1.8067,-1.8343,-1.8567,-1.9138,-1.9886,-2.0218,-2.044,-2.0671,-2.0991,-2.1229,-2.1147,-2.069,-2.0473,-2.0295,-1.9942,-1.9671,-2.0003,-2.052,-2.0577,-2.0632,-2.0644,-2.0444,-2.0408,-2.0029,-1.9507,-1.9007,-1.8518,-1.8086,-1.7621,-1.7426,-1.7084,-1.695,-1.6874,-1.6841,-1.6763,-1.6686,-1.6607,-1.6607,-1.6615,-1.6615,-1.6615,-1.6633,-1.6615,-1.6615,-1.6615,-1.6615,-1.6615,-1.6588,-1.6588,-1.6562,-1.6588,-1.6615,-1.6554,-2.3956,-2.4011,-2.3927,-2.3009,-2.1799,-2.168,-2.0985,-1.9934,-1.9797,-1.9884,-1.9998,-1.9998,-2.0013,-2.0063,-2.0084,-2.0173,-2.0312,-2.0467,-2.0561,-2.0636,-2.0652,-2.0703,-2.0802,-2.0925,-2.1063,-2.1159,-2.1262,-2.1433,-2.1683,-2.1811,-2.1861,-2.1707,-2.1269,-2.1089,-2.0972,-2.0581,-2.0003,-1.9452,-1.887,-1.8478,-1.8036,-1.7593,-1.7191,-1.695,-1.6727,-1.672,-1.69,-1.6779,-1.6771,-1.69,-1.6925,-1.6815,-1.6588,-1.657,-1.657,-1.663,-1.6948,-1.685,-1.687,-1.7072,-1.7186,-1.6979,-1.7383,-1.7637,-1.7932,-1.8501,-1.9032,-1.9505,-1.9784,-1.9935,-2.0319,-2.0776,-2.0526,-1.9971,-1.9824,-1.9807,-1.9192,-1.8844,-1.8739,-1.9047,-1.9095,-1.9376,-1.9648,-1.9537,-1.9526,-1.9301,-1.8808,-1.8493,-1.8054,-1.7814,-1.7461,-1.7379,-1.7183,-1.7025,-1.6941,-1.6941,-1.6857,-1.6738,-1.6686,-1.6659,-1.6633,-1.6615,-1.6615,-1.6615,-1.6615,-1.6615,-1.6615,-1.6615,-1.6615,-1.6588,-1.6562,-1.6509,-1.6482,-1.6394,-1.634,-2.3673,-2.3668,-2.3596,-2.2758,-2.1609,-2.1462,-2.0785,-1.9779,-1.9682,-1.9841,-1.9927,-1.9962,-1.9955,-1.9983,-2.0173,-2.0243,-2.0331,-2.0392,-2.0486,-2.0527,-2.0535,-2.0603,-2.0685,-2.0711,-2.0901,-2.103,-2.1103,-2.1222,-2.1394,-2.1556,-2.1656,-2.1642,-2.1703,-2.1691,-2.1591,-2.1175,-2.0891,-2.02,-1.9305,-1.8261,-1.7281,-1.7041,-1.6874,-1.6693,-1.6596,-1.6562,-1.6641,-1.657,-1.6588,-1.6649,-1.6704,-1.6599,-1.6409,-1.639,-1.6425,-1.6433,-1.646,-1.6495,-1.6537,-1.6729,-1.6819,-1.6762,-1.7215,-1.7606,-1.7732,-1.8105,-1.8638,-1.9023,-1.9195,-1.9233,-1.9299,-1.9454,-1.9243,-1.8927,-1.859,-1.847,-1.8094,-1.7922,-1.7823,-1.7818,-1.7977,-1.859,-1.9055,-1.8829,-1.8634,-1.8394,-1.8153,-1.7872,-1.7673,-1.7509,-1.7354,-1.7265,-1.7208,-1.7075,-1.6992,-1.6992,-1.6865,-1.6746,-1.6712,-1.6678,-1.6636,-1.6609,-1.6633,-1.6641,-1.6607,-1.6581,-1.6581,-1.6581,-1.6588,-1.6535,-1.6429,-1.6375,-1.6328,-1.6238,-1.6148,-2.284,-2.323,-2.3334,-2.2573,-2.1418,-2.1318,-2.0575,-1.9664,-1.9479,-1.956,-1.964,-1.9676,-1.9669,-1.9762,-1.9955,-2.0068,-2.0131,-2.022,-2.0357,-2.0441,-2.0449,-2.0517,-2.0652,-2.0718,-2.081,-2.0901,-2.0933,-2.0958,-2.1119,-2.1419,-2.1642,-2.1678,-2.1759,-2.1777,-2.1781,-2.1526,-2.1106,-2.0403,-1.9313,-1.7883,-1.6835,-1.6535,-1.6551,-1.6281,-1.6289,-1.6301,-1.6328,-1.6301,-1.6328,-1.6363,-1.6409,-1.6348,-1.6289,-1.6262,-1.6297,-1.6297,-1.6344,-1.6371,-1.6444,-1.654,-1.6559,-1.6594,-1.6885,-1.703,-1.7168,-1.7436,-1.782,-1.8108,-1.8274,-1.8337,-1.8438,-1.8661,-1.8261,-1.7862,-1.7595,-1.7355,-1.718,-1.6973,-1.6871,-1.6847,-1.6947,-1.7636,-1.8192,-1.8101,-1.7946,-1.7864,-1.7741,-1.7625,-1.7502,-1.7428,-1.7297,-1.7167,-1.7142,-1.7125,-1.7034,-1.7009,-1.6831,-1.672,-1.6633,-1.6617,-1.6614,-1.6614,-1.6617,-1.6625,-1.6644,-1.6591,-1.6546,-1.6474,-1.6402,-1.6348,-1.6266,-1.6191,-1.6108,-1.61,-1.6017,-2.202,-2.2449,-2.2709,-2.2112,-2.1003,-2.0828,-2.0132,-1.9166,-1.9101,-1.9191,-1.9265,-1.9302,-1.942,-1.9567,-1.9705,-1.9841,-1.9955,-2.0053,-2.0193,-2.0304,-2.0381,-2.0475,-2.0577,-2.0652,-2.0711,-2.081,-2.0835,-2.0893,-2.1055,-2.1285,-2.1534,-2.167,-2.1708,-2.1691,-2.157,-2.1276,-2.0871,-2.0095,-1.9169,-1.7992,-1.6933,-1.664,-1.6542,-1.6345,-1.6182,-1.6067,-1.6131,-1.6151,-1.6179,-1.6214,-1.6269,-1.6262,-1.623,-1.6289,-1.6309,-1.6336,-1.639,-1.6436,-1.6482,-1.6509,-1.6528,-1.6554,-1.6573,-1.6752,-1.6622,-1.6683,-1.6768,-1.7202,-1.7294,-1.7434,-1.7538,-1.7704,-1.7361,-1.7039,-1.6847,-1.6577,-1.6409,-1.6377,-1.6487,-1.6694,-1.6759,-1.6681,-1.7113,-1.7263,-1.7281,-1.7265,-1.7265,-1.7297,-1.7273,-1.7224,-1.71,-1.695,-1.6925,-1.6933,-1.6925,-1.6874,-1.6746,-1.6667,-1.6588,-1.6501,-1.647,-1.6496,-1.6482,-1.6528,-1.6591,-1.6493,-1.6382,-1.6301,-1.6226,-1.6163,-1.6072,-1.5968,-1.5883,-1.5883,-1.5854,-2.1288,-2.1151,-2.1363,-2.1029,-2.0338,-1.9752,-1.9207,-1.8683,-1.8662,-1.8738,-1.886,-1.9019,-1.9221,-1.9369,-1.9552,-1.9654,-1.9718,-2.001,-2.0111,-2.0181,-2.027,-2.0427,-2.0506,-2.0535,-2.0603,-2.0769,-2.0802,-2.0901,-2.1063,-2.1119,-2.1277,-2.1332,-2.1587,-2.1503,-2.1301,-2.0991,-2.0243,-1.9592,-1.8944,-1.861,-1.7784,-1.7394,-1.7093,-1.6932,-1.6519,-1.6194,-1.6194,-1.6194,-1.6194,-1.6194,-1.6262,-1.6269,-1.6285,-1.6371,-1.6409,-1.6429,-1.6463,-1.6509,-1.6535,-1.6546,-1.6554,-1.6633,-1.6659,-1.6659,-1.6525,-1.6543,-1.6549,-1.6451,-1.6627,-1.6513,-1.6427,-1.6241,-1.639,-1.6332,-1.6317,-1.6271,-1.6129,-1.6104,-1.6223,-1.6504,-1.6569,-1.6464,-1.6482,-1.672,-1.6925,-1.6984,-1.6959,-1.6967,-1.689,-1.6831,-1.6779,-1.6693,-1.6667,-1.6667,-1.6667,-1.6615,-1.6615,-1.6509,-1.6429,-1.6344,-1.6269,-1.6305,-1.6363,-1.6371,-1.6409,-1.6316,-1.6179,-1.6088,-1.5996,-1.5932,-1.5875,-1.5769,-1.5689,-1.5631,-1.558,-2.0886,-2.076,-2.0206,-2.0028,-2.0066,-1.9489,-1.8883,-1.8428,-1.8397,-1.8482,-1.8606,-1.876,-1.8829,-1.8988,-1.9206,-1.9339,-1.9509,-2.0198,-2.0157,-2.0241,-2.0401,-2.0558,-2.0532,-2.0465,-2.0543,-2.0685,-2.0736,-2.0794,-2.0893,-2.1023,-2.1151,-2.1309,-2.1528,-2.1409,-2.1142,-2.0706,-1.9922,-1.931,-1.894,-1.8703,-1.8141,-1.786,-1.7486,-1.7036,-1.693,-1.647,-1.6215,-1.6166,-1.6159,-1.6179,-1.6238,-1.6246,-1.6289,-1.6382,-1.6436,-1.6448,-1.6482,-1.6509,-1.6588,-1.6617,-1.673,-1.6789,-1.6755,-1.6607,-1.6471,-1.649,-1.6336,-1.6242,-1.6191,-1.6136,-1.5978,-1.5957,-1.5945,-1.5835,-1.5842,-1.5922,-1.5951,-1.5957,-1.6013,-1.634,-1.6309,-1.6194,-1.6219,-1.6293,-1.6501,-1.6686,-1.6659,-1.6633,-1.6562,-1.6509,-1.6482,-1.649,-1.649,-1.6482,-1.6482,-1.6482,-1.6509,-1.6375,-1.6246,-1.6207,-1.6139,-1.6207,-1.6274,-1.6262,-1.625,-1.6159,-1.6039,-1.5854,-1.5761,-1.5797,-1.5711,-1.5566,-1.5485,-1.5463,-1.5433,-2.0323,-2.0025,-1.9276,-1.9256,-1.9632,-1.8953,-1.8399,-1.8077,-1.8049,-1.8168,-1.8314,-1.8397,-1.8461,-1.8592,-1.8822,-1.9056,-1.9374,-1.9982,-2.0176,-2.0385,-2.0577,-2.0723,-2.0576,-2.0454,-2.0483,-2.0626,-2.0718,-2.0777,-2.0835,-2.0868,-2.0925,-2.1127,-2.1471,-2.1424,-2.095,-2.0405,-1.9856,-1.9413,-1.9178,-1.9084,-1.8639,-1.8416,-1.8012,-1.7456,-1.7181,-1.6707,-1.6271,-1.606,-1.5978,-1.6034,-1.6074,-1.6094,-1.6177,-1.6274,-1.6375,-1.6409,-1.6436,-1.649,-1.6554,-1.6575,-1.6696,-1.6712,-1.6596,-1.6498,-1.6409,-1.6348,-1.6219,-1.6004,-1.6017,-1.6024,-1.5827,-1.5863,-1.5906,-1.5877,-1.5898,-1.597,-1.5998,-1.6011,-1.606,-1.6166,-1.6136,-1.6207,-1.6171,-1.6246,-1.6281,-1.6409,-1.6348,-1.6328,-1.6316,-1.6289,-1.6281,-1.6281,-1.6289,-1.6309,-1.6328,-1.6312,-1.6273,-1.6143,-1.6039,-1.6052,-1.6024,-1.61,-1.6108,-1.6067,-1.6047,-1.6019,-1.5926,-1.5812,-1.5755,-1.5726,-1.5639,-1.5514,-1.5507,-1.5485,-1.5485,-1.961,-1.8807,-1.8605,-1.8832,-1.9101,-1.8036,-1.7549,-1.7516,-1.7557,-1.7693,-1.7916,-1.8002,-1.8114,-1.8319,-1.8514,-1.8714,-1.9109,-1.9824,-2.02,-2.0317,-2.0618,-2.0782,-2.0685,-2.0527,-2.0441,-2.0527,-2.0644,-2.0752,-2.0864,-2.0924,-2.0843,-2.0989,-2.1513,-2.1549,-2.0807,-2.01,-1.9747,-1.9775,-1.975,-1.9758,-1.9645,-1.9264,-1.8747,-1.8167,-1.7578,-1.7048,-1.6697,-1.5979,-1.5926,-1.6108,-1.5896,-1.5862,-1.5945,-1.6243,-1.6402,-1.6409,-1.6517,-1.657,-1.6562,-1.6393,-1.6382,-1.6482,-1.6444,-1.6289,-1.6136,-1.61,-1.61,-1.5906,-1.5877,-1.5906,-1.5871,-1.59,-1.5934,-1.5947,-1.5975,-1.6004,-1.6032,-1.6116,-1.6191,-1.6211,-1.6301,-1.6371,-1.6281,-1.6234,-1.6159,-1.6131,-1.6032,-1.6039,-1.6083,-1.6103,-1.6116,-1.6143,-1.6151,-1.6151,-1.6159,-1.6102,-1.6032,-1.5894,-1.5945,-1.6099,-1.6023,-1.5975,-1.5955,-1.5906,-1.5934,-1.5955,-1.5906,-1.5799,-1.577,-1.5741,-1.5639,-1.5544,-1.5514,-1.5544,-1.5573,-1.8019,-1.7266,-1.7545,-1.7815,-1.792,-1.7368,-1.7122,-1.7128,-1.724,-1.7399,-1.7611,-1.7673,-1.7767,-1.7942,-1.8128,-1.8372,-1.8779,-1.9569,-1.9982,-1.9796,-2.0423,-2.0414,-2.0341,-2.0329,-2.0357,-2.0494,-2.061,-2.0827,-2.1144,-2.1085,-2.1368,-2.1633,-2.169,-2.1654,-2.099,-2.0301,-1.9841,-2.001,-2.008,-2.0143,-2.0177,-1.9909,-1.949,-1.8814,-1.8107,-1.757,-1.7203,-1.627,-1.5947,-1.6281,-1.6126,-1.5849,-1.6034,-1.6386,-1.6482,-1.6463,-1.6517,-1.6355,-1.6289,-1.6163,-1.6203,-1.6301,-1.6301,-1.6163,-1.6156,-1.6011,-1.5942,-1.5921,-1.5913,-1.5934,-1.5955,-1.5962,-1.5975,-1.6004,-1.6032,-1.6095,-1.6159,-1.6262,-1.6336,-1.6328,-1.6382,-1.639,-1.6363,-1.6336,-1.6234,-1.6187,-1.6143,-1.606,-1.6103,-1.6039,-1.6032,-1.6032,-1.6032,-1.6011,-1.5985,-1.6084,-1.604,-1.5957,-1.6153,-1.6461,-1.6303,-1.5987,-1.5926,-1.5955,-1.5955,-1.5926,-1.5906,-1.5885,-1.5835,-1.5777,-1.5697,-1.5668,-1.5675,-1.5683,-1.5712,-1.6854,-1.6292,-1.6777,-1.6748,-1.6495,-1.6716,-1.6846,-1.6918,-1.7031,-1.7199,-1.7317,-1.7406,-1.7536,-1.7659,-1.7814,-1.8095,-1.8463,-1.93,-1.9767,-1.9539,-2.0212,-2.031,-2.0242,-2.0109,-2.0235,-2.0407,-2.0579,-2.0813,-2.1227,-2.12,-2.1658,-2.2163,-2.2038,-2.1717,-2.1241,-2.091,-2.0452,-2.0479,-2.0379,-2.0292,-2.0091,-1.9794,-1.9415,-1.8742,-1.8074,-1.7555,-1.7212,-1.6593,-1.5921,-1.636,-1.6327,-1.5938,-1.6184,-1.6397,-1.6493,-1.6463,-1.6363,-1.6207,-1.6055,-1.6083,-1.6123,-1.6171,-1.6072,-1.6045,-1.608,-1.5962,-1.5934,-1.5934,-1.5991,-1.6039,-1.606,-1.606,-1.6095,-1.6123,-1.6171,-1.6234,-1.6223,-1.6324,-1.5972,-1.6022,-1.5567,-1.5791,-1.6038,-1.6382,-1.6355,-1.6309,-1.6289,-1.614,-1.6022,-1.6088,-1.606,-1.606,-1.606,-1.6039,-1.6108,-1.6201,-1.6156,-1.6019,-1.63,-1.6694,-1.6331,-1.5947,-1.5975,-1.6004,-1.5975,-1.5975,-1.5983,-1.5955,-1.5766,-1.5752,-1.587,-1.5848,-1.5806,-1.5814,-1.5835,-1.6049,-1.5663,-1.6226,-1.5672,-1.4886,-1.5944,-1.6571,-1.684,-1.6905,-1.696,-1.6996,-1.7273,-1.7385,-1.7488,-1.7631,-1.7922,-1.8291,-1.9025,-1.9364,-1.9667,-1.9936,-2.0143,-2.0221,-2.014,-2.0319,-2.0431,-2.064,-2.0987,-2.1288,-2.179,-2.2378,-2.2478,-2.2003,-2.1931,-2.1965,-2.1913,-2.1352,-2.085,-2.0443,-2.0366,-2.0167,-1.9546,-1.9148,-1.8493,-1.777,-1.7193,-1.6656,-1.5893,-1.5799,-1.592,-1.5928,-1.5902,-1.6045,-1.6308,-1.6343,-1.6301,-1.6214,-1.6111,-1.597,-1.5998,-1.5991,-1.5983,-1.5812,-1.5762,-1.5848,-1.5962,-1.5962,-1.6019,-1.6067,-1.6123,-1.6151,-1.6207,-1.6242,-1.6316,-1.6363,-1.6324,-1.6243,-1.5999,-1.5518,-1.5016,-1.422,-1.4121,-1.4391,-1.4805,-1.3403,-1.5849,-1.5721,-1.555,-1.5619,-1.6234,-1.6207,-1.6179,-1.6179,-1.6159,-1.6253,-1.6529,-1.6384,-1.6276,-1.6495,-1.6754,-1.6336,-1.6032,-1.606,-1.6067,-1.6032,-1.5542,-1.3991,-1.4356,-1.5542,-1.5506,-1.4853,-1.5926,-1.5885,-1.5856,-1.5856,-1.4075,-1.4196,-1.4385,-1.4193,-1.3998,-1.4681,-1.5359,-1.5946,-1.6095,-1.6281,-1.665,-1.6918,-1.7122,-1.717,-1.7447,-1.7774,-1.8117,-1.8519,-1.8825,-1.9137,-1.9486,-1.9723,-1.9915,-2.0073,-2.0413,-2.0737,-2.099,-2.1309,-2.2291,-2.2797,-2.2498,-2.2342,-2.2422,-2.2643,-2.2817,-2.2974,-2.1983,-2.1172,-2.0685,-2.0503,-2.0328,-1.9834,-1.9337,-1.8729,-1.7598,-1.7067,-1.66,-1.5626,-1.5645,-1.6266,-1.5898,-1.5856,-1.6396,-1.6399,-1.6301,-1.6055,-1.6062,-1.6055,-1.5921,-1.5962,-1.6011,-1.5962,-1.5906,-1.5898,-1.5955,-1.6019,-1.6047,-1.6095,-1.6154,-1.6225,-1.6265,-1.632,-1.5785,-1.5289,-1.5156,-1.479,-1.4271,-1.2501,-1.2038,-1.1318,-1.0631,-1.0167,-1.0735,-0.9174,-0.8485,-1.2716,-1.4725,-1.3997,-1.4966,-1.5498,-1.6487,-1.6475,-1.6645,-1.6753,-1.6877,-1.7124,-1.681,-1.6604,-1.6747,-1.6757,-1.6397,-1.6159,-1.6159,-1.5829,-1.5283,-1.3136,-1.0532,-1.2223,-1.5747,-1.3615,-1.2882,-1.4615,-1.5955,-1.5926,-1.5898,-1.2712,-1.2628,-1.3072,-1.3326,-1.3479,-1.3658,-1.4209,-1.4954,-1.5605,-1.6113,-1.6485,-1.6797,-1.696,-1.7038,-1.7352,-1.7639,-1.7902,-1.8223,-1.8488,-1.8638,-1.9033,-1.9369,-1.9626,-2.0112,-2.059,-2.0909,-2.1205,-2.1532,-2.2487,-2.2862,-2.268,-2.2824,-2.3069,-2.3172,-2.323,-2.3083,-2.2521,-2.1864,-2.1363,-2.1052,-2.0573,-1.9978,-1.9356,-1.8738,-1.75,-1.6764,-1.6593,-1.5494,-1.5771,-1.6463,-1.6059,-1.61,-1.6478,-1.6355,-1.6199,-1.6026,-1.6019,-1.6011,-1.5962,-1.6011,-1.6067,-1.6103,-1.6118,-1.6159,-1.6123,-1.6151,-1.6179,-1.6234,-1.6303,-1.635,-1.6402,-1.6243,-1.5024,-1.3855,-1.3305,-1.2774,-1.0749,-0.8474,-0.7474,-0.6753,-0.6055,-0.5376,-0.4435,-0.2885,-0.3022,-0.6363,-0.8024,-0.7671,-1.0527,-1.422,-1.5866,-1.699,-1.7267,-1.7494,-1.755,-1.737,-1.6928,-1.6666,-1.6743,-1.6668,-1.6339,-1.6137,-1.5998,-1.5176,-1.4195,-1.2365,-1.0988,-1.3735,-1.6176,-1.382,-1.2608,-1.4594,-1.5955,-1.6032,-1.5975,-1.1931,-1.1217,-1.2211,-1.2798,-1.3064,-1.2909,-1.3246,-1.4014,-1.5209,-1.5994,-1.6269,-1.6699,-1.684,-1.6905,-1.7234,-1.7488,-1.774,-1.7996,-1.8189,-1.8228,-1.8827,-1.9191,-1.9649,-2.0348,-2.0827,-2.1,-2.1324,-2.1798,-2.1787,-2.2302,-2.2927,-2.3275,-2.2934,-2.2963,-2.326,-2.3072,-2.2654,-2.2398,-2.232,-2.2137,-2.0532,-1.9429,-1.8342,-1.7696,-1.6463,-1.5339,-1.5573,-1.5602,-1.5655,-1.6118,-1.6418,-1.6319,-1.6331,-1.6316,-1.6159,-1.6167,-1.6176,-1.6138,-1.6161,-1.6276,-1.6271,-1.6319,-1.6386,-1.5642,-1.5201,-1.6238,-1.6563,-1.6668,-1.6804,-1.5481,-1.5079,-1.3564,-1.2111,-1.0291,-0.9006,-0.8218,-0.6701,-0.4124,-0.1767,-0.0829,0.0546,0.0832,-0.0651,0.056,0.0503,-0.1321,-0.1673,-0.1593,-0.4821,-1.0205,-1.2847,-1.4978,-1.5573,-1.5765,-1.7512,-1.7285,-1.691,-1.6724,-1.6067,-1.5073,-1.3692,-1.4414,-1.5771,-1.5354,-1.4933,-1.3926,-1.3424,-1.5509,-1.608,-1.4385,-1.3848,-1.524,-1.5685,-1.4666,-1.5672,-1.1355,-1.1384,-1.1347,-1.1755,-1.2353,-1.2374,-1.2711,-1.3299,-1.4212,-1.5006,-1.5614,-1.6175,-1.6528,-1.6565,-1.6996,-1.7253,-1.7508,-1.7781,-1.7975,-1.8307,-1.8718,-1.9158,-1.9441,-2.037,-2.1,-2.164,-2.1995,-2.206,-2.2112,-2.2524,-2.2716,-2.2586,-2.2562,-2.2926,-2.3187,-2.2958,-2.2933,-2.2706,-2.2783,-2.2647,-2.1531,-2.0094,-1.8964,-1.8244,-1.7149,-1.5811,-1.569,-1.5347,-1.5378,-1.5573,-1.5983,-1.6139,-1.6212,-1.6156,-1.6113,-1.6113,-1.5932,-1.5396,-1.6253,-1.6268,-1.6137,-1.6495,-1.6165,-1.4232,-1.3984,-1.593,-1.6809,-1.6765,-1.6268,-1.4554,-1.2588,-1.0612,-0.8557,-0.6388,-0.4447,-0.3459,-0.2424,0.0605,0.3673,0.5198,0.6771,0.5948,0.4163,0.3518,0.3228,0.3234,0.3385,0.2801,0.0203,-0.39,-0.6376,-0.868,-1.151,-1.2706,-1.4818,-1.4969,-1.3389,-1.3239,-1.2617,-1.1744,-1.0827,-0.9933,-0.9823,-1.4626,-1.6039,-1.2633,-1.1651,-1.547,-1.5513,-1.265,-1.1357,-1.1155,-1.0706,-0.9819,-1.2613,-1.1023,-1.0858,-1.0875,-1.1318,-1.1945,-1.2316,-1.2614,-1.3064,-1.3889,-1.4408,-1.4772,-1.5528,-1.5976,-1.6157,-1.6693,-1.7093,-1.7343,-1.757,-1.7814,-1.8156,-1.8623,-1.9188,-1.9746,-2.0445,-2.1352,-2.2076,-2.1905,-2.1944,-2.2282,-2.1907,-2.1784,-2.2303,-2.267,-2.274,-2.3016,-2.3223,-2.3112,-2.2938,-2.2919,-2.2503,-2.2016,-2.0754,-1.9522,-1.8817,-1.7664,-1.6444,-1.5855,-1.5534,-1.5615,-1.5645,-1.594,-1.6055,-1.5433,-1.3941,-1.4363,-1.404,-1.337,-1.2252,-1.4526,-1.5191,-1.507,-1.5551,-1.4567,-1.204,-1.1216,-1.2384,-0.9724,-0.9729,-1.164,-1.0504,-0.719,-0.4866,-0.2688,-0.0499,0.0503,0.1362,0.3405,0.6144,0.7674,0.8222,0.9374,0.9538,0.8431,0.8857,0.8661,0.8735,0.8826,0.8647,0.581,0.3023,0.0484,-0.1887,-0.4408,-0.7064,-0.8752,-0.8728,-0.7869,-0.8076,-0.8761,-0.7648,-0.6258,-0.3993,-0.3905,-0.8606,-1.014,-0.6666,-0.7142,-1.1158,-1.0108,-0.6341,-0.5775,-0.5851,-0.5386,-0.484,-0.6164,-1.0913,-1.0205,-1.0667,-1.1305,-1.1922,-1.2521,-1.2672,-1.2812,-1.3747,-1.3936,-1.3705,-1.4698,-1.5281,-1.5914,-1.6411,-1.6863,-1.7205,-1.7358,-1.7611,-1.7794,-1.839,-1.9091,-1.9893,-2.0673,-2.1549,-2.2063,-2.2076,-2.2157,-2.236,-2.1742,-2.164,-2.2417,-2.2498,-2.2364,-2.3018,-2.3208,-2.2958,-2.2685,-2.2455,-2.1941,-2.151,-2.1008,-1.9878,-1.8825,-1.7831,-1.6834,-1.631,-1.6121,-1.6158,-1.6203,-1.6032,-1.5181,-1.3898,-1.1831,-1.1357,-1.0967,-0.7633,-0.876,-1.1297,-1.063,-1.2152,-1.3111,-1.1305,-0.962,-0.8414,-0.6253,-0.3549,-0.2956,-0.4863,-0.5356,-0.2053,0.1043,0.3229,0.4528,0.5222,0.5807,0.8286,1.04,1.0532,1.0749,1.1165,1.1674,1.2048,1.2629,1.3015,1.3241,1.3543,1.3839,1.3052,1.0395,0.7784,0.5777,0.3694,0.0971,-0.2965,-0.251,-0.1967,-0.3409,-0.393,-0.2965,-0.1843,-0.0133,-0.0033,-0.2417,-0.2664,-0.1889,-0.2319,-0.5263,-0.3043,-0.1116,-0.0182,-0.0253,-0.0035,0.0516,0.1241,-1.0913,-1.0502,-1.0816,-1.1464,-1.2255,-1.2515,-1.226,-1.2049,-1.2905,-1.2856,-1.2633,-1.3595,-1.472,-1.6088,-1.6306,-1.6515,-1.6527,-1.6921,-1.6944,-1.6983,-1.8084,-1.9037,-1.9943,-2.0783,-2.1564,-2.2039,-2.2385,-2.2527,-2.2126,-2.1436,-2.1098,-2.1366,-2.1023,-2.1173,-2.1687,-2.1967,-2.2192,-2.2039,-2.1859,-2.1427,-2.0568,-2.0032,-1.9478,-1.8604,-1.7871,-1.7263,-1.6902,-1.6719,-1.6786,-1.6818,-1.6252,-1.4205,-1.1676,-0.9184,-0.7878,-0.6298,-0.2857,-0.3691,-0.5355,-0.5156,-0.6593,-0.7115,-0.5019,-0.3072,-0.1466,0.0646,0.3262,0.571,0.3845,0.1114,0.3336,0.6737,0.9142,0.8947,0.9305,0.9521,1.0789,1.1133,1.1096,1.1328,1.1619,1.1869,1.1958,1.2514,1.2976,1.3315,1.3809,1.4117,1.4444,1.426,1.4082,1.2228,1.0149,0.516,-0.0196,0.2924,0.3646,0.1939,0.0951,0.188,0.269,0.3212,0.2744,0.1663,-0.007,-0.0463,-0.1089,0.0872,0.0189,0.1849,0.4399,0.5401,0.5532,0.5877,0.6553]}]]